Wetterdaten: Montag, 22.07.2024
Datum Zeit Temp. I. Temp. A. Feuchte I. Feuchte A. Luftdruck Regen Wind Richtung Richtung Sonnenschein Solar Taupunkt Windchill Windböen
22.07.2024 00:00 24,2 °C 21,6 °C 64 % 82 % 1009,4 hPa 0,0 l/m² 2,2 km/h (1 Bft) NO 41 ° 0 min 0 W/m² 18,4 °C 21,6 °C 3,2 km/h (1 Bft)
22.07.2024 00:02 24,2 °C 21,5 °C 64 % 82 % 1009,5 hPa 0,0 l/m² 1,6 km/h (1 Bft) NO 41 ° 0 min 0 W/m² 18,3 °C 21,5 °C 3,2 km/h (1 Bft)
22.07.2024 00:03 24,3 °C 21,5 °C 64 % 82 % 1009,4 hPa 0,0 l/m² 3,2 km/h (1 Bft) NO 41 ° 0 min 0 W/m² 18,3 °C 21,5 °C 4,8 km/h (1 Bft)
22.07.2024 00:05 24,2 °C 21,5 °C 64 % 82 % 1009,4 hPa 0,0 l/m² 2,8 km/h (1 Bft) NO 41 ° 0 min 0 W/m² 18,3 °C 21,5 °C 3,2 km/h (1 Bft)
22.07.2024 00:07 24,2 °C 21,5 °C 64 % 83 % 1009,3 hPa 0,0 l/m² 1,8 km/h (1 Bft) NO 41 ° 0 min 0 W/m² 18,5 °C 21,5 °C 3,2 km/h (1 Bft)
22.07.2024 00:09 24,2 °C 21,4 °C 64 % 83 % 1009,3 hPa 0,0 l/m² 0,6 km/h (0 Bft) NO 41 ° 0 min 0 W/m² 18,4 °C 21,4 °C 1,6 km/h (1 Bft)
22.07.2024 00:11 24,2 °C 21,4 °C 64 % 83 % 1009,4 hPa 0,0 l/m² 0,2 km/h (0 Bft) NO 41 ° 0 min 0 W/m² 18,4 °C 21,4 °C 1,6 km/h (1 Bft)
22.07.2024 00:12 24,2 °C 21,4 °C 64 % 83 % 1009,4 hPa 0,0 l/m² 0,2 km/h (0 Bft) NO 41 ° 0 min 0 W/m² 18,4 °C 21,4 °C 1,6 km/h (1 Bft)
22.07.2024 00:13 24,2 °C 21,4 °C 64 % 83 % 1009,5 hPa 0,0 l/m² 0,3 km/h (0 Bft) NO 41 ° 0 min 0 W/m² 18,4 °C 21,4 °C 1,6 km/h (1 Bft)
22.07.2024 00:15 24,2 °C 21,3 °C 64 % 83 % 1009,4 hPa 0,0 l/m² 0,7 km/h (0 Bft) N-NO 26 ° 0 min 0 W/m² 18,3 °C 21,3 °C 3,2 km/h (1 Bft)
22.07.2024 00:17 24,2 °C 21,3 °C 64 % 83 % 1009,5 hPa 0,0 l/m² 1,2 km/h (1 Bft) W 271 ° 0 min 0 W/m² 18,3 °C 21,3 °C 4,8 km/h (1 Bft)
22.07.2024 00:19 24,2 °C 21,3 °C 64 % 83 % 1009,5 hPa 0,0 l/m² 2,3 km/h (1 Bft) W-SW 252 ° 0 min 0 W/m² 18,3 °C 21,3 °C 4,8 km/h (1 Bft)
22.07.2024 00:21 24,2 °C 21,3 °C 64 % 83 % 1009,5 hPa 0,0 l/m² 2,6 km/h (1 Bft) W-SW 254 ° 0 min 0 W/m² 18,3 °C 21,3 °C 4,8 km/h (1 Bft)
22.07.2024 00:22 24,2 °C 21,3 °C 64 % 83 % 1009,5 hPa 0,0 l/m² 2,5 km/h (1 Bft) W-SW 254 ° 0 min 0 W/m² 18,3 °C 21,3 °C 3,2 km/h (1 Bft)
22.07.2024 00:23 24,2 °C 21,2 °C 64 % 83 % 1009,5 hPa 0,0 l/m² 1,7 km/h (1 Bft) W-SW 254 ° 0 min 0 W/m² 18,2 °C 21,2 °C 3,2 km/h (1 Bft)
22.07.2024 00:25 24,2 °C 21,2 °C 65 % 83 % 1009,5 hPa 0,0 l/m² 0,5 km/h (0 Bft) W-SW 254 ° 0 min 0 W/m² 18,2 °C 21,2 °C 3,2 km/h (1 Bft)
22.07.2024 00:27 24,2 °C 21,2 °C 65 % 84 % 1009,5 hPa 0,0 l/m² 0,9 km/h (0 Bft) W-SW 254 ° 0 min 0 W/m² 18,4 °C 21,2 °C 3,2 km/h (1 Bft)
22.07.2024 00:29 24,2 °C 21,2 °C 65 % 84 % 1009,5 hPa 0,0 l/m² 0,8 km/h (0 Bft) W-SW 254 ° 0 min 0 W/m² 18,4 °C 21,2 °C 1,6 km/h (1 Bft)
22.07.2024 00:31 24,2 °C 21,2 °C 65 % 84 % 1009,4 hPa 0,0 l/m² 1,1 km/h (1 Bft) W-SW 254 ° 0 min 0 W/m² 18,4 °C 21,2 °C 3,2 km/h (1 Bft)
22.07.2024 00:32 24,2 °C 21,2 °C 65 % 84 % 1009,4 hPa 0,0 l/m² 2,0 km/h (1 Bft) W-SW 254 ° 0 min 0 W/m² 18,4 °C 21,2 °C 3,2 km/h (1 Bft)
22.07.2024 00:33 24,2 °C 21,2 °C 65 % 84 % 1009,4 hPa 0,0 l/m² 2,1 km/h (1 Bft) W-SW 254 ° 0 min 0 W/m² 18,4 °C 21,2 °C 3,2 km/h (1 Bft)
22.07.2024 00:35 24,2 °C 21,1 °C 65 % 84 % 1009,5 hPa 0,0 l/m² 4,5 km/h (1 Bft) W-SW 250 ° 0 min 0 W/m² 18,3 °C 21,1 °C 6,4 km/h (2 Bft)
22.07.2024 00:37 24,2 °C 21,1 °C 65 % 84 % 1009,5 hPa 0,0 l/m² 4,6 km/h (1 Bft) W-SW 250 ° 0 min 0 W/m² 18,3 °C 21,1 °C 6,4 km/h (2 Bft)
22.07.2024 00:39 24,2 °C 21,1 °C 65 % 84 % 1009,6 hPa 0,0 l/m² 4,1 km/h (1 Bft) W-SW 250 ° 0 min 0 W/m² 18,3 °C 21,1 °C 6,4 km/h (2 Bft)
22.07.2024 00:41 24,2 °C 21,1 °C 65 % 84 % 1009,5 hPa 0,0 l/m² 3,4 km/h (1 Bft) W-SW 250 ° 0 min 0 W/m² 18,3 °C 21,1 °C 6,4 km/h (2 Bft)
22.07.2024 00:42 24,2 °C 21,1 °C 65 % 84 % 1009,5 hPa 0,0 l/m² 2,6 km/h (1 Bft) W-SW 251 ° 0 min 0 W/m² 18,3 °C 21,1 °C 4,8 km/h (1 Bft)
22.07.2024 00:43 24,2 °C 21,1 °C 65 % 84 % 1009,5 hPa 0,0 l/m² 2,6 km/h (1 Bft) W-SW 251 ° 0 min 0 W/m² 18,3 °C 21,1 °C 3,2 km/h (1 Bft)
22.07.2024 00:45 24,2 °C 21,1 °C 65 % 84 % 1009,5 hPa 0,0 l/m² 2,6 km/h (1 Bft) W-SW 251 ° 0 min 0 W/m² 18,3 °C 21,1 °C 4,8 km/h (1 Bft)
22.07.2024 00:47 24,2 °C 21,0 °C 65 % 84 % 1009,5 hPa 0,0 l/m² 1,6 km/h (1 Bft) W-SW 251 ° 0 min 0 W/m² 18,2 °C 21,0 °C 3,2 km/h (1 Bft)
22.07.2024 00:49 24,2 °C 21,0 °C 65 % 84 % 1009,5 hPa 0,0 l/m² 1,1 km/h (1 Bft) W-SW 251 ° 0 min 0 W/m² 18,2 °C 21,0 °C 3,2 km/h (1 Bft)
22.07.2024 00:51 24,1 °C 20,9 °C 65 % 84 % 1009,6 hPa 0,0 l/m² 1,1 km/h (1 Bft) W-SW 251 ° 0 min 0 W/m² 18,1 °C 20,9 °C 3,2 km/h (1 Bft)
22.07.2024 00:52 24,2 °C 21,0 °C 65 % 84 % 1009,6 hPa 0,0 l/m² 0,8 km/h (0 Bft) W-SW 251 ° 0 min 0 W/m² 18,2 °C 21,0 °C 3,2 km/h (1 Bft)
22.07.2024 00:53 24,2 °C 20,9 °C 65 % 84 % 1009,6 hPa 0,0 l/m² 2,6 km/h (1 Bft) W-SW 251 ° 0 min 0 W/m² 18,1 °C 20,9 °C 4,8 km/h (1 Bft)
22.07.2024 00:55 24,1 °C 20,9 °C 65 % 84 % 1009,7 hPa 0,0 l/m² 1,9 km/h (1 Bft) W-SW 251 ° 0 min 0 W/m² 18,1 °C 20,9 °C 4,8 km/h (1 Bft)
22.07.2024 00:57 24,2 °C 20,9 °C 65 % 84 % 1009,7 hPa 0,0 l/m² 0,1 km/h (0 Bft) W-SW 251 ° 0 min 0 W/m² 18,1 °C 20,9 °C 1,6 km/h (1 Bft)
22.07.2024 00:59 24,2 °C 20,9 °C 65 % 84 % 1009,7 hPa 0,0 l/m² 0,0 km/h (0 Bft) W-SW 251 ° 0 min 0 W/m² 18,1 °C 20,9 °C 0,0 km/h (0 Bft)
22.07.2024 01:01 24,1 °C 20,9 °C 65 % 84 % 1009,7 hPa 0,0 l/m² 0,0 km/h (0 Bft) W-SW 251 ° 0 min 0 W/m² 18,1 °C 20,9 °C 0,0 km/h (0 Bft)
22.07.2024 01:02 24,1 °C 20,9 °C 65 % 84 % 1009,7 hPa 0,0 l/m² 0,0 km/h (0 Bft) W-SW 251 ° 0 min 0 W/m² 18,1 °C 20,9 °C 0,0 km/h (0 Bft)
22.07.2024 01:03 24,1 °C 20,9 °C 65 % 84 % 1009,7 hPa 0,0 l/m² 0,0 km/h (0 Bft) W-SW 251 ° 0 min 0 W/m² 18,1 °C 20,9 °C 0,0 km/h (0 Bft)
22.07.2024 01:05 24,2 °C 20,9 °C 65 % 84 % 1009,6 hPa 0,0 l/m² 0,0 km/h (0 Bft) W-SW 251 ° 0 min 0 W/m² 18,1 °C 20,9 °C 0,0 km/h (0 Bft)
22.07.2024 01:07 24,1 °C 20,9 °C 65 % 84 % 1009,7 hPa 0,0 l/m² 0,0 km/h (0 Bft) W-SW 251 ° 0 min 0 W/m² 18,1 °C 20,9 °C 0,0 km/h (0 Bft)
22.07.2024 01:09 24,1 °C 20,8 °C 65 % 84 % 1009,7 hPa 0,0 l/m² 0,0 km/h (0 Bft) W-SW 251 ° 0 min 0 W/m² 18,0 °C 20,8 °C 0,0 km/h (0 Bft)
22.07.2024 01:11 24,2 °C 20,9 °C 65 % 84 % 1009,8 hPa 0,0 l/m² 0,0 km/h (0 Bft) W-SW 251 ° 0 min 0 W/m² 18,1 °C 20,9 °C 0,0 km/h (0 Bft)
22.07.2024 01:12 24,2 °C 20,8 °C 65 % 84 % 1009,8 hPa 0,0 l/m² 0,0 km/h (0 Bft) W-SW 251 ° 0 min 0 W/m² 18,0 °C 20,8 °C 0,0 km/h (0 Bft)
22.07.2024 01:13 24,1 °C 20,8 °C 65 % 84 % 1009,7 hPa 0,0 l/m² 0,0 km/h (0 Bft) W-SW 251 ° 0 min 0 W/m² 18,0 °C 20,8 °C 0,0 km/h (0 Bft)
22.07.2024 01:15 24,1 °C 20,8 °C 65 % 84 % 1009,7 hPa 0,0 l/m² 0,0 km/h (0 Bft) W-SW 251 ° 0 min 0 W/m² 18,0 °C 20,8 °C 0,0 km/h (0 Bft)
22.07.2024 01:17 24,1 °C 20,8 °C 65 % 84 % 1009,7 hPa 0,0 l/m² 0,0 km/h (0 Bft) W-SW 251 ° 0 min 0 W/m² 18,0 °C 20,8 °C 0,0 km/h (0 Bft)
22.07.2024 01:19 24,1 °C 20,8 °C 65 % 84 % 1009,7 hPa 0,0 l/m² 0,0 km/h (0 Bft) W-SW 251 ° 0 min 0 W/m² 18,0 °C 20,8 °C 0,0 km/h (0 Bft)
22.07.2024 01:21 24,1 °C 20,8 °C 65 % 85 % 1009,7 hPa 0,0 l/m² 0,0 km/h (0 Bft) W-SW 251 ° 0 min 0 W/m² 18,2 °C 20,8 °C 0,0 km/h (0 Bft)
22.07.2024 01:22 24,1 °C 20,8 °C 65 % 85 % 1009,7 hPa 0,0 l/m² 0,0 km/h (0 Bft) W-SW 251 ° 0 min 0 W/m² 18,2 °C 20,8 °C 0,0 km/h (0 Bft)
22.07.2024 01:23 24,1 °C 20,8 °C 65 % 85 % 1009,7 hPa 0,0 l/m² 0,0 km/h (0 Bft) W-SW 251 ° 0 min 0 W/m² 18,2 °C 20,8 °C 0,0 km/h (0 Bft)
22.07.2024 01:25 24,1 °C 20,8 °C 65 % 85 % 1009,7 hPa 0,0 l/m² 0,0 km/h (0 Bft) W-SW 251 ° 0 min 0 W/m² 18,2 °C 20,8 °C 0,0 km/h (0 Bft)
22.07.2024 01:27 24,1 °C 20,8 °C 65 % 85 % 1009,8 hPa 0,0 l/m² 0,1 km/h (0 Bft) W-SW 251 ° 0 min 0 W/m² 18,2 °C 20,8 °C 1,6 km/h (1 Bft)
22.07.2024 01:29 24,1 °C 20,8 °C 65 % 85 % 1009,8 hPa 0,0 l/m² 0,0 km/h (0 Bft) W-SW 251 ° 0 min 0 W/m² 18,2 °C 20,8 °C 0,0 km/h (0 Bft)
22.07.2024 01:31 24,1 °C 20,8 °C 65 % 85 % 1009,7 hPa 0,0 l/m² 0,0 km/h (0 Bft) W-SW 251 ° 0 min 0 W/m² 18,2 °C 20,8 °C 1,6 km/h (1 Bft)
22.07.2024 01:32 24,1 °C 20,7 °C 65 % 85 % 1009,7 hPa 0,0 l/m² 0,1 km/h (0 Bft) W-SW 251 ° 0 min 0 W/m² 18,1 °C 20,7 °C 1,6 km/h (1 Bft)
22.07.2024 01:33 24,1 °C 20,7 °C 65 % 85 % 1009,7 hPa 0,0 l/m² 0,6 km/h (0 Bft) W-SW 251 ° 0 min 0 W/m² 18,1 °C 20,7 °C 1,6 km/h (1 Bft)
22.07.2024 01:35 24,1 °C 20,8 °C 65 % 85 % 1009,8 hPa 0,0 l/m² 0,4 km/h (0 Bft) W-SW 251 ° 0 min 0 W/m² 18,2 °C 20,8 °C 1,6 km/h (1 Bft)
22.07.2024 01:37 24,1 °C 20,7 °C 65 % 85 % 1009,7 hPa 0,0 l/m² 0,1 km/h (0 Bft) W-SW 251 ° 0 min 0 W/m² 18,1 °C 20,7 °C 1,6 km/h (1 Bft)
22.07.2024 01:39 24,1 °C 20,7 °C 65 % 85 % 1009,8 hPa 0,0 l/m² 0,0 km/h (0 Bft) W-SW 251 ° 0 min 0 W/m² 18,1 °C 20,7 °C 1,6 km/h (1 Bft)
22.07.2024 01:41 24,1 °C 20,7 °C 65 % 85 % 1009,8 hPa 0,0 l/m² 0,1 km/h (0 Bft) W-SW 251 ° 0 min 0 W/m² 18,1 °C 20,7 °C 1,6 km/h (1 Bft)
22.07.2024 01:42 24,1 °C 20,7 °C 65 % 85 % 1009,8 hPa 0,0 l/m² 0,7 km/h (0 Bft) W-SW 251 ° 0 min 0 W/m² 18,1 °C 20,7 °C 3,2 km/h (1 Bft)
22.07.2024 01:43 24,1 °C 20,7 °C 65 % 85 % 1009,7 hPa 0,0 l/m² 1,6 km/h (1 Bft) W-SW 251 ° 0 min 0 W/m² 18,1 °C 20,7 °C 3,2 km/h (1 Bft)
22.07.2024 01:45 24,1 °C 20,7 °C 65 % 85 % 1009,8 hPa 0,0 l/m² 0,6 km/h (0 Bft) W-SW 251 ° 0 min 0 W/m² 18,1 °C 20,7 °C 3,2 km/h (1 Bft)
22.07.2024 01:47 24,1 °C 20,7 °C 65 % 85 % 1009,8 hPa 0,0 l/m² 0,3 km/h (0 Bft) W-SW 251 ° 0 min 0 W/m² 18,1 °C 20,7 °C 1,6 km/h (1 Bft)
22.07.2024 01:49 24,1 °C 20,7 °C 65 % 85 % 1009,7 hPa 0,0 l/m² 1,0 km/h (0 Bft) W-SW 251 ° 0 min 0 W/m² 18,1 °C 20,7 °C 3,2 km/h (1 Bft)
22.07.2024 01:51 24,1 °C 20,7 °C 65 % 85 % 1009,8 hPa 0,0 l/m² 0,1 km/h (0 Bft) W-SW 251 ° 0 min 0 W/m² 18,1 °C 20,7 °C 1,6 km/h (1 Bft)
22.07.2024 01:52 24,1 °C 20,7 °C 65 % 85 % 1009,8 hPa 0,0 l/m² 0,3 km/h (0 Bft) W-SW 251 ° 0 min 0 W/m² 18,1 °C 20,7 °C 1,6 km/h (1 Bft)
22.07.2024 01:53 24,1 °C 20,7 °C 65 % 85 % 1009,8 hPa 0,0 l/m² 0,0 km/h (0 Bft) W-SW 251 ° 0 min 0 W/m² 18,1 °C 20,7 °C 0,0 km/h (0 Bft)
22.07.2024 01:55 24,1 °C 20,7 °C 65 % 85 % 1009,8 hPa 0,0 l/m² 0,0 km/h (0 Bft) W-SW 251 ° 0 min 0 W/m² 18,1 °C 20,7 °C 0,0 km/h (0 Bft)
22.07.2024 01:57 24,1 °C 20,7 °C 65 % 85 % 1009,8 hPa 0,0 l/m² 0,1 km/h (0 Bft) W-SW 251 ° 0 min 0 W/m² 18,1 °C 20,7 °C 1,6 km/h (1 Bft)
22.07.2024 01:59 24,1 °C 20,7 °C 65 % 85 % 1009,8 hPa 0,0 l/m² 0,0 km/h (0 Bft) W-SW 251 ° 0 min 0 W/m² 18,1 °C 20,7 °C 0,0 km/h (0 Bft)
22.07.2024 02:01 24,1 °C 20,7 °C 65 % 85 % 1009,8 hPa 0,0 l/m² 0,0 km/h (0 Bft) W-SW 251 ° 0 min 0 W/m² 18,1 °C 20,7 °C 0,0 km/h (0 Bft)
22.07.2024 02:02 24,1 °C 20,7 °C 65 % 85 % 1009,8 hPa 0,0 l/m² 0,3 km/h (0 Bft) W-SW 251 ° 0 min 0 W/m² 18,1 °C 20,7 °C 1,6 km/h (1 Bft)
22.07.2024 02:03 24,1 °C 20,7 °C 65 % 85 % 1009,8 hPa 0,0 l/m² 1,6 km/h (1 Bft) W-SW 251 ° 0 min 0 W/m² 18,1 °C 20,7 °C 3,2 km/h (1 Bft)
22.07.2024 02:05 24,1 °C 20,7 °C 65 % 85 % 1009,8 hPa 0,0 l/m² 1,5 km/h (1 Bft) W-SW 251 ° 0 min 0 W/m² 18,1 °C 20,7 °C 3,2 km/h (1 Bft)
22.07.2024 02:07 24,1 °C 20,7 °C 65 % 85 % 1009,8 hPa 0,0 l/m² 1,9 km/h (1 Bft) W-SW 251 ° 0 min 0 W/m² 18,1 °C 20,7 °C 3,2 km/h (1 Bft)
22.07.2024 02:09 24,1 °C 20,7 °C 65 % 85 % 1009,8 hPa 0,0 l/m² 0,6 km/h (0 Bft) W-SW 251 ° 0 min 0 W/m² 18,1 °C 20,7 °C 3,2 km/h (1 Bft)
22.07.2024 02:11 24,1 °C 20,7 °C 65 % 85 % 1009,8 hPa 0,0 l/m² 0,1 km/h (0 Bft) W-SW 251 ° 0 min 0 W/m² 18,1 °C 20,7 °C 1,6 km/h (1 Bft)
22.07.2024 02:12 24,1 °C 20,7 °C 65 % 85 % 1009,8 hPa 0,0 l/m² 0,5 km/h (0 Bft) W-SW 251 ° 0 min 0 W/m² 18,1 °C 20,7 °C 1,6 km/h (1 Bft)
22.07.2024 02:13 24,1 °C 20,7 °C 65 % 85 % 1009,8 hPa 0,0 l/m² 1,6 km/h (1 Bft) W-SW 251 ° 0 min 0 W/m² 18,1 °C 20,7 °C 3,2 km/h (1 Bft)
22.07.2024 02:15 24,1 °C 20,7 °C 65 % 86 % 1009,8 hPa 0,0 l/m² 1,5 km/h (1 Bft) W-SW 251 ° 0 min 0 W/m² 18,3 °C 20,7 °C 3,2 km/h (1 Bft)
22.07.2024 02:17 24,1 °C 20,7 °C 65 % 86 % 1009,7 hPa 0,0 l/m² 0,5 km/h (0 Bft) W-SW 251 ° 0 min 0 W/m² 18,3 °C 20,7 °C 1,6 km/h (1 Bft)
22.07.2024 02:19 24,1 °C 20,7 °C 65 % 86 % 1009,7 hPa 0,0 l/m² 0,0 km/h (0 Bft) W-SW 251 ° 0 min 0 W/m² 18,3 °C 20,7 °C 1,6 km/h (1 Bft)
22.07.2024 02:21 24,1 °C 20,8 °C 65 % 86 % 1009,7 hPa 0,0 l/m² 0,0 km/h (0 Bft) W-SW 251 ° 0 min 0 W/m² 18,4 °C 20,8 °C 0,0 km/h (0 Bft)
22.07.2024 02:22 24,1 °C 20,7 °C 65 % 86 % 1009,7 hPa 0,0 l/m² 0,0 km/h (0 Bft) W-SW 251 ° 0 min 0 W/m² 18,3 °C 20,7 °C 0,0 km/h (0 Bft)
22.07.2024 02:23 24,1 °C 20,7 °C 65 % 86 % 1009,7 hPa 0,0 l/m² 0,0 km/h (0 Bft) W-SW 251 ° 0 min 0 W/m² 18,3 °C 20,7 °C 0,0 km/h (0 Bft)
22.07.2024 02:25 24,1 °C 20,7 °C 65 % 86 % 1009,8 hPa 0,0 l/m² 0,0 km/h (0 Bft) W-SW 251 ° 0 min 0 W/m² 18,3 °C 20,7 °C 0,0 km/h (0 Bft)
22.07.2024 02:27 24,1 °C 20,7 °C 65 % 86 % 1009,8 hPa 0,0 l/m² 0,0 km/h (0 Bft) W-SW 251 ° 0 min 0 W/m² 18,3 °C 20,7 °C 0,0 km/h (0 Bft)
22.07.2024 02:29 24,1 °C 20,7 °C 65 % 86 % 1009,8 hPa 0,0 l/m² 0,0 km/h (0 Bft) W-SW 251 ° 0 min 0 W/m² 18,3 °C 20,7 °C 0,0 km/h (0 Bft)
22.07.2024 02:31 24,0 °C 20,7 °C 65 % 86 % 1009,7 hPa 0,0 l/m² 0,0 km/h (0 Bft) W-SW 251 ° 0 min 0 W/m² 18,3 °C 20,7 °C 0,0 km/h (0 Bft)
22.07.2024 02:32 24,0 °C 20,7 °C 65 % 86 % 1009,7 hPa 0,0 l/m² 0,6 km/h (0 Bft) W-SW 251 ° 0 min 0 W/m² 18,3 °C 20,7 °C 1,6 km/h (1 Bft)
22.07.2024 02:33 24,1 °C 20,7 °C 65 % 86 % 1009,8 hPa 0,0 l/m² 1,5 km/h (1 Bft) W-SW 251 ° 0 min 0 W/m² 18,3 °C 20,7 °C 1,6 km/h (1 Bft)
22.07.2024 02:35 24,0 °C 20,8 °C 65 % 86 % 1009,8 hPa 0,0 l/m² 1,9 km/h (1 Bft) W-SW 251 ° 0 min 0 W/m² 18,4 °C 20,8 °C 3,2 km/h (1 Bft)
22.07.2024 02:37 24,0 °C 20,8 °C 65 % 87 % 1009,7 hPa 0,0 l/m² 1,2 km/h (1 Bft) W-SW 251 ° 0 min 0 W/m² 18,6 °C 20,8 °C 3,2 km/h (1 Bft)
22.07.2024 02:39 24,0 °C 20,8 °C 65 % 87 % 1009,8 hPa 0,0 l/m² 0,0 km/h (0 Bft) W-SW 251 ° 0 min 0 W/m² 18,6 °C 20,8 °C 0,0 km/h (0 Bft)
22.07.2024 02:41 24,1 °C 20,8 °C 65 % 87 % 1009,8 hPa 0,0 l/m² 0,0 km/h (0 Bft) W-SW 251 ° 0 min 0 W/m² 18,6 °C 20,8 °C 0,0 km/h (0 Bft)
22.07.2024 02:42 24,1 °C 20,8 °C 65 % 87 % 1009,8 hPa 0,0 l/m² 0,0 km/h (0 Bft) W-SW 251 ° 0 min 0 W/m² 18,6 °C 20,8 °C 0,0 km/h (0 Bft)
22.07.2024 02:43 24,0 °C 20,8 °C 65 % 87 % 1009,8 hPa 0,0 l/m² 0,0 km/h (0 Bft) W-SW 251 ° 0 min 0 W/m² 18,6 °C 20,8 °C 0,0 km/h (0 Bft)
22.07.2024 02:45 24,0 °C 20,7 °C 65 % 87 % 1009,7 hPa 0,0 l/m² 0,0 km/h (0 Bft) W-SW 251 ° 0 min 0 W/m² 18,5 °C 20,7 °C 0,0 km/h (0 Bft)
22.07.2024 02:47 24,0 °C 20,7 °C 65 % 87 % 1009,8 hPa 0,0 l/m² 0,0 km/h (0 Bft) W-SW 251 ° 0 min 0 W/m² 18,5 °C 20,7 °C 0,0 km/h (0 Bft)
22.07.2024 02:49 24,0 °C 20,7 °C 65 % 86 % 1009,8 hPa 0,0 l/m² 0,0 km/h (0 Bft) W-SW 251 ° 0 min 0 W/m² 18,3 °C 20,7 °C 0,0 km/h (0 Bft)
22.07.2024 02:51 24,0 °C 20,7 °C 65 % 86 % 1009,8 hPa 0,0 l/m² 0,0 km/h (0 Bft) W-SW 251 ° 0 min 0 W/m² 18,3 °C 20,7 °C 0,0 km/h (0 Bft)
22.07.2024 02:52 24,0 °C 20,7 °C 65 % 86 % 1009,8 hPa 0,0 l/m² 0,0 km/h (0 Bft) W-SW 251 ° 0 min 0 W/m² 18,3 °C 20,7 °C 0,0 km/h (0 Bft)
22.07.2024 02:53 24,0 °C 20,7 °C 65 % 86 % 1009,8 hPa 0,0 l/m² 0,0 km/h (0 Bft) W-SW 251 ° 0 min 0 W/m² 18,3 °C 20,7 °C 0,0 km/h (0 Bft)
22.07.2024 02:55 24,0 °C 20,7 °C 65 % 86 % 1009,9 hPa 0,0 l/m² 0,0 km/h (0 Bft) W-SW 251 ° 0 min 0 W/m² 18,3 °C 20,7 °C 0,0 km/h (0 Bft)
22.07.2024 02:57 24,0 °C 20,7 °C 65 % 86 % 1009,8 hPa 0,0 l/m² 0,0 km/h (0 Bft) W-SW 251 ° 0 min 0 W/m² 18,3 °C 20,7 °C 0,0 km/h (0 Bft)
22.07.2024 02:59 24,0 °C 20,7 °C 65 % 86 % 1009,8 hPa 0,0 l/m² 0,0 km/h (0 Bft) W-SW 251 ° 0 min 0 W/m² 18,3 °C 20,7 °C 0,0 km/h (0 Bft)
22.07.2024 03:00 24,0 °C 20,7 °C 65 % 86 % 1009,8 hPa 0,0 l/m² 0,0 km/h (0 Bft) N 0 ° 0 min 0 W/m² 18,3 °C 20,7 °C 0,0 km/h (0 Bft)
22.07.2024 03:01 24,0 °C 20,7 °C 65 % 86 % 1009,9 hPa 0,0 l/m² 0,0 km/h (0 Bft) N 0 ° 0 min 0 W/m² 18,3 °C 20,7 °C 0,0 km/h (0 Bft)
22.07.2024 03:08 24,0 °C 20,6 °C 65 % 86 % 1010,0 hPa 0,0 l/m² 0,0 km/h (0 Bft) W-SW 251 ° 0 min 0 W/m² 18,2 °C 20,6 °C 0,0 km/h (0 Bft)
22.07.2024 03:09 24,0 °C 20,6 °C 65 % 86 % 1009,9 hPa 0,0 l/m² 0,0 km/h (0 Bft) W-SW 251 ° 0 min 0 W/m² 18,2 °C 20,6 °C 0,0 km/h (0 Bft)
22.07.2024 03:11 24,0 °C 20,6 °C 65 % 86 % 1009,9 hPa 0,0 l/m² 0,2 km/h (0 Bft) W-SW 251 ° 0 min 0 W/m² 18,2 °C 20,6 °C 1,6 km/h (1 Bft)
22.07.2024 03:12 24,0 °C 20,6 °C 65 % 86 % 1010,0 hPa 0,0 l/m² 0,5 km/h (0 Bft) W-SW 251 ° 0 min 0 W/m² 18,2 °C 20,6 °C 1,6 km/h (1 Bft)
22.07.2024 03:14 24,0 °C 20,6 °C 65 % 87 % 1009,9 hPa 0,0 l/m² 2,2 km/h (1 Bft) W-SW 251 ° 0 min 0 W/m² 18,4 °C 20,6 °C 3,2 km/h (1 Bft)
22.07.2024 03:16 24,0 °C 20,6 °C 65 % 87 % 1010,0 hPa 0,0 l/m² 2,3 km/h (1 Bft) W-SW 251 ° 0 min 0 W/m² 18,4 °C 20,6 °C 3,2 km/h (1 Bft)
22.07.2024 03:18 24,0 °C 20,6 °C 65 % 87 % 1010,0 hPa 0,0 l/m² 1,5 km/h (1 Bft) W-SW 251 ° 0 min 0 W/m² 18,4 °C 20,6 °C 3,2 km/h (1 Bft)
22.07.2024 03:20 24,0 °C 20,6 °C 65 % 87 % 1009,9 hPa 0,0 l/m² 0,2 km/h (0 Bft) W-SW 251 ° 0 min 0 W/m² 18,4 °C 20,6 °C 1,6 km/h (1 Bft)
22.07.2024 03:21 24,0 °C 20,6 °C 65 % 87 % 1010,0 hPa 0,0 l/m² 0,2 km/h (0 Bft) W-SW 251 ° 0 min 0 W/m² 18,4 °C 20,6 °C 1,6 km/h (1 Bft)
22.07.2024 03:22 23,9 °C 20,6 °C 65 % 87 % 1009,9 hPa 0,0 l/m² 0,7 km/h (0 Bft) W-SW 251 ° 0 min 0 W/m² 18,4 °C 20,6 °C 1,6 km/h (1 Bft)
22.07.2024 03:23 24,0 °C 20,6 °C 65 % 87 % 1009,9 hPa 0,0 l/m² 1,2 km/h (1 Bft) W-SW 251 ° 0 min 0 W/m² 18,4 °C 20,6 °C 3,2 km/h (1 Bft)
22.07.2024 03:26 24,0 °C 20,6 °C 65 % 87 % 1010,0 hPa 0,0 l/m² 0,7 km/h (0 Bft) W-SW 251 ° 0 min 0 W/m² 18,4 °C 20,6 °C 3,2 km/h (1 Bft)
22.07.2024 03:28 24,0 °C 20,6 °C 65 % 87 % 1010,0 hPa 0,0 l/m² 0,4 km/h (0 Bft) W-SW 251 ° 0 min 0 W/m² 18,4 °C 20,6 °C 1,6 km/h (1 Bft)
22.07.2024 03:30 24,0 °C 20,6 °C 65 % 87 % 1010,0 hPa 0,0 l/m² 2,0 km/h (1 Bft) W-SW 251 ° 0 min 0 W/m² 18,4 °C 20,6 °C 4,8 km/h (1 Bft)
22.07.2024 03:31 23,9 °C 20,6 °C 65 % 87 % 1010,0 hPa 0,0 l/m² 2,1 km/h (1 Bft) W-SW 251 ° 0 min 0 W/m² 18,4 °C 20,6 °C 6,4 km/h (2 Bft)
22.07.2024 03:33 24,0 °C 20,6 °C 65 % 87 % 1010,0 hPa 0,0 l/m² 2,2 km/h (1 Bft) W-SW 251 ° 0 min 0 W/m² 18,4 °C 20,6 °C 4,8 km/h (1 Bft)
22.07.2024 03:34 24,0 °C 20,6 °C 65 % 87 % 1010,0 hPa 0,0 l/m² 2,8 km/h (1 Bft) W-SW 251 ° 0 min 0 W/m² 18,4 °C 20,6 °C 4,8 km/h (1 Bft)
22.07.2024 03:36 24,0 °C 20,6 °C 65 % 87 % 1010,1 hPa 0,0 l/m² 0,8 km/h (0 Bft) W-SW 251 ° 0 min 0 W/m² 18,4 °C 20,6 °C 1,6 km/h (1 Bft)
22.07.2024 03:38 23,9 °C 20,6 °C 65 % 87 % 1010,1 hPa 0,0 l/m² 0,7 km/h (0 Bft) W-SW 251 ° 0 min 0 W/m² 18,4 °C 20,6 °C 3,2 km/h (1 Bft)
22.07.2024 03:40 23,9 °C 20,6 °C 65 % 87 % 1010,1 hPa 0,0 l/m² 0,8 km/h (0 Bft) W-SW 251 ° 0 min 0 W/m² 18,4 °C 20,6 °C 3,2 km/h (1 Bft)
22.07.2024 03:41 24,0 °C 20,6 °C 65 % 87 % 1010,1 hPa 0,0 l/m² 1,3 km/h (1 Bft) W-SW 251 ° 0 min 0 W/m² 18,4 °C 20,6 °C 3,2 km/h (1 Bft)
22.07.2024 03:42 24,0 °C 20,6 °C 65 % 87 % 1010,2 hPa 0,0 l/m² 0,3 km/h (0 Bft) W-SW 251 ° 0 min 0 W/m² 18,4 °C 20,6 °C 1,6 km/h (1 Bft)
22.07.2024 03:43 24,0 °C 20,6 °C 65 % 87 % 1010,2 hPa 0,0 l/m² 2,3 km/h (1 Bft) W-SW 251 ° 0 min 0 W/m² 18,4 °C 20,6 °C 4,8 km/h (1 Bft)
22.07.2024 03:45 24,0 °C 20,6 °C 65 % 87 % 1010,2 hPa 0,0 l/m² 1,5 km/h (1 Bft) W-SW 251 ° 0 min 0 W/m² 18,4 °C 20,6 °C 4,8 km/h (1 Bft)
22.07.2024 03:47 24,0 °C 20,6 °C 65 % 87 % 1010,3 hPa 0,0 l/m² 1,9 km/h (1 Bft) W-SW 251 ° 0 min 0 W/m² 18,4 °C 20,6 °C 4,8 km/h (1 Bft)
22.07.2024 03:48 24,0 °C 20,6 °C 65 % 87 % 1010,3 hPa 0,0 l/m² 3,7 km/h (1 Bft) W-SW 251 ° 0 min 0 W/m² 18,4 °C 20,6 °C 4,8 km/h (1 Bft)
22.07.2024 03:50 24,0 °C 20,6 °C 65 % 87 % 1010,2 hPa 0,0 l/m² 1,6 km/h (1 Bft) W-SW 251 ° 0 min 0 W/m² 18,4 °C 20,6 °C 3,2 km/h (1 Bft)
22.07.2024 03:51 24,0 °C 20,7 °C 65 % 87 % 1010,3 hPa 0,0 l/m² 0,8 km/h (0 Bft) W-SW 251 ° 0 min 0 W/m² 18,5 °C 20,7 °C 1,6 km/h (1 Bft)
22.07.2024 03:52 23,9 °C 20,7 °C 65 % 87 % 1010,3 hPa 0,0 l/m² 1,2 km/h (1 Bft) W-SW 251 ° 0 min 0 W/m² 18,5 °C 20,7 °C 3,2 km/h (1 Bft)
22.07.2024 03:53 24,0 °C 20,7 °C 65 % 87 % 1010,3 hPa 0,0 l/m² 1,3 km/h (1 Bft) W-SW 251 ° 0 min 0 W/m² 18,5 °C 20,7 °C 3,2 km/h (1 Bft)
22.07.2024 03:55 24,0 °C 20,7 °C 65 % 87 % 1010,2 hPa 0,0 l/m² 1,3 km/h (1 Bft) W-SW 251 ° 0 min 0 W/m² 18,5 °C 20,7 °C 3,2 km/h (1 Bft)
22.07.2024 03:57 24,0 °C 20,7 °C 65 % 87 % 1010,3 hPa 0,0 l/m² 3,0 km/h (1 Bft) W-SW 251 ° 0 min 0 W/m² 18,5 °C 20,7 °C 4,8 km/h (1 Bft)
22.07.2024 03:59 24,0 °C 20,7 °C 65 % 87 % 1010,3 hPa 0,0 l/m² 4,0 km/h (1 Bft) W-SW 251 ° 0 min 0 W/m² 18,5 °C 20,7 °C 6,4 km/h (2 Bft)
22.07.2024 04:00 24,0 °C 20,7 °C 65 % 87 % 1010,3 hPa 0,0 l/m² 3,9 km/h (1 Bft) W-SW 251 ° 0 min 0 W/m² 18,5 °C 20,7 °C 6,4 km/h (2 Bft)
22.07.2024 04:02 24,0 °C 20,7 °C 65 % 87 % 1010,3 hPa 0,0 l/m² 3,5 km/h (1 Bft) W-SW 247 ° 0 min 0 W/m² 18,5 °C 20,7 °C 6,4 km/h (2 Bft)
22.07.2024 04:03 24,0 °C 20,7 °C 65 % 87 % 1010,3 hPa 0,0 l/m² 2,9 km/h (1 Bft) W-SW 247 ° 0 min 0 W/m² 18,5 °C 20,7 °C 4,8 km/h (1 Bft)
22.07.2024 04:05 24,0 °C 20,7 °C 65 % 87 % 1010,3 hPa 0,0 l/m² 2,9 km/h (1 Bft) W-SW 246 ° 0 min 0 W/m² 18,5 °C 20,7 °C 4,8 km/h (1 Bft)
22.07.2024 04:07 24,0 °C 20,7 °C 66 % 87 % 1010,4 hPa 0,0 l/m² 3,2 km/h (1 Bft) W-SW 240 ° 0 min 0 W/m² 18,5 °C 20,7 °C 4,8 km/h (1 Bft)
22.07.2024 04:09 23,9 °C 20,7 °C 66 % 87 % 1010,4 hPa 0,0 l/m² 3,7 km/h (1 Bft) W-SW 240 ° 0 min 0 W/m² 18,5 °C 20,7 °C 4,8 km/h (1 Bft)
22.07.2024 04:11 23,9 °C 20,7 °C 66 % 87 % 1010,4 hPa 0,0 l/m² 4,3 km/h (1 Bft) SW 227 ° 0 min 0 W/m² 18,5 °C 20,7 °C 8,0 km/h (2 Bft)
22.07.2024 04:12 23,9 °C 20,7 °C 66 % 87 % 1010,4 hPa 0,0 l/m² 4,9 km/h (1 Bft) SW 225 ° 0 min 0 W/m² 18,5 °C 20,7 °C 6,4 km/h (2 Bft)
22.07.2024 04:13 23,9 °C 20,7 °C 66 % 87 % 1010,4 hPa 0,0 l/m² 2,5 km/h (1 Bft) SW 225 ° 0 min 0 W/m² 18,5 °C 20,7 °C 3,2 km/h (1 Bft)
22.07.2024 04:14 23,9 °C 20,7 °C 66 % 87 % 1010,4 hPa 0,0 l/m² 3,6 km/h (1 Bft) SW 225 ° 0 min 0 W/m² 18,5 °C 20,7 °C 6,4 km/h (2 Bft)
22.07.2024 04:16 23,9 °C 20,7 °C 66 % 88 % 1010,4 hPa 0,0 l/m² 5,7 km/h (2 Bft) S-SW 206 ° 0 min 0 W/m² 18,6 °C 20,7 °C 8,0 km/h (2 Bft)
22.07.2024 04:18 23,9 °C 20,7 °C 66 % 88 % 1010,4 hPa 0,0 l/m² 3,0 km/h (1 Bft) S-SW 209 ° 0 min 0 W/m² 18,6 °C 20,7 °C 6,4 km/h (2 Bft)
22.07.2024 04:20 23,9 °C 20,7 °C 66 % 88 % 1010,4 hPa 0,0 l/m² 4,9 km/h (1 Bft) SW 218 ° 0 min 0 W/m² 18,6 °C 20,7 °C 8,0 km/h (2 Bft)
22.07.2024 04:21 23,9 °C 20,7 °C 66 % 88 % 1010,5 hPa 0,0 l/m² 5,7 km/h (2 Bft) W-SW 241 ° 0 min 0 W/m² 18,6 °C 20,7 °C 8,0 km/h (2 Bft)
22.07.2024 04:23 23,9 °C 20,7 °C 66 % 88 % 1010,5 hPa 0,0 l/m² 4,7 km/h (1 Bft) SW 236 ° 0 min 0 W/m² 18,6 °C 20,7 °C 8,0 km/h (2 Bft)
22.07.2024 04:24 23,9 °C 20,7 °C 66 % 88 % 1010,5 hPa 0,0 l/m² 4,3 km/h (1 Bft) SW 236 ° 0 min 0 W/m² 18,6 °C 20,7 °C 6,4 km/h (2 Bft)
22.07.2024 04:26 23,9 °C 20,7 °C 66 % 88 % 1010,4 hPa 0,0 l/m² 6,3 km/h (2 Bft) SW 229 ° 0 min 0 W/m² 18,6 °C 20,7 °C 9,7 km/h (2 Bft)
22.07.2024 04:28 23,9 °C 20,7 °C 66 % 88 % 1010,5 hPa 0,0 l/m² 7,9 km/h (2 Bft) SW 221 ° 0 min 0 W/m² 18,6 °C 20,1 °C 12,9 km/h (3 Bft)
22.07.2024 04:30 23,9 °C 20,7 °C 66 % 88 % 1010,5 hPa 0,0 l/m² 6,4 km/h (2 Bft) SW 222 ° 0 min 0 W/m² 18,6 °C 20,7 °C 9,7 km/h (2 Bft)
22.07.2024 04:31 23,9 °C 20,7 °C 66 % 88 % 1010,5 hPa 0,0 l/m² 6,1 km/h (2 Bft) SW 221 ° 0 min 0 W/m² 18,6 °C 20,7 °C 8,0 km/h (2 Bft)
22.07.2024 04:32 23,9 °C 20,7 °C 66 % 88 % 1010,5 hPa 0,0 l/m² 5,8 km/h (2 Bft) SW 219 ° 0 min 0 W/m² 18,6 °C 20,7 °C 8,0 km/h (2 Bft)
22.07.2024 04:34 23,9 °C 20,7 °C 66 % 88 % 1010,4 hPa 0,0 l/m² 5,2 km/h (1 Bft) SW 218 ° 0 min 0 W/m² 18,6 °C 20,7 °C 6,4 km/h (2 Bft)
22.07.2024 04:36 23,9 °C 20,8 °C 66 % 88 % 1010,5 hPa 0,0 l/m² 3,3 km/h (1 Bft) SW 218 ° 0 min 0 W/m² 18,7 °C 20,8 °C 4,8 km/h (1 Bft)
22.07.2024 04:38 23,9 °C 20,7 °C 66 % 88 % 1010,4 hPa 0,0 l/m² 4,3 km/h (1 Bft) SW 217 ° 0 min 0 W/m² 18,6 °C 20,7 °C 6,4 km/h (2 Bft)
22.07.2024 04:40 23,9 °C 20,7 °C 66 % 88 % 1010,5 hPa 0,0 l/m² 3,2 km/h (1 Bft) SW 217 ° 0 min 0 W/m² 18,6 °C 20,7 °C 6,4 km/h (2 Bft)
22.07.2024 04:41 23,9 °C 20,7 °C 66 % 88 % 1010,5 hPa 0,0 l/m² 1,0 km/h (0 Bft) SW 217 ° 0 min 0 W/m² 18,6 °C 20,7 °C 3,2 km/h (1 Bft)
22.07.2024 04:43 23,9 °C 20,7 °C 66 % 88 % 1010,4 hPa 0,0 l/m² 1,9 km/h (1 Bft) SW 219 ° 0 min 0 W/m² 18,6 °C 20,7 °C 6,4 km/h (2 Bft)
22.07.2024 04:44 23,9 °C 20,7 °C 66 % 88 % 1010,5 hPa 0,0 l/m² 5,0 km/h (1 Bft) SW 220 ° 0 min 0 W/m² 18,6 °C 20,7 °C 8,0 km/h (2 Bft)
22.07.2024 04:46 23,9 °C 20,7 °C 66 % 88 % 1010,5 hPa 0,0 l/m² 5,1 km/h (1 Bft) SW 223 ° 0 min 0 W/m² 18,6 °C 20,7 °C 8,0 km/h (2 Bft)
22.07.2024 04:48 23,9 °C 20,7 °C 66 % 88 % 1010,5 hPa 0,0 l/m² 3,4 km/h (1 Bft) SW 223 ° 0 min 0 W/m² 18,6 °C 20,7 °C 4,8 km/h (1 Bft)
22.07.2024 04:50 23,9 °C 20,7 °C 66 % 88 % 1010,5 hPa 0,0 l/m² 2,3 km/h (1 Bft) SW 223 ° 0 min 0 W/m² 18,6 °C 20,7 °C 4,8 km/h (1 Bft)
22.07.2024 04:51 23,9 °C 20,7 °C 66 % 88 % 1010,5 hPa 0,0 l/m² 4,0 km/h (1 Bft) SW 223 ° 0 min 0 W/m² 18,6 °C 20,7 °C 4,8 km/h (1 Bft)
22.07.2024 04:53 23,9 °C 20,7 °C 66 % 88 % 1010,6 hPa 0,0 l/m² 4,0 km/h (1 Bft) SW 225 ° 0 min 0 W/m² 18,6 °C 20,7 °C 6,4 km/h (2 Bft)
22.07.2024 04:54 23,9 °C 20,7 °C 66 % 88 % 1010,5 hPa 0,0 l/m² 3,3 km/h (1 Bft) SW 225 ° 0 min 0 W/m² 18,6 °C 20,7 °C 4,8 km/h (1 Bft)
22.07.2024 04:56 23,9 °C 20,7 °C 66 % 88 % 1010,5 hPa 0,0 l/m² 3,3 km/h (1 Bft) SW 225 ° 0 min 0 W/m² 18,6 °C 20,7 °C 6,4 km/h (2 Bft)
22.07.2024 04:58 23,9 °C 20,7 °C 66 % 88 % 1010,6 hPa 0,0 l/m² 4,4 km/h (1 Bft) SW 225 ° 0 min 0 W/m² 18,6 °C 20,7 °C 6,4 km/h (2 Bft)
22.07.2024 05:00 23,9 °C 20,7 °C 66 % 88 % 1010,6 hPa 0,0 l/m² 5,4 km/h (2 Bft) SW 226 ° 0 min 0 W/m² 18,6 °C 20,7 °C 9,7 km/h (2 Bft)
22.07.2024 05:01 23,9 °C 20,7 °C 66 % 88 % 1010,6 hPa 0,0 l/m² 3,5 km/h (1 Bft) SW 226 ° 0 min 0 W/m² 18,6 °C 20,7 °C 6,4 km/h (2 Bft)
22.07.2024 05:03 23,9 °C 20,7 °C 66 % 88 % 1010,6 hPa 0,0 l/m² 5,4 km/h (2 Bft) SW 225 ° 0 min 0 W/m² 18,6 °C 20,7 °C 8,0 km/h (2 Bft)
22.07.2024 05:04 23,9 °C 20,7 °C 66 % 88 % 1010,6 hPa 0,0 l/m² 5,0 km/h (1 Bft) SW 226 ° 0 min 0 W/m² 18,6 °C 20,7 °C 8,0 km/h (2 Bft)
22.07.2024 05:06 23,9 °C 20,7 °C 66 % 88 % 1010,6 hPa 0,0 l/m² 7,7 km/h (2 Bft) SW 223 ° 0 min 0 W/m² 18,6 °C 20,2 °C 9,7 km/h (2 Bft)
22.07.2024 05:08 23,9 °C 20,7 °C 66 % 88 % 1010,6 hPa 0,0 l/m² 7,9 km/h (2 Bft) SW 220 ° 0 min 0 W/m² 18,6 °C 20,1 °C 11,3 km/h (2 Bft)
22.07.2024 05:10 23,9 °C 20,7 °C 66 % 88 % 1010,7 hPa 0,0 l/m² 10,3 km/h (2 Bft) SW 226 ° 0 min 0 W/m² 18,6 °C 19,3 °C 12,9 km/h (3 Bft)
22.07.2024 05:12 23,9 °C 20,7 °C 66 % 88 % 1010,7 hPa 0,0 l/m² 9,5 km/h (2 Bft) S-SW 213 ° 0 min 0 W/m² 18,6 °C 19,6 °C 12,9 km/h (3 Bft)
22.07.2024 05:13 23,9 °C 20,7 °C 66 % 88 % 1010,7 hPa 0,0 l/m² 9,3 km/h (2 Bft) SW 225 ° 0 min 0 W/m² 18,6 °C 19,6 °C 12,9 km/h (3 Bft)
22.07.2024 05:15 23,9 °C 20,7 °C 67 % 88 % 1010,7 hPa 0,0 l/m² 9,8 km/h (2 Bft) SW 234 ° 0 min 0 W/m² 18,6 °C 19,5 °C 14,5 km/h (3 Bft)
22.07.2024 05:17 23,9 °C 20,7 °C 67 % 88 % 1010,7 hPa 0,0 l/m² 8,7 km/h (2 Bft) SW 226 ° 0 min 0 W/m² 18,6 °C 19,8 °C 11,3 km/h (2 Bft)
22.07.2024 05:19 23,9 °C 20,7 °C 67 % 88 % 1010,7 hPa 0,0 l/m² 8,7 km/h (2 Bft) SW 218 ° 0 min 0 W/m² 18,6 °C 19,8 °C 11,3 km/h (2 Bft)
22.07.2024 05:20 23,9 °C 20,6 °C 67 % 88 % 1010,7 hPa 0,0 l/m² 10,5 km/h (2 Bft) S-SW 201 ° 0 min 0 W/m² 18,5 °C 19,1 °C 12,9 km/h (3 Bft)
22.07.2024 05:22 23,9 °C 20,7 °C 67 % 88 % 1010,8 hPa 0,0 l/m² 10,0 km/h (2 Bft) SW 222 ° 0 min 0 W/m² 18,6 °C 19,4 °C 12,9 km/h (3 Bft)
22.07.2024 05:23 23,9 °C 20,7 °C 67 % 88 % 1010,7 hPa 0,0 l/m² 8,9 km/h (2 Bft) SW 220 ° 0 min 0 W/m² 18,6 °C 19,8 °C 11,3 km/h (2 Bft)
22.07.2024 05:25 23,9 °C 20,6 °C 67 % 88 % 1010,8 hPa 0,0 l/m² 7,6 km/h (2 Bft) SW 218 ° 0 min 0 W/m² 18,5 °C 20,1 °C 11,3 km/h (2 Bft)
22.07.2024 05:27 23,9 °C 20,6 °C 67 % 88 % 1010,8 hPa 0,0 l/m² 10,1 km/h (2 Bft) S-SW 205 ° 0 min 0 W/m² 18,5 °C 19,3 °C 12,9 km/h (3 Bft)
22.07.2024 05:29 23,9 °C 20,6 °C 67 % 88 % 1010,7 hPa 0,0 l/m² 10,8 km/h (2 Bft) SW 217 ° 0 min 0 W/m² 18,5 °C 19,1 °C 14,5 km/h (3 Bft)
22.07.2024 05:31 23,9 °C 20,6 °C 67 % 88 % 1010,8 hPa 0,0 l/m² 9,0 km/h (2 Bft) S-SW 210 ° 0 min 0 W/m² 18,5 °C 19,6 °C 12,9 km/h (3 Bft)
22.07.2024 05:32 23,9 °C 20,6 °C 67 % 88 % 1010,7 hPa 0,0 l/m² 8,8 km/h (2 Bft) SW 219 ° 0 min 5 W/m² 18,5 °C 19,7 °C 12,9 km/h (3 Bft)
22.07.2024 05:33 23,9 °C 20,6 °C 67 % 88 % 1010,7 hPa 0,0 l/m² 11,4 km/h (2 Bft) SW 225 ° 0 min 5 W/m² 18,5 °C 18,9 °C 14,5 km/h (3 Bft)
22.07.2024 05:34 23,8 °C 20,6 °C 67 % 88 % 1010,8 hPa 0,0 l/m² 11,2 km/h (2 Bft) SW 223 ° 0 min 5 W/m² 18,5 °C 18,9 °C 14,5 km/h (3 Bft)
22.07.2024 05:36 23,9 °C 20,6 °C 67 % 88 % 1010,8 hPa 0,0 l/m² 11,0 km/h (2 Bft) SW 226 ° 0 min 7 W/m² 18,5 °C 19,0 °C 14,5 km/h (3 Bft)
22.07.2024 05:38 23,8 °C 20,6 °C 67 % 88 % 1010,8 hPa 0,0 l/m² 8,3 km/h (2 Bft) SW 219 ° 0 min 9 W/m² 18,5 °C 19,9 °C 11,3 km/h (2 Bft)
22.07.2024 05:40 23,8 °C 20,6 °C 67 % 88 % 1010,8 hPa 0,0 l/m² 11,9 km/h (2 Bft) SW 222 ° 0 min 11 W/m² 18,5 °C 18,7 °C 16,1 km/h (3 Bft)
22.07.2024 05:41 23,8 °C 20,6 °C 67 % 88 % 1010,8 hPa 0,0 l/m² 15,5 km/h (3 Bft) SW 234 ° 0 min 11 W/m² 18,5 °C 17,9 °C 19,3 km/h (3 Bft)
22.07.2024 05:43 23,8 °C 20,6 °C 67 % 88 % 1010,9 hPa 0,0 l/m² 14,1 km/h (3 Bft) SW 219 ° 0 min 11 W/m² 18,5 °C 18,2 °C 19,3 km/h (3 Bft)
22.07.2024 05:44 23,8 °C 20,6 °C 67 % 88 % 1010,9 hPa 0,0 l/m² 16,5 km/h (3 Bft) SW 224 ° 0 min 12 W/m² 18,5 °C 17,7 °C 22,5 km/h (4 Bft)
22.07.2024 05:46 23,8 °C 20,6 °C 67 % 88 % 1010,9 hPa 0,0 l/m² 16,6 km/h (3 Bft) SW 223 ° 0 min 12 W/m² 18,5 °C 17,6 °C 22,5 km/h (4 Bft)
22.07.2024 05:48 23,8 °C 20,6 °C 67 % 88 % 1010,9 hPa 0,0 l/m² 15,6 km/h (3 Bft) SW 221 ° 0 min 12 W/m² 18,5 °C 17,8 °C 22,5 km/h (4 Bft)
22.07.2024 05:50 23,8 °C 20,6 °C 67 % 88 % 1010,9 hPa 0,0 l/m² 12,8 km/h (3 Bft) SW 221 ° 0 min 14 W/m² 18,5 °C 18,5 °C 16,1 km/h (3 Bft)
22.07.2024 05:51 23,7 °C 20,6 °C 67 % 88 % 1010,9 hPa 0,0 l/m² 14,5 km/h (3 Bft) SW 228 ° 0 min 14 W/m² 18,5 °C 18,1 °C 17,7 km/h (3 Bft)
22.07.2024 05:53 23,7 °C 20,6 °C 67 % 87 % 1011,0 hPa 0,0 l/m² 13,9 km/h (3 Bft) SW 217 ° 0 min 14 W/m² 18,4 °C 18,2 °C 17,7 km/h (3 Bft)
22.07.2024 05:54 23,7 °C 20,6 °C 67 % 87 % 1011,0 hPa 0,0 l/m² 12,0 km/h (2 Bft) SW 225 ° 0 min 14 W/m² 18,4 °C 18,7 °C 14,5 km/h (3 Bft)
22.07.2024 05:56 23,7 °C 20,6 °C 67 % 87 % 1010,9 hPa 0,0 l/m² 12,1 km/h (2 Bft) SW 225 ° 0 min 14 W/m² 18,4 °C 18,7 °C 14,5 km/h (3 Bft)
22.07.2024 05:58 23,7 °C 20,6 °C 67 % 87 % 1011,0 hPa 0,0 l/m² 11,7 km/h (2 Bft) S-SW 211 ° 0 min 14 W/m² 18,4 °C 18,8 °C 16,1 km/h (3 Bft)
22.07.2024 06:00 23,7 °C 20,5 °C 67 % 87 % 1011,0 hPa 0,0 l/m² 10,4 km/h (2 Bft) S-SW 211 ° 0 min 14 W/m² 18,3 °C 19,1 °C 14,5 km/h (3 Bft)
22.07.2024 06:01 23,7 °C 20,5 °C 67 % 87 % 1011,0 hPa 0,0 l/m² 11,8 km/h (2 Bft) S-SW 209 ° 0 min 14 W/m² 18,3 °C 18,7 °C 14,5 km/h (3 Bft)
22.07.2024 06:03 23,7 °C 20,5 °C 67 % 87 % 1011,0 hPa 0,0 l/m² 11,4 km/h (2 Bft) SW 228 ° 0 min 16 W/m² 18,3 °C 18,8 °C 14,5 km/h (3 Bft)
22.07.2024 06:04 23,7 °C 20,5 °C 67 % 87 % 1011,0 hPa 0,0 l/m² 10,3 km/h (2 Bft) SW 229 ° 0 min 16 W/m² 18,3 °C 19,1 °C 14,5 km/h (3 Bft)
22.07.2024 06:06 23,7 °C 20,5 °C 66 % 87 % 1010,9 hPa 0,0 l/m² 10,2 km/h (2 Bft) SW 222 ° 0 min 16 W/m² 18,3 °C 19,1 °C 12,9 km/h (3 Bft)
22.07.2024 06:08 23,7 °C 20,4 °C 66 % 87 % 1010,9 hPa 0,0 l/m² 8,4 km/h (2 Bft) W-SW 238 ° 0 min 18 W/m² 18,2 °C 19,6 °C 12,9 km/h (3 Bft)
22.07.2024 06:10 23,7 °C 20,5 °C 66 % 87 % 1010,9 hPa 0,0 l/m² 8,0 km/h (2 Bft) SW 225 ° 0 min 19 W/m² 18,3 °C 19,9 °C 11,3 km/h (2 Bft)
22.07.2024 06:11 23,7 °C 20,5 °C 66 % 87 % 1010,9 hPa 0,0 l/m² 9,5 km/h (2 Bft) SW 221 ° 0 min 21 W/m² 18,3 °C 19,4 °C 12,9 km/h (3 Bft)
22.07.2024 06:13 23,7 °C 20,4 °C 66 % 87 % 1011,0 hPa 0,0 l/m² 11,9 km/h (2 Bft) SW 221 ° 0 min 19 W/m² 18,2 °C 18,5 °C 16,1 km/h (3 Bft)
22.07.2024 06:14 23,7 °C 20,5 °C 66 % 87 % 1011,0 hPa 0,0 l/m² 10,8 km/h (2 Bft) SW 219 ° 0 min 21 W/m² 18,3 °C 18,9 °C 12,9 km/h (3 Bft)
22.07.2024 06:16 23,7 °C 20,4 °C 66 % 87 % 1011,0 hPa 0,0 l/m² 10,4 km/h (2 Bft) SW 224 ° 0 min 25 W/m² 18,2 °C 19,0 °C 14,5 km/h (3 Bft)
22.07.2024 06:18 23,7 °C 20,4 °C 66 % 87 % 1011,0 hPa 0,0 l/m² 10,1 km/h (2 Bft) W-SW 241 ° 0 min 23 W/m² 18,2 °C 19,1 °C 16,1 km/h (3 Bft)
22.07.2024 06:20 23,7 °C 20,4 °C 66 % 87 % 1011,0 hPa 0,0 l/m² 11,5 km/h (2 Bft) SW 222 ° 0 min 28 W/m² 18,2 °C 18,6 °C 16,1 km/h (3 Bft)
22.07.2024 06:21 23,7 °C 20,4 °C 66 % 87 % 1011,0 hPa 0,0 l/m² 11,4 km/h (2 Bft) SW 228 ° 0 min 35 W/m² 18,2 °C 18,7 °C 16,1 km/h (3 Bft)
22.07.2024 06:23 23,7 °C 20,4 °C 66 % 87 % 1011,1 hPa 0,0 l/m² 10,1 km/h (2 Bft) SW 217 ° 0 min 42 W/m² 18,2 °C 19,1 °C 14,5 km/h (3 Bft)
22.07.2024 06:24 23,7 °C 20,4 °C 66 % 87 % 1011,1 hPa 0,0 l/m² 9,8 km/h (2 Bft) SW 221 ° 0 min 46 W/m² 18,2 °C 19,1 °C 12,9 km/h (3 Bft)
22.07.2024 06:26 23,7 °C 20,4 °C 66 % 87 % 1011,1 hPa 0,0 l/m² 9,4 km/h (2 Bft) SW 218 ° 0 min 49 W/m² 18,2 °C 19,3 °C 12,9 km/h (3 Bft)
22.07.2024 06:28 23,7 °C 20,4 °C 66 % 87 % 1011,1 hPa 0,0 l/m² 8,1 km/h (2 Bft) S-SW 199 ° 0 min 51 W/m² 18,2 °C 19,7 °C 11,3 km/h (2 Bft)
22.07.2024 06:30 23,7 °C 20,4 °C 66 % 87 % 1011,2 hPa 0,0 l/m² 8,8 km/h (2 Bft) S-SW 212 ° 0 min 51 W/m² 18,2 °C 19,5 °C 11,3 km/h (2 Bft)
22.07.2024 06:31 23,7 °C 20,4 °C 66 % 87 % 1011,2 hPa 0,0 l/m² 7,8 km/h (2 Bft) S-SW 194 ° 0 min 32 W/m² 18,2 °C 19,8 °C 9,7 km/h (2 Bft)
22.07.2024 06:33 23,7 °C 20,4 °C 66 % 87 % 1011,2 hPa 0,0 l/m² 8,0 km/h (2 Bft) S-SW 196 ° 0 min 49 W/m² 18,2 °C 19,8 °C 11,3 km/h (2 Bft)
22.07.2024 06:34 23,8 °C 20,4 °C 66 % 87 % 1011,3 hPa 0,0 l/m² 9,8 km/h (2 Bft) S-SW 198 ° 0 min 33 W/m² 18,2 °C 19,1 °C 12,9 km/h (3 Bft)
22.07.2024 06:36 23,8 °C 20,4 °C 66 % 87 % 1011,3 hPa 0,0 l/m² 7,9 km/h (2 Bft) S-SW 205 ° 0 min 26 W/m² 18,2 °C 19,8 °C 11,3 km/h (2 Bft)
22.07.2024 06:38 23,8 °C 20,4 °C 66 % 86 % 1011,3 hPa 0,0 l/m² 7,4 km/h (2 Bft) SW 221 ° 0 min 30 W/m² 18,0 °C 20,0 °C 9,7 km/h (2 Bft)
22.07.2024 06:40 23,8 °C 20,4 °C 66 % 86 % 1011,5 hPa 0,0 l/m² 6,9 km/h (2 Bft) SW 231 ° 2 min 81 W/m² 18,0 °C 20,2 °C 9,7 km/h (2 Bft)
22.07.2024 06:41 23,8 °C 20,4 °C 66 % 86 % 1011,5 hPa 0,0 l/m² 6,6 km/h (2 Bft) W-SW 249 ° 1 min 83 W/m² 18,0 °C 20,3 °C 8,0 km/h (2 Bft)
22.07.2024 06:43 23,8 °C 20,4 °C 66 % 86 % 1011,5 hPa 0,0 l/m² 7,0 km/h (2 Bft) SW 226 ° 2 min 88 W/m² 18,0 °C 20,2 °C 11,3 km/h (2 Bft)
22.07.2024 06:44 23,8 °C 20,4 °C 66 % 86 % 1011,4 hPa 0,0 l/m² 6,4 km/h (2 Bft) S-SW 212 ° 1 min 90 W/m² 18,0 °C 20,4 °C 9,7 km/h (2 Bft)
22.07.2024 06:47 23,8 °C 20,4 °C 66 % 87 % 1011,5 hPa 0,0 l/m² 5,9 km/h (2 Bft) SW 218 ° 3 min 125 W/m² 18,2 °C 20,4 °C 9,7 km/h (2 Bft)
22.07.2024 06:49 23,8 °C 20,5 °C 66 % 87 % 1011,5 hPa 0,0 l/m² 8,7 km/h (2 Bft) SW 218 ° 2 min 149 W/m² 18,3 °C 19,6 °C 12,9 km/h (3 Bft)
22.07.2024 06:50 23,8 °C 20,4 °C 66 % 87 % 1011,5 hPa 0,0 l/m² 10,4 km/h (2 Bft) SW 219 ° 1 min 162 W/m² 18,2 °C 19,0 °C 12,9 km/h (3 Bft)
22.07.2024 06:52 23,8 °C 20,5 °C 66 % 87 % 1011,6 hPa 0,0 l/m² 12,6 km/h (3 Bft) SW 233 ° 2 min 174 W/m² 18,3 °C 18,4 °C 16,1 km/h (3 Bft)
22.07.2024 06:53 23,8 °C 20,5 °C 66 % 87 % 1011,6 hPa 0,0 l/m² 19,8 km/h (3 Bft) SW 223 ° 1 min 165 W/m² 18,3 °C 16,9 °C 24,1 km/h (4 Bft)
22.07.2024 06:55 23,8 °C 20,6 °C 66 % 86 % 1011,6 hPa 0,0 l/m² 17,2 km/h (3 Bft) S-SW 210 ° 2 min 144 W/m² 18,2 °C 17,5 °C 24,1 km/h (4 Bft)
22.07.2024 06:57 23,8 °C 20,6 °C 66 % 86 % 1011,7 hPa 0,0 l/m² 15,2 km/h (3 Bft) W-SW 240 ° 2 min 95 W/m² 18,2 °C 17,9 °C 20,9 km/h (4 Bft)
22.07.2024 06:59 23,8 °C 20,7 °C 65 % 86 % 1011,7 hPa 0,0 l/m² 14,1 km/h (3 Bft) S-SW 210 ° 2 min 98 W/m² 18,3 °C 18,3 °C 19,3 km/h (3 Bft)
22.07.2024 07:00 23,8 °C 20,7 °C 66 % 85 % 1011,8 hPa 0,0 l/m² 13,9 km/h (3 Bft) S-SW 209 ° 1 min 104 W/m² 18,1 °C 18,4 °C 17,7 km/h (3 Bft)
22.07.2024 07:02 23,8 °C 20,7 °C 65 % 86 % 1011,8 hPa 0,0 l/m² 16,7 km/h (3 Bft) SW 220 ° 2 min 83 W/m² 18,3 °C 17,7 °C 27,4 km/h (5 Bft)
22.07.2024 07:04 23,8 °C 20,7 °C 65 % 85 % 1011,8 hPa 0,0 l/m² 16,0 km/h (3 Bft) SW 215 ° 2 min 77 W/m² 18,1 °C 17,9 °C 22,5 km/h (4 Bft)
22.07.2024 07:06 23,9 °C 20,7 °C 65 % 84 % 1011,9 hPa 0,0 l/m² 15,0 km/h (3 Bft) W-SW 239 ° 2 min 69 W/m² 17,9 °C 18,1 °C 20,9 km/h (4 Bft)
22.07.2024 07:08 23,9 °C 20,8 °C 65 % 84 % 1011,9 hPa 0,0 l/m² 13,0 km/h (3 Bft) S-SW 211 ° 2 min 72 W/m² 18,0 °C 18,7 °C 17,7 km/h (3 Bft)
22.07.2024 07:10 23,9 °C 20,8 °C 66 % 84 % 1011,9 hPa 0,0 l/m² 12,0 km/h (2 Bft) SW 235 ° 2 min 95 W/m² 18,0 °C 19,0 °C 17,7 km/h (3 Bft)
22.07.2024 07:11 23,9 °C 20,8 °C 65 % 84 % 1011,9 hPa 0,0 l/m² 11,1 km/h (2 Bft) SW 219 ° 1 min 109 W/m² 18,0 °C 19,2 °C 14,5 km/h (3 Bft)
22.07.2024 07:12 23,9 °C 20,8 °C 65 % 84 % 1011,9 hPa 0,0 l/m² 12,9 km/h (3 Bft) SW 214 ° 1 min 114 W/m² 18,0 °C 18,7 °C 19,3 km/h (3 Bft)
22.07.2024 07:13 23,9 °C 20,8 °C 65 % 84 % 1011,9 hPa 0,0 l/m² 15,4 km/h (3 Bft) S-SW 209 ° 1 min 114 W/m² 18,0 °C 18,1 °C 19,3 km/h (3 Bft)
22.07.2024 07:15 23,9 °C 20,8 °C 65 % 83 % 1011,9 hPa 0,0 l/m² 14,2 km/h (3 Bft) SW 234 ° 2 min 211 W/m² 17,8 °C 18,4 °C 17,7 km/h (3 Bft)
22.07.2024 07:17 23,9 °C 20,8 °C 65 % 83 % 1012,0 hPa 0,0 l/m² 12,0 km/h (2 Bft) SW 227 ° 2 min 83 W/m² 17,8 °C 19,0 °C 17,7 km/h (3 Bft)
22.07.2024 07:19 23,9 °C 20,8 °C 65 % 83 % 1012,1 hPa 0,0 l/m² 15,4 km/h (3 Bft) SW 226 ° 2 min 74 W/m² 17,8 °C 18,1 °C 20,9 km/h (4 Bft)
22.07.2024 07:20 23,9 °C 20,8 °C 65 % 83 % 1012,1 hPa 0,0 l/m² 11,1 km/h (2 Bft) SW 221 ° 1 min 72 W/m² 17,8 °C 19,2 °C 16,1 km/h (3 Bft)
22.07.2024 07:22 23,9 °C 20,8 °C 65 % 83 % 1012,1 hPa 0,0 l/m² 13,9 km/h (3 Bft) SW 224 ° 2 min 84 W/m² 17,8 °C 18,5 °C 20,9 km/h (4 Bft)
22.07.2024 07:24 23,9 °C 20,8 °C 65 % 83 % 1012,1 hPa 0,0 l/m² 14,1 km/h (3 Bft) SW 217 ° 2 min 105 W/m² 17,8 °C 18,4 °C 20,9 km/h (4 Bft)
22.07.2024 07:26 23,9 °C 20,8 °C 65 % 83 % 1012,0 hPa 0,0 l/m² 15,7 km/h (3 Bft) SW 231 ° 2 min 128 W/m² 17,8 °C 18,1 °C 19,3 km/h (3 Bft)
22.07.2024 07:28 23,9 °C 20,8 °C 65 % 83 % 1012,1 hPa 0,0 l/m² 12,6 km/h (3 Bft) S-SW 212 ° 2 min 118 W/m² 17,8 °C 18,8 °C 16,1 km/h (3 Bft)
22.07.2024 07:30 23,9 °C 20,8 °C 65 % 83 % 1012,2 hPa 0,0 l/m² 11,8 km/h (2 Bft) S-SW 212 ° 2 min 91 W/m² 17,8 °C 19,0 °C 17,7 km/h (3 Bft)
22.07.2024 07:31 23,9 °C 20,8 °C 65 % 83 % 1012,1 hPa 0,0 l/m² 12,4 km/h (2 Bft) S-SW 207 ° 1 min 139 W/m² 17,8 °C 18,8 °C 14,5 km/h (3 Bft)
22.07.2024 07:32 23,9 °C 20,8 °C 65 % 83 % 1012,1 hPa 0,0 l/m² 11,9 km/h (2 Bft) SW 222 ° 1 min 207 W/m² 17,8 °C 19,0 °C 16,1 km/h (3 Bft)
22.07.2024 07:33 23,9 °C 20,8 °C 65 % 83 % 1012,2 hPa 0,0 l/m² 12,2 km/h (2 Bft) SW 219 ° 1 min 132 W/m² 17,8 °C 18,9 °C 14,5 km/h (3 Bft)
22.07.2024 07:34 23,9 °C 20,8 °C 65 % 83 % 1012,2 hPa 0,0 l/m² 11,7 km/h (2 Bft) SW 228 ° 1 min 111 W/m² 17,8 °C 19,0 °C 14,5 km/h (3 Bft)
22.07.2024 07:36 23,9 °C 20,8 °C 65 % 82 % 1012,2 hPa 0,0 l/m² 12,5 km/h (2 Bft) SW 216 ° 2 min 130 W/m² 17,6 °C 18,8 °C 17,7 km/h (3 Bft)
22.07.2024 07:38 23,9 °C 20,8 °C 65 % 82 % 1012,3 hPa 0,0 l/m² 12,4 km/h (2 Bft) SW 233 ° 2 min 100 W/m² 17,6 °C 18,8 °C 16,1 km/h (3 Bft)
22.07.2024 07:40 23,9 °C 20,8 °C 65 % 82 % 1012,2 hPa 0,0 l/m² 11,5 km/h (2 Bft) SW 218 ° 2 min 174 W/m² 17,6 °C 19,1 °C 17,7 km/h (3 Bft)
22.07.2024 07:41 23,9 °C 20,8 °C 65 % 83 % 1012,2 hPa 0,0 l/m² 13,4 km/h (3 Bft) S-SW 192 ° 1 min 204 W/m² 17,8 °C 18,6 °C 17,7 km/h (3 Bft)
22.07.2024 07:42 23,9 °C 20,8 °C 65 % 83 % 1012,2 hPa 0,0 l/m² 12,0 km/h (2 Bft) S-SW 212 ° 1 min 178 W/m² 17,8 °C 19,0 °C 14,5 km/h (3 Bft)
22.07.2024 07:43 23,9 °C 20,9 °C 65 % 83 % 1012,2 hPa 0,0 l/m² 11,7 km/h (2 Bft) SW 216 ° 1 min 141 W/m² 17,9 °C 19,1 °C 16,1 km/h (3 Bft)
22.07.2024 07:45 23,9 °C 20,9 °C 65 % 83 % 1012,3 hPa 0,0 l/m² 13,5 km/h (3 Bft) SW 215 ° 2 min 123 W/m² 17,9 °C 18,7 °C 16,1 km/h (3 Bft)
22.07.2024 07:47 24,0 °C 20,9 °C 65 % 82 % 1012,2 hPa 0,0 l/m² 14,5 km/h (3 Bft) SW 216 ° 2 min 95 W/m² 17,7 °C 18,5 °C 19,3 km/h (3 Bft)
22.07.2024 07:49 24,0 °C 20,9 °C 65 % 82 % 1012,3 hPa 0,0 l/m² 13,0 km/h (3 Bft) S-SW 209 ° 2 min 102 W/m² 17,7 °C 18,8 °C 17,7 km/h (3 Bft)
22.07.2024 07:50 23,9 °C 20,9 °C 65 % 82 % 1012,3 hPa 0,0 l/m² 16,3 km/h (3 Bft) S-SW 211 ° 1 min 401 W/m² 17,7 °C 18,1 °C 19,3 km/h (3 Bft)
22.07.2024 07:51 23,9 °C 20,9 °C 65 % 82 % 1012,3 hPa 0,0 l/m² 17,3 km/h (3 Bft) SW 219 ° 1 min 401 W/m² 17,7 °C 17,9 °C 20,9 km/h (4 Bft)
22.07.2024 07:52 24,0 °C 20,9 °C 65 % 82 % 1012,2 hPa 0,0 l/m² 13,3 km/h (3 Bft) S-SW 195 ° 1 min 213 W/m² 17,7 °C 18,7 °C 16,1 km/h (3 Bft)
22.07.2024 07:54 24,0 °C 20,9 °C 65 % 82 % 1012,3 hPa 0,0 l/m² 13,3 km/h (3 Bft) S-SW 197 ° 2 min 188 W/m² 17,7 °C 18,7 °C 17,7 km/h (3 Bft)
22.07.2024 07:56 24,0 °C 21,0 °C 65 % 82 % 1012,4 hPa 0,0 l/m² 15,7 km/h (3 Bft) SW 218 ° 2 min 139 W/m² 17,8 °C 18,3 °C 19,3 km/h (3 Bft)
22.07.2024 07:58 24,0 °C 21,1 °C 65 % 81 % 1012,4 hPa 0,0 l/m² 15,9 km/h (3 Bft) S-SW 212 ° 2 min 151 W/m² 17,7 °C 18,4 °C 19,3 km/h (3 Bft)
22.07.2024 08:00 24,0 °C 21,1 °C 65 % 81 % 1012,3 hPa 0,0 l/m² 15,2 km/h (3 Bft) S-SW 202 ° 2 min 160 W/m² 17,7 °C 18,5 °C 20,9 km/h (4 Bft)
22.07.2024 08:01 23,9 °C 21,1 °C 65 % 81 % 1012,4 hPa 0,0 l/m² 13,8 km/h (3 Bft) S-SW 203 ° 1 min 167 W/m² 17,7 °C 18,9 °C 17,7 km/h (3 Bft)
22.07.2024 08:02 23,9 °C 21,1 °C 65 % 81 % 1012,4 hPa 0,0 l/m² 16,2 km/h (3 Bft) S-SW 210 ° 1 min 167 W/m² 17,7 °C 18,3 °C 20,9 km/h (4 Bft)
22.07.2024 08:03 24,0 °C 21,1 °C 65 % 81 % 1012,4 hPa 0,0 l/m² 16,2 km/h (3 Bft) SW 215 ° 1 min 160 W/m² 17,7 °C 18,3 °C 19,3 km/h (3 Bft)
22.07.2024 08:05 23,9 °C 21,1 °C 65 % 81 % 1012,4 hPa 0,0 l/m² 11,8 km/h (2 Bft) SW 228 ° 2 min 151 W/m² 17,7 °C 19,3 °C 16,1 km/h (3 Bft)
22.07.2024 08:06 24,0 °C 21,1 °C 65 % 81 % 1012,4 hPa 0,0 l/m² 10,2 km/h (2 Bft) W-SW 252 ° 1 min 134 W/m² 17,7 °C 19,8 °C 14,5 km/h (3 Bft)
22.07.2024 08:08 24,0 °C 21,1 °C 65 % 81 % 1012,4 hPa 0,0 l/m² 14,5 km/h (3 Bft) SW 218 ° 2 min 123 W/m² 17,7 °C 18,7 °C 19,3 km/h (3 Bft)
22.07.2024 08:10 23,9 °C 21,2 °C 65 % 81 % 1012,5 hPa 0,0 l/m² 16,5 km/h (3 Bft) SW 221 ° 2 min 104 W/m² 17,8 °C 18,4 °C 22,5 km/h (4 Bft)
22.07.2024 08:11 24,0 °C 21,2 °C 65 % 81 % 1012,4 hPa 0,0 l/m² 14,8 km/h (3 Bft) SW 222 ° 1 min 114 W/m² 17,8 °C 18,7 °C 20,9 km/h (4 Bft)
22.07.2024 08:12 24,0 °C 21,2 °C 65 % 81 % 1012,4 hPa 0,0 l/m² 15,2 km/h (3 Bft) S-SW 201 ° 1 min 139 W/m² 17,8 °C 18,7 °C 19,3 km/h (3 Bft)
22.07.2024 08:13 24,0 °C 21,2 °C 65 % 81 % 1012,5 hPa 0,0 l/m² 15,0 km/h (3 Bft) SW 223 ° 1 min 169 W/m² 17,8 °C 18,7 °C 19,3 km/h (3 Bft)
22.07.2024 08:15 24,0 °C 21,2 °C 65 % 81 % 1012,5 hPa 0,0 l/m² 15,1 km/h (3 Bft) S-SW 209 ° 2 min 185 W/m² 17,8 °C 18,7 °C 17,7 km/h (3 Bft)
22.07.2024 08:16 24,0 °C 21,2 °C 65 % 81 % 1012,5 hPa 0,0 l/m² 10,8 km/h (2 Bft) S-SW 207 ° 1 min 225 W/m² 17,8 °C 19,7 °C 14,5 km/h (3 Bft)
22.07.2024 08:17 24,0 °C 21,2 °C 65 % 81 % 1012,5 hPa 0,0 l/m² 13,5 km/h (3 Bft) S 189 ° 1 min 229 W/m² 17,8 °C 19,0 °C 16,1 km/h (3 Bft)
22.07.2024 08:19 24,0 °C 21,2 °C 65 % 81 % 1012,5 hPa 0,0 l/m² 14,2 km/h (3 Bft) SW 228 ° 2 min 214 W/m² 17,8 °C 18,9 °C 19,3 km/h (3 Bft)
22.07.2024 08:20 24,0 °C 21,3 °C 65 % 81 % 1012,5 hPa 0,0 l/m² 13,7 km/h (3 Bft) S-SW 196 ° 1 min 204 W/m² 17,9 °C 19,1 °C 16,1 km/h (3 Bft)
22.07.2024 08:21 24,0 °C 21,3 °C 65 % 81 % 1012,5 hPa 0,0 l/m² 11,3 km/h (2 Bft) S 188 ° 1 min 199 W/m² 17,9 °C 19,7 °C 14,5 km/h (3 Bft)
22.07.2024 08:22 24,0 °C 21,3 °C 65 % 81 % 1012,5 hPa 0,0 l/m² 13,0 km/h (3 Bft) S-SW 209 ° 1 min 188 W/m² 17,9 °C 19,3 °C 16,1 km/h (3 Bft)
22.07.2024 08:24 24,0 °C 21,4 °C 65 % 81 % 1012,6 hPa 0,0 l/m² 12,6 km/h (3 Bft) S 191 ° 2 min 209 W/m² 18,0 °C 19,5 °C 17,7 km/h (3 Bft)
22.07.2024 08:26 24,0 °C 21,4 °C 65 % 81 % 1012,6 hPa 0,0 l/m² 12,7 km/h (3 Bft) SW 220 ° 2 min 257 W/m² 18,0 °C 19,5 °C 16,1 km/h (3 Bft)
22.07.2024 08:28 24,0 °C 21,4 °C 65 % 80 % 1012,6 hPa 0,0 l/m² 11,0 km/h (2 Bft) S-SW 197 ° 2 min 265 W/m² 17,8 °C 19,9 °C 14,5 km/h (3 Bft)
22.07.2024 08:30 24,0 °C 21,5 °C 65 % 80 % 1012,6 hPa 0,0 l/m² 13,1 km/h (3 Bft) S-SW 195 ° 2 min 283 W/m² 17,9 °C 19,5 °C 16,1 km/h (3 Bft)
22.07.2024 08:31 24,0 °C 21,6 °C 65 % 80 % 1012,5 hPa 0,0 l/m² 12,1 km/h (2 Bft) S-SW 210 ° 1 min 281 W/m² 18,0 °C 19,8 °C 14,5 km/h (3 Bft)
22.07.2024 08:32 24,0 °C 21,6 °C 65 % 80 % 1012,6 hPa 0,0 l/m² 11,3 km/h (2 Bft) S-SW 196 ° 1 min 271 W/m² 18,0 °C 20,1 °C 14,5 km/h (3 Bft)
22.07.2024 08:33 24,0 °C 21,6 °C 65 % 80 % 1012,6 hPa 0,0 l/m² 9,9 km/h (2 Bft) S 190 ° 1 min 262 W/m² 18,0 °C 20,4 °C 12,9 km/h (3 Bft)
22.07.2024 08:35 24,0 °C 21,7 °C 65 % 80 % 1012,6 hPa 0,0 l/m² 10,0 km/h (2 Bft) S-SW 202 ° 2 min 214 W/m² 18,1 °C 20,5 °C 12,9 km/h (3 Bft)
22.07.2024 08:37 24,0 °C 21,7 °C 65 % 80 % 1012,5 hPa 0,0 l/m² 9,6 km/h (2 Bft) SW 223 ° 2 min 183 W/m² 18,1 °C 20,6 °C 12,9 km/h (3 Bft)
22.07.2024 08:39 24,0 °C 21,8 °C 65 % 80 % 1012,5 hPa 0,0 l/m² 9,8 km/h (2 Bft) SW 223 ° 2 min 165 W/m² 18,2 °C 20,7 °C 14,5 km/h (3 Bft)
22.07.2024 08:40 24,0 °C 21,8 °C 65 % 79 % 1012,6 hPa 0,0 l/m² 9,5 km/h (2 Bft) SW 219 ° 1 min 160 W/m² 18,0 °C 20,8 °C 14,5 km/h (3 Bft)
22.07.2024 08:41 24,1 °C 21,8 °C 65 % 79 % 1012,6 hPa 0,0 l/m² 10,1 km/h (2 Bft) SW 217 ° 1 min 156 W/m² 18,0 °C 20,6 °C 14,5 km/h (3 Bft)
22.07.2024 08:42 24,0 °C 21,8 °C 65 % 79 % 1012,6 hPa 0,0 l/m² 10,9 km/h (2 Bft) SW 220 ° 1 min 120 W/m² 18,0 °C 20,4 °C 14,5 km/h (3 Bft)
22.07.2024 08:44 24,0 °C 21,8 °C 65 % 79 % 1012,5 hPa 0,0 l/m² 7,8 km/h (2 Bft) W 260 ° 2 min 118 W/m² 18,0 °C 21,3 °C 11,3 km/h (2 Bft)
22.07.2024 08:46 24,0 °C 21,9 °C 65 % 79 % 1012,6 hPa 0,0 l/m² 9,9 km/h (2 Bft) W-SW 242 ° 2 min 123 W/m² 18,1 °C 20,8 °C 16,1 km/h (3 Bft)
22.07.2024 08:48 24,0 °C 21,9 °C 65 % 79 % 1012,6 hPa 0,0 l/m² 9,2 km/h (2 Bft) SW 216 ° 2 min 167 W/m² 18,1 °C 21,0 °C 14,5 km/h (3 Bft)
22.07.2024 08:50 24,0 °C 21,9 °C 65 % 79 % 1012,7 hPa 0,0 l/m² 10,4 km/h (2 Bft) SW 223 ° 2 min 158 W/m² 18,1 °C 20,6 °C 16,1 km/h (3 Bft)
22.07.2024 08:51 24,0 °C 21,9 °C 65 % 78 % 1012,8 hPa 0,0 l/m² 7,6 km/h (2 Bft) SW 226 ° 1 min 134 W/m² 17,9 °C 21,5 °C 11,3 km/h (2 Bft)
22.07.2024 08:52 24,0 °C 21,9 °C 65 % 78 % 1012,7 hPa 0,0 l/m² 7,4 km/h (2 Bft) SW 216 ° 1 min 120 W/m² 17,9 °C 21,5 °C 8,0 km/h (2 Bft)
22.07.2024 08:53 24,0 °C 21,9 °C 65 % 78 % 1012,7 hPa 0,0 l/m² 6,9 km/h (2 Bft) SW 234 ° 1 min 120 W/m² 17,9 °C 21,7 °C 9,7 km/h (2 Bft)
22.07.2024 08:54 24,0 °C 21,9 °C 65 % 78 % 1012,7 hPa 0,0 l/m² 7,0 km/h (2 Bft) SW 225 ° 1 min 141 W/m² 17,9 °C 21,7 °C 8,0 km/h (2 Bft)
22.07.2024 08:56 24,0 °C 22,0 °C 65 % 78 % 1012,7 hPa 0,0 l/m² 7,8 km/h (2 Bft) W-SW 238 ° 2 min 167 W/m² 18,0 °C 21,5 °C 14,5 km/h (3 Bft)
22.07.2024 08:58 24,0 °C 22,0 °C 65 % 78 % 1012,7 hPa 0,0 l/m² 10,6 km/h (2 Bft) SW 234 ° 2 min 176 W/m² 18,0 °C 20,7 °C 14,5 km/h (3 Bft)
22.07.2024 09:00 24,0 °C 22,1 °C 65 % 78 % 1012,8 hPa 0,0 l/m² 6,3 km/h (2 Bft) SW 236 ° 2 min 151 W/m² 18,1 °C 22,1 °C 11,3 km/h (2 Bft)
22.07.2024 09:01 24,0 °C 22,1 °C 65 % 78 % 1012,8 hPa 0,0 l/m² 9,5 km/h (2 Bft) SW 236 ° 1 min 165 W/m² 18,1 °C 21,1 °C 12,9 km/h (3 Bft)
22.07.2024 09:02 24,0 °C 22,1 °C 65 % 78 % 1012,8 hPa 0,0 l/m² 6,4 km/h (2 Bft) W-SW 242 ° 1 min 176 W/m² 18,1 °C 22,1 °C 8,0 km/h (2 Bft)
22.07.2024 09:03 24,0 °C 22,1 °C 65 % 78 % 1012,7 hPa 0,0 l/m² 7,3 km/h (2 Bft) W-SW 249 ° 1 min 183 W/m² 18,1 °C 21,8 °C 12,9 km/h (3 Bft)
22.07.2024 09:05 24,0 °C 22,2 °C 65 % 78 % 1012,8 hPa 0,0 l/m² 4,9 km/h (1 Bft) W-SW 245 ° 2 min 190 W/m² 18,2 °C 22,2 °C 8,0 km/h (2 Bft)
22.07.2024 09:07 24,0 °C 22,2 °C 65 % 77 % 1012,7 hPa 0,0 l/m² 8,7 km/h (2 Bft) W-SW 255 ° 2 min 186 W/m² 18,0 °C 21,4 °C 19,3 km/h (3 Bft)
22.07.2024 09:09 24,0 °C 22,3 °C 65 % 75 % 1012,8 hPa 0,0 l/m² 8,1 km/h (2 Bft) W-SW 247 ° 2 min 190 W/m² 17,6 °C 21,7 °C 14,5 km/h (3 Bft)
22.07.2024 09:10 24,0 °C 22,3 °C 65 % 75 % 1012,8 hPa 0,0 l/m² 8,5 km/h (2 Bft) W-SW 250 ° 1 min 199 W/m² 17,6 °C 21,6 °C 12,9 km/h (3 Bft)
22.07.2024 09:11 24,0 °C 22,3 °C 65 % 75 % 1012,8 hPa 0,0 l/m² 12,5 km/h (2 Bft) W 271 ° 1 min 199 W/m² 17,6 °C 20,6 °C 16,1 km/h (3 Bft)
22.07.2024 09:12 24,0 °C 22,3 °C 65 % 75 % 1012,7 hPa 0,0 l/m² 9,9 km/h (2 Bft) W-SW 256 ° 1 min 190 W/m² 17,6 °C 21,2 °C 14,5 km/h (3 Bft)
22.07.2024 09:14 24,0 °C 22,4 °C 65 % 74 % 1012,8 hPa 0,0 l/m² 14,6 km/h (3 Bft) W-SW 250 ° 2 min 146 W/m² 17,5 °C 20,2 °C 22,5 km/h (4 Bft)
22.07.2024 09:16 24,0 °C 22,4 °C 65 % 73 % 1012,9 hPa 0,0 l/m² 15,4 km/h (3 Bft) W-SW 243 ° 2 min 113 W/m² 17,3 °C 20,1 °C 22,5 km/h (4 Bft)
22.07.2024 09:18 24,0 °C 22,4 °C 65 % 73 % 1012,9 hPa 0,0 l/m² 12,0 km/h (2 Bft) W-SW 258 ° 2 min 132 W/m² 17,3 °C 20,8 °C 22,5 km/h (4 Bft)
22.07.2024 09:20 24,0 °C 22,5 °C 65 % 73 % 1012,9 hPa 0,0 l/m² 15,1 km/h (3 Bft) W-SW 254 ° 2 min 142 W/m² 17,4 °C 20,3 °C 25,7 km/h (4 Bft)
22.07.2024 09:21 24,1 °C 22,5 °C 65 % 72 % 1013,0 hPa 0,0 l/m² 16,5 km/h (3 Bft) W-SW 255 ° 1 min 149 W/m² 17,2 °C 20,0 °C 20,9 km/h (4 Bft)
22.07.2024 09:22 24,1 °C 22,5 °C 65 % 72 % 1013,0 hPa 0,0 l/m² 11,8 km/h (2 Bft) W 262 ° 1 min 163 W/m² 17,2 °C 21,0 °C 16,1 km/h (3 Bft)
22.07.2024 09:23 24,0 °C 22,6 °C 65 % 72 % 1013,0 hPa 0,0 l/m² 9,1 km/h (2 Bft) W 263 ° 1 min 216 W/m² 17,3 °C 21,8 °C 19,3 km/h (3 Bft)
22.07.2024 09:25 24,0 °C 22,6 °C 65 % 72 % 1013,0 hPa 0,0 l/m² 14,0 km/h (3 Bft) W-SW 258 ° 2 min 167 W/m² 17,3 °C 20,6 °C 20,9 km/h (4 Bft)
22.07.2024 09:27 24,0 °C 22,6 °C 65 % 72 % 1013,1 hPa 0,0 l/m² 17,3 km/h (3 Bft) W 279 ° 2 min 174 W/m² 17,3 °C 20,0 °C 22,5 km/h (4 Bft)
22.07.2024 09:29 24,0 °C 22,6 °C 65 % 72 % 1013,0 hPa 0,0 l/m² 13,1 km/h (3 Bft) W-SW 246 ° 2 min 179 W/m² 17,3 °C 20,8 °C 19,3 km/h (3 Bft)
22.07.2024 09:31 24,0 °C 22,6 °C 65 % 72 % 1013,0 hPa 0,0 l/m² 12,2 km/h (2 Bft) W 267 ° 2 min 165 W/m² 17,3 °C 21,0 °C 19,3 km/h (3 Bft)
22.07.2024 09:32 24,0 °C 22,6 °C 65 % 72 % 1013,1 hPa 0,0 l/m² 9,2 km/h (2 Bft) W 270 ° 1 min 178 W/m² 17,3 °C 21,7 °C 12,9 km/h (3 Bft)
22.07.2024 09:33 24,0 °C 22,7 °C 65 % 72 % 1013,1 hPa 0,0 l/m² 7,7 km/h (2 Bft) W-NW 287 ° 1 min 193 W/m² 17,4 °C 22,3 °C 11,3 km/h (2 Bft)
22.07.2024 09:34 24,0 °C 22,7 °C 65 % 71 % 1013,0 hPa 0,0 l/m² 9,1 km/h (2 Bft) W-SW 239 ° 1 min 209 W/m² 17,2 °C 21,9 °C 12,9 km/h (3 Bft)
22.07.2024 09:36 24,0 °C 22,7 °C 65 % 71 % 1013,1 hPa 0,0 l/m² 6,4 km/h (2 Bft) W 266 ° 2 min 214 W/m² 17,2 °C 22,7 °C 16,1 km/h (3 Bft)
22.07.2024 09:38 24,0 °C 22,7 °C 65 % 71 % 1013,1 hPa 0,0 l/m² 4,7 km/h (1 Bft) W-NW 284 ° 2 min 220 W/m² 17,2 °C 22,7 °C 14,5 km/h (3 Bft)
22.07.2024 09:40 24,0 °C 22,8 °C 65 % 71 % 1013,2 hPa 0,0 l/m² 7,8 km/h (2 Bft) W 265 ° 2 min 250 W/m² 17,3 °C 22,4 °C 14,5 km/h (3 Bft)
22.07.2024 09:41 24,0 °C 22,8 °C 65 % 71 % 1013,2 hPa 0,0 l/m² 7,5 km/h (2 Bft) W 265 ° 1 min 285 W/m² 17,3 °C 22,4 °C 14,5 km/h (3 Bft)
22.07.2024 09:42 24,0 °C 22,8 °C 65 % 71 % 1013,2 hPa 0,0 l/m² 3,5 km/h (1 Bft) W 260 ° 1 min 323 W/m² 17,3 °C 22,8 °C 6,4 km/h (2 Bft)
22.07.2024 09:43 24,0 °C 22,9 °C 65 % 72 % 1013,1 hPa 0,0 l/m² 3,8 km/h (1 Bft) W-NW 295 ° 1 min 323 W/m² 17,6 °C 22,9 °C 11,3 km/h (2 Bft)
22.07.2024 09:45 24,0 °C 22,9 °C 65 % 72 % 1013,1 hPa 0,0 l/m² 4,8 km/h (1 Bft) W 275 ° 2 min 360 W/m² 17,6 °C 22,9 °C 11,3 km/h (2 Bft)
22.07.2024 09:47 24,0 °C 23,1 °C 65 % 71 % 1013,1 hPa 0,0 l/m² 4,2 km/h (1 Bft) W-SW 253 ° 2 min 330 W/m² 17,5 °C 23,1 °C 11,3 km/h (2 Bft)
22.07.2024 09:48 24,0 °C 23,1 °C 65 % 71 % 1013,1 hPa 0,0 l/m² 5,6 km/h (2 Bft) NW 317 ° 1 min 339 W/m² 17,5 °C 23,1 °C 12,9 km/h (3 Bft)
22.07.2024 09:50 24,0 °C 23,2 °C 65 % 71 % 1013,0 hPa 0,0 l/m² 6,3 km/h (2 Bft) W-SW 245 ° 2 min 290 W/m² 17,6 °C 23,2 °C 11,3 km/h (2 Bft)
22.07.2024 09:51 24,1 °C 23,2 °C 65 % 70 % 1013,1 hPa 0,0 l/m² 4,8 km/h (1 Bft) W-NW 293 ° 1 min 294 W/m² 17,4 °C 23,2 °C 9,7 km/h (2 Bft)
22.07.2024 09:52 24,1 °C 23,3 °C 65 % 70 % 1013,1 hPa 0,0 l/m² 7,6 km/h (2 Bft) W-NW 286 ° 1 min 360 W/m² 17,5 °C 22,9 °C 12,9 km/h (3 Bft)
22.07.2024 09:53 24,0 °C 23,3 °C 65 % 69 % 1013,1 hPa 0,0 l/m² 8,9 km/h (2 Bft) W-NW 293 ° 1 min 415 W/m² 17,3 °C 22,6 °C 14,5 km/h (3 Bft)
22.07.2024 09:55 24,0 °C 23,4 °C 65 % 69 % 1013,1 hPa 0,0 l/m² 6,1 km/h (2 Bft) W-SW 245 ° 2 min 362 W/m² 17,4 °C 23,4 °C 12,9 km/h (3 Bft)
22.07.2024 09:57 24,0 °C 23,6 °C 65 % 68 % 1013,1 hPa 0,0 l/m² 9,8 km/h (2 Bft) W-SW 244 ° 2 min 425 W/m² 17,3 °C 22,7 °C 16,1 km/h (3 Bft)
22.07.2024 09:59 24,0 °C 23,6 °C 65 % 69 % 1013,2 hPa 0,0 l/m² 14,2 km/h (3 Bft) SW 226 ° 2 min 536 W/m² 17,6 °C 21,8 °C 20,9 km/h (4 Bft)
22.07.2024 10:01 24,0 °C 23,8 °C 64 % 68 % 1013,2 hPa 0,0 l/m² 16,8 km/h (3 Bft) W 264 ° 2 min 536 W/m² 17,5 °C 21,6 °C 25,7 km/h (4 Bft)
22.07.2024 10:02 24,1 °C 23,9 °C 65 % 67 % 1013,2 hPa 0,0 l/m² 15,3 km/h (3 Bft) W-SW 239 ° 1 min 536 W/m² 17,4 °C 21,9 °C 22,5 km/h (4 Bft)
22.07.2024 10:03 24,0 °C 23,9 °C 65 % 67 % 1013,2 hPa 0,0 l/m² 17,5 km/h (3 Bft) W-SW 245 ° 1 min 454 W/m² 17,4 °C 21,6 °C 24,1 km/h (4 Bft)
22.07.2024 10:04 24,0 °C 24,0 °C 64 % 66 % 1013,2 hPa 0,0 l/m² 15,3 km/h (3 Bft) SW 236 ° 1 min 454 W/m² 17,2 °C 22,0 °C 25,7 km/h (4 Bft)
22.07.2024 10:06 24,0 °C 24,2 °C 64 % 66 % 1013,2 hPa 0,0 l/m² 19,3 km/h (3 Bft) SW 232 ° 2 min 438 W/m² 17,4 °C 21,7 °C 27,4 km/h (5 Bft)
22.07.2024 10:08 24,1 °C 24,3 °C 64 % 69 % 1013,1 hPa 0,0 l/m² 18,8 km/h (3 Bft) S-SW 213 ° 2 min 538 W/m² 18,2 °C 21,9 °C 27,4 km/h (5 Bft)
22.07.2024 10:10 24,1 °C 24,4 °C 64 % 68 % 1013,2 hPa 0,0 l/m² 21,4 km/h (4 Bft) S-SW 196 ° 2 min 403 W/m² 18,1 °C 21,7 °C 25,7 km/h (4 Bft)
22.07.2024 10:11 24,0 °C 24,4 °C 65 % 68 % 1013,3 hPa 0,0 l/m² 19,0 km/h (3 Bft) S-SW 209 ° 1 min 264 W/m² 18,1 °C 22,0 °C 29,0 km/h (5 Bft)
22.07.2024 10:12 24,0 °C 24,4 °C 65 % 68 % 1013,3 hPa 0,0 l/m² 21,5 km/h (4 Bft) SW 220 ° 1 min 285 W/m² 18,1 °C 21,7 °C 27,4 km/h (5 Bft)
22.07.2024 10:13 24,0 °C 24,3 °C 64 % 68 % 1013,3 hPa 0,0 l/m² 18,6 km/h (3 Bft) SW 228 ° 1 min 274 W/m² 18,0 °C 21,9 °C 27,4 km/h (5 Bft)
22.07.2024 10:15 24,0 °C 24,3 °C 64 % 68 % 1013,3 hPa 0,0 l/m² 22,5 km/h (4 Bft) SW 223 ° 2 min 281 W/m² 18,0 °C 21,5 °C 30,6 km/h (5 Bft)
22.07.2024 10:17 24,0 °C 24,2 °C 64 % 68 % 1013,3 hPa 0,0 l/m² 18,5 km/h (3 Bft) SW 236 ° 2 min 292 W/m² 17,9 °C 21,8 °C 24,1 km/h (4 Bft)
22.07.2024 10:19 24,1 °C 24,1 °C 64 % 69 % 1013,4 hPa 0,0 l/m² 18,1 km/h (3 Bft) S-SW 205 ° 2 min 318 W/m² 18,0 °C 21,8 °C 24,1 km/h (4 Bft)
22.07.2024 10:21 24,0 °C 24,0 °C 64 % 69 % 1013,3 hPa 0,0 l/m² 18,4 km/h (3 Bft) SW 227 ° 2 min 352 W/m² 18,0 °C 21,6 °C 22,5 km/h (4 Bft)
22.07.2024 10:22 24,0 °C 23,9 °C 64 % 69 % 1013,4 hPa 0,0 l/m² 16,1 km/h (3 Bft) SW 234 ° 1 min 366 W/m² 17,9 °C 21,8 °C 22,5 km/h (4 Bft)
22.07.2024 10:23 24,0 °C 23,9 °C 64 % 69 % 1013,3 hPa 0,0 l/m² 17,9 km/h (3 Bft) W-SW 250 ° 1 min 366 W/m² 17,9 °C 21,5 °C 22,5 km/h (4 Bft)
22.07.2024 10:24 24,0 °C 23,9 °C 64 % 69 % 1013,3 hPa 0,0 l/m² 17,6 km/h (3 Bft) SW 229 ° 1 min 471 W/m² 17,9 °C 21,6 °C 22,5 km/h (4 Bft)
22.07.2024 10:26 24,0 °C 23,9 °C 64 % 70 % 1013,3 hPa 0,0 l/m² 15,9 km/h (3 Bft) SW 225 ° 2 min 578 W/m² 18,1 °C 21,8 °C 20,9 km/h (4 Bft)
22.07.2024 10:28 24,1 °C 23,9 °C 64 % 70 % 1013,3 hPa 0,0 l/m² 19,0 km/h (3 Bft) SW 223 ° 2 min 628 W/m² 18,1 °C 21,4 °C 22,5 km/h (4 Bft)
22.07.2024 10:29 24,0 °C 23,9 °C 64 % 69 % 1013,3 hPa 0,0 l/m² 17,6 km/h (3 Bft) S-SW 206 ° 1 min 628 W/m² 17,9 °C 21,6 °C 24,1 km/h (4 Bft)
22.07.2024 10:30 24,1 °C 23,9 °C 64 % 70 % 1013,3 hPa 0,0 l/m² 18,4 km/h (3 Bft) SW 223 ° 1 min 628 W/m² 18,1 °C 21,5 °C 24,1 km/h (4 Bft)
22.07.2024 10:33 24,1 °C 24,1 °C 64 % 70 % 1013,4 hPa 0,0 l/m² 18,8 km/h (3 Bft) SW 217 ° 3 min 751 W/m² 18,3 °C 21,7 °C 27,4 km/h (5 Bft)
22.07.2024 10:34 24,0 °C 24,2 °C 64 % 70 % 1013,4 hPa 0,0 l/m² 15,1 km/h (3 Bft) SW 219 ° 1 min 751 W/m² 18,4 °C 22,3 °C 19,3 km/h (3 Bft)
22.07.2024 10:35 24,0 °C 24,2 °C 64 % 71 % 1013,4 hPa 0,0 l/m² 16,2 km/h (3 Bft) S-SW 213 ° 1 min 891 W/m² 18,6 °C 22,2 °C 24,1 km/h (4 Bft)
22.07.2024 10:36 24,0 °C 24,3 °C 64 % 70 % 1013,3 hPa 0,0 l/m² 19,4 km/h (3 Bft) SW 223 ° 1 min 891 W/m² 18,5 °C 21,8 °C 24,1 km/h (4 Bft)
22.07.2024 10:38 24,1 °C 24,4 °C 64 % 68 % 1013,3 hPa 0,0 l/m² 17,6 km/h (3 Bft) S-SW 213 ° 2 min 891 W/m² 18,1 °C 22,2 °C 24,1 km/h (4 Bft)
22.07.2024 10:40 24,1 °C 24,4 °C 64 % 68 % 1013,3 hPa 0,0 l/m² 18,6 km/h (3 Bft) SW 229 ° 2 min 872 W/m² 18,1 °C 22,1 °C 24,1 km/h (4 Bft)
22.07.2024 10:41 24,1 °C 24,5 °C 64 % 68 % 1013,2 hPa 0,0 l/m² 12,1 km/h (2 Bft) S-SW 196 ° 1 min 881 W/m² 18,2 °C 23,2 °C 22,5 km/h (4 Bft)
22.07.2024 10:42 24,1 °C 24,6 °C 64 % 69 % 1013,2 hPa 0,0 l/m² 19,3 km/h (3 Bft) SW 223 ° 1 min 884 W/m² 18,5 °C 22,2 °C 24,1 km/h (4 Bft)
22.07.2024 10:43 24,1 °C 24,6 °C 64 % 69 % 1013,2 hPa 0,0 l/m² 16,1 km/h (3 Bft) S-SW 202 ° 1 min 896 W/m² 18,5 °C 22,7 °C 22,5 km/h (4 Bft)
22.07.2024 10:45 24,1 °C 24,7 °C 64 % 68 % 1013,3 hPa 0,0 l/m² 18,3 km/h (3 Bft) W-SW 239 ° 2 min 928 W/m² 18,4 °C 22,5 °C 27,4 km/h (5 Bft)
22.07.2024 10:47 24,1 °C 24,9 °C 64 % 68 % 1013,3 hPa 0,0 l/m² 19,3 km/h (3 Bft) SW 216 ° 2 min 854 W/m² 18,6 °C 22,6 °C 25,7 km/h (4 Bft)
22.07.2024 10:49 24,1 °C 25,1 °C 64 % 66 % 1013,3 hPa 0,0 l/m² 21,0 km/h (4 Bft) SW 221 ° 2 min 983 W/m² 18,3 °C 22,7 °C 29,0 km/h (5 Bft)
22.07.2024 10:51 24,1 °C 25,1 °C 64 % 66 % 1013,3 hPa 0,0 l/m² 22,4 km/h (4 Bft) W-SW 238 ° 2 min 983 W/m² 18,3 °C 22,5 °C 27,4 km/h (5 Bft)
22.07.2024 10:52 24,1 °C 25,2 °C 64 % 65 % 1013,3 hPa 0,0 l/m² 21,5 km/h (4 Bft) SW 227 ° 1 min 983 W/m² 18,1 °C 22,8 °C 27,4 km/h (5 Bft)
22.07.2024 10:53 24,1 °C 25,2 °C 64 % 65 % 1013,3 hPa 0,0 l/m² 20,3 km/h (4 Bft) S-SW 208 ° 1 min 350 W/m² 18,1 °C 22,9 °C 25,7 km/h (4 Bft)
22.07.2024 10:54 24,1 °C 25,1 °C 64 % 65 % 1013,3 hPa 0,0 l/m² 19,7 km/h (3 Bft) SW 215 ° 1 min 350 W/m² 18,0 °C 22,8 °C 22,5 km/h (4 Bft)
22.07.2024 10:56 24,1 °C 25,1 °C 64 % 65 % 1013,3 hPa 0,0 l/m² 15,7 km/h (3 Bft) S-SW 198 ° 2 min 350 W/m² 18,0 °C 23,3 °C 20,9 km/h (4 Bft)
22.07.2024 10:58 24,1 °C 25,1 °C 64 % 65 % 1013,3 hPa 0,0 l/m² 16,3 km/h (3 Bft) SW 215 ° 2 min 362 W/m² 18,0 °C 23,2 °C 20,9 km/h (4 Bft)
22.07.2024 11:00 24,1 °C 25,1 °C 64 % 66 % 1013,4 hPa 0,0 l/m² 18,0 km/h (3 Bft) SW 220 ° 2 min 362 W/m² 18,3 °C 23,0 °C 27,4 km/h (5 Bft)
22.07.2024 11:01 24,1 °C 25,1 °C 64 % 66 % 1013,4 hPa 0,0 l/m² 21,8 km/h (4 Bft) SW 217 ° 1 min 1009 W/m² 18,3 °C 22,6 °C 27,4 km/h (5 Bft)
22.07.2024 11:02 24,1 °C 25,1 °C 64 % 66 % 1013,4 hPa 0,0 l/m² 17,9 km/h (3 Bft) SW 215 ° 1 min 1009 W/m² 18,3 °C 23,0 °C 22,5 km/h (4 Bft)
22.07.2024 11:03 24,1 °C 25,1 °C 64 % 65 % 1013,4 hPa 0,0 l/m² 20,0 km/h (4 Bft) S-SW 211 ° 1 min 926 W/m² 18,0 °C 22,8 °C 25,7 km/h (4 Bft)
22.07.2024 11:05 24,1 °C 25,1 °C 64 % 65 % 1013,5 hPa 0,0 l/m² 18,1 km/h (3 Bft) W-SW 242 ° 2 min 784 W/m² 18,0 °C 23,0 °C 24,1 km/h (4 Bft)
22.07.2024 11:07 24,1 °C 25,2 °C 64 % 66 % 1013,4 hPa 0,0 l/m² 13,4 km/h (3 Bft) S-SW 204 ° 2 min 856 W/m² 18,4 °C 23,8 °C 19,3 km/h (3 Bft)
22.07.2024 11:09 24,1 °C 25,2 °C 64 % 65 % 1013,4 hPa 0,0 l/m² 18,4 km/h (3 Bft) S-SW 209 ° 2 min 856 W/m² 18,1 °C 23,1 °C 24,1 km/h (4 Bft)
22.07.2024 11:11 24,1 °C 25,3 °C 64 % 65 % 1013,4 hPa 0,0 l/m² 17,1 km/h (3 Bft) S-SW 202 ° 2 min 935 W/m² 18,2 °C 23,4 °C 24,1 km/h (4 Bft)
22.07.2024 11:12 24,1 °C 25,4 °C 64 % 64 % 1013,4 hPa 0,0 l/m² 20,4 km/h (4 Bft) S-SW 207 ° 1 min 939 W/m² 18,1 °C 23,1 °C 30,6 km/h (5 Bft)
22.07.2024 11:13 24,1 °C 25,4 °C 64 % 64 % 1013,4 hPa 0,0 l/m² 20,3 km/h (4 Bft) S-SW 202 ° 1 min 958 W/m² 18,1 °C 23,1 °C 25,7 km/h (4 Bft)
22.07.2024 11:14 24,1 °C 25,5 °C 64 % 63 % 1013,4 hPa 0,0 l/m² 20,1 km/h (4 Bft) S-SW 206 ° 1 min 983 W/m² 17,9 °C 23,3 °C 25,7 km/h (4 Bft)
22.07.2024 11:16 24,1 °C 25,6 °C 64 % 64 % 1013,3 hPa 0,0 l/m² 18,3 km/h (3 Bft) SW 218 ° 2 min 1016 W/m² 18,3 °C 23,6 °C 25,7 km/h (4 Bft)
22.07.2024 11:18 24,1 °C 25,8 °C 64 % 65 % 1013,4 hPa 0,0 l/m² 17,8 km/h (3 Bft) SW 236 ° 2 min 1058 W/m² 18,7 °C 23,9 °C 22,5 km/h (4 Bft)
22.07.2024 11:20 24,1 °C 25,9 °C 64 % 63 % 1013,5 hPa 0,0 l/m² 14,2 km/h (3 Bft) W-SW 257 ° 2 min 1016 W/m² 18,3 °C 24,5 °C 19,3 km/h (3 Bft)
22.07.2024 11:21 24,1 °C 26,0 °C 64 % 62 % 1013,5 hPa 0,0 l/m² 11,2 km/h (2 Bft) W 266 ° 1 min 969 W/m² 18,1 °C 25,1 °C 20,9 km/h (4 Bft)
22.07.2024 11:22 24,1 °C 26,1 °C 64 % 63 % 1013,5 hPa 0,0 l/m² 12,4 km/h (2 Bft) W-SW 248 ° 1 min 986 W/m² 18,5 °C 25,0 °C 19,3 km/h (3 Bft)
22.07.2024 11:23 24,1 °C 26,1 °C 64 % 63 % 1013,5 hPa 0,0 l/m² 16,9 km/h (3 Bft) W-SW 242 ° 1 min 1034 W/m² 18,5 °C 24,4 °C 22,5 km/h (4 Bft)
22.07.2024 11:25 24,1 °C 26,2 °C 64 % 62 % 1013,5 hPa 0,0 l/m² 17,5 km/h (3 Bft) SW 219 ° 2 min 1035 W/m² 18,3 °C 24,5 °C 24,1 km/h (4 Bft)
22.07.2024 11:26 24,1 °C 26,3 °C 64 % 62 % 1013,4 hPa 0,0 l/m² 18,7 km/h (3 Bft) SW 230 ° 1 min 1005 W/m² 18,4 °C 24,5 °C 25,7 km/h (4 Bft)
22.07.2024 11:27 24,1 °C 26,4 °C 64 % 61 % 1013,4 hPa 0,0 l/m² 20,3 km/h (4 Bft) S-SW 203 ° 1 min 1005 W/m² 18,3 °C 24,4 °C 25,7 km/h (4 Bft)
22.07.2024 11:28 24,1 °C 26,4 °C 64 % 61 % 1013,4 hPa 0,0 l/m² 15,5 km/h (3 Bft) SW 228 ° 1 min 1005 W/m² 18,3 °C 24,9 °C 19,3 km/h (3 Bft)
22.07.2024 11:29 24,1 °C 26,4 °C 64 % 60 % 1013,5 hPa 0,0 l/m² 14,9 km/h (3 Bft) SW 216 ° 1 min 1005 W/m² 18,0 °C 25,0 °C 19,3 km/h (3 Bft)
22.07.2024 11:30 24,1 °C 26,5 °C 64 % 61 % 1013,5 hPa 0,0 l/m² 17,0 km/h (3 Bft) SW 216 ° 1 min 905 W/m² 18,4 °C 24,9 °C 24,1 km/h (4 Bft)
22.07.2024 11:32 24,1 °C 26,6 °C 64 % 60 % 1013,5 hPa 0,0 l/m² 14,9 km/h (3 Bft) S-SO 163 ° 2 min 919 W/m² 18,2 °C 25,3 °C 20,9 km/h (4 Bft)
22.07.2024 11:34 24,1 °C 26,7 °C 64 % 61 % 1013,5 hPa 0,0 l/m² 15,0 km/h (3 Bft) SW 229 ° 2 min 919 W/m² 18,5 °C 25,4 °C 22,5 km/h (4 Bft)
22.07.2024 11:35 24,1 °C 26,6 °C 64 % 59 % 1013,6 hPa 0,0 l/m² 18,5 km/h (3 Bft) W-SW 248 ° 1 min 919 W/m² 17,9 °C 24,9 °C 24,1 km/h (4 Bft)
22.07.2024 11:36 24,1 °C 26,6 °C 64 % 58 % 1013,5 hPa 0,0 l/m² 13,2 km/h (3 Bft) SW 225 ° 1 min 919 W/m² 17,6 °C 25,5 °C 17,7 km/h (3 Bft)
22.07.2024 11:37 24,1 °C 26,6 °C 64 % 57 % 1013,6 hPa 0,0 l/m² 10,6 km/h (2 Bft) SW 216 ° 1 min 981 W/m² 17,4 °C 25,8 °C 12,9 km/h (3 Bft)
22.07.2024 11:38 24,1 °C 26,7 °C 64 % 58 % 1013,6 hPa 0,0 l/m² 12,4 km/h (2 Bft) SW 234 ° 1 min 1025 W/m² 17,7 °C 25,7 °C 16,1 km/h (3 Bft)
22.07.2024 11:39 24,1 °C 26,7 °C 64 % 59 % 1013,6 hPa 0,0 l/m² 10,6 km/h (2 Bft) SW 218 ° 1 min 1025 W/m² 18,0 °C 25,9 °C 14,5 km/h (3 Bft)
22.07.2024 11:40 24,1 °C 26,7 °C 64 % 57 % 1013,6 hPa 0,0 l/m² 12,2 km/h (2 Bft) W 277 ° 1 min 345 W/m² 17,5 °C 25,7 °C 17,7 km/h (3 Bft)
22.07.2024 11:42 24,1 °C 26,7 °C 64 % 54 % 1013,6 hPa 0,0 l/m² 6,2 km/h (2 Bft) W 266 ° 2 min 427 W/m² 16,6 °C 26,7 °C 12,9 km/h (3 Bft)
22.07.2024 11:44 24,1 °C 26,8 °C 64 % 54 % 1013,5 hPa 0,0 l/m² 14,1 km/h (3 Bft) SW 215 ° 2 min 427 W/m² 16,7 °C 25,6 °C 19,3 km/h (3 Bft)
22.07.2024 11:45 24,1 °C 26,8 °C 64 % 56 % 1013,5 hPa 0,0 l/m² 13,8 km/h (3 Bft) SW 228 ° 1 min 1093 W/m² 17,3 °C 25,6 °C 19,3 km/h (3 Bft)
22.07.2024 11:46 24,1 °C 26,9 °C 64 % 56 % 1013,5 hPa 0,0 l/m² 16,8 km/h (3 Bft) SW 228 ° 1 min 1093 W/m² 17,4 °C 25,4 °C 22,5 km/h (4 Bft)
22.07.2024 11:47 24,1 °C 26,9 °C 64 % 55 % 1013,5 hPa 0,0 l/m² 14,1 km/h (3 Bft) SW 229 ° 1 min 1093 W/m² 17,1 °C 25,7 °C 22,5 km/h (4 Bft)
22.07.2024 11:48 24,1 °C 27,0 °C 64 % 54 % 1013,5 hPa 0,0 l/m² 17,6 km/h (3 Bft) W-SW 246 ° 1 min 336 W/m² 16,9 °C 25,5 °C 24,1 km/h (4 Bft)
22.07.2024 11:49 24,1 °C 27,1 °C 64 % 53 % 1013,6 hPa 0,0 l/m² 15,4 km/h (3 Bft) W 262 ° 1 min 336 W/m² 16,7 °C 25,8 °C 20,9 km/h (4 Bft)
22.07.2024 11:50 24,1 °C 27,1 °C 64 % 54 % 1013,6 hPa 0,0 l/m² 11,5 km/h (2 Bft) W-SW 248 ° 1 min 805 W/m² 17,0 °C 26,3 °C 19,3 km/h (3 Bft)
22.07.2024 11:52 24,1 °C 27,2 °C 64 % 54 % 1013,5 hPa 0,0 l/m² 10,3 km/h (2 Bft) W 262 ° 2 min 1074 W/m² 17,1 °C 26,6 °C 29,0 km/h (5 Bft)
22.07.2024 11:54 24,1 °C 27,3 °C 64 % 52 % 1013,6 hPa 0,0 l/m² 15,4 km/h (3 Bft) W 261 ° 2 min 376 W/m² 16,6 °C 26,1 °C 24,1 km/h (4 Bft)
22.07.2024 11:55 24,1 °C 27,4 °C 64 % 52 % 1013,5 hPa 0,0 l/m² 12,6 km/h (3 Bft) S-SW 212 ° 1 min 809 W/m² 16,7 °C 26,5 °C 19,3 km/h (3 Bft)
22.07.2024 11:56 24,1 °C 27,4 °C 64 % 52 % 1013,5 hPa 0,0 l/m² 13,4 km/h (3 Bft) W 259 ° 1 min 810 W/m² 16,7 °C 26,4 °C 16,1 km/h (3 Bft)
22.07.2024 11:57 24,1 °C 27,4 °C 64 % 52 % 1013,7 hPa 0,0 l/m² 11,5 km/h (2 Bft) W-NW 284 ° 1 min 811 W/m² 16,7 °C 26,6 °C 20,9 km/h (4 Bft)
22.07.2024 11:58 24,1 °C 27,4 °C 64 % 52 % 1013,6 hPa 0,0 l/m² 10,5 km/h (2 Bft) W-SW 237 ° 1 min 457 W/m² 16,7 °C 26,7 °C 19,3 km/h (3 Bft)
22.07.2024 11:59 24,1 °C 27,5 °C 64 % 51 % 1013,6 hPa 0,0 l/m² 13,1 km/h (3 Bft) W-SW 252 ° 1 min 457 W/m² 16,4 °C 26,5 °C 20,9 km/h (4 Bft)
22.07.2024 12:00 24,1 °C 27,5 °C 64 % 50 % 1013,5 hPa 0,0 l/m² 11,3 km/h (2 Bft) W-NW 285 ° 1 min 457 W/m² 16,1 °C 26,8 °C 17,7 km/h (3 Bft)
22.07.2024 12:02 24,1 °C 27,6 °C 64 % 52 % 1013,6 hPa 0,0 l/m² 17,6 km/h (3 Bft) W 277 ° 2 min 418 W/m² 16,8 °C 26,2 °C 24,1 km/h (4 Bft)
22.07.2024 12:04 24,1 °C 27,6 °C 64 % 52 % 1013,6 hPa 0,0 l/m² 17,8 km/h (3 Bft) SW 235 ° 2 min 1123 W/m² 16,8 °C 26,2 °C 22,5 km/h (4 Bft)
22.07.2024 12:05 24,1 °C 27,6 °C 64 % 53 % 1013,6 hPa 0,0 l/m² 11,7 km/h (2 Bft) SW 227 ° 1 min 1123 W/m² 17,1 °C 26,8 °C 19,3 km/h (3 Bft)
22.07.2024 12:06 24,1 °C 27,6 °C 64 % 53 % 1013,5 hPa 0,0 l/m² 18,1 km/h (3 Bft) SW 236 ° 1 min 452 W/m² 17,1 °C 26,2 °C 24,1 km/h (4 Bft)
22.07.2024 12:07 24,1 °C 27,6 °C 64 % 53 % 1013,7 hPa 0,0 l/m² 18,7 km/h (3 Bft) W-SW 242 ° 1 min 654 W/m² 17,1 °C 26,1 °C 27,4 km/h (5 Bft)
22.07.2024 12:08 24,1 °C 27,6 °C 64 % 53 % 1013,7 hPa 0,0 l/m² 18,6 km/h (3 Bft) SW 236 ° 1 min 654 W/m² 17,1 °C 26,1 °C 22,5 km/h (4 Bft)
22.07.2024 12:09 24,1 °C 27,6 °C 64 % 53 % 1013,7 hPa 0,0 l/m² 13,2 km/h (3 Bft) SW 227 ° 1 min 394 W/m² 17,1 °C 26,6 °C 22,5 km/h (4 Bft)
22.07.2024 12:10 24,1 °C 27,6 °C 64 % 54 % 1013,7 hPa 0,0 l/m² 16,6 km/h (3 Bft) SW 221 ° 1 min 394 W/m² 17,4 °C 26,3 °C 20,9 km/h (4 Bft)
22.07.2024 12:12 24,1 °C 27,6 °C 64 % 54 % 1013,7 hPa 0,0 l/m² 11,4 km/h (2 Bft) SW 225 ° 2 min 311 W/m² 17,4 °C 26,9 °C 16,1 km/h (3 Bft)
22.07.2024 12:14 24,1 °C 27,5 °C 64 % 53 % 1013,7 hPa 0,0 l/m² 9,3 km/h (2 Bft) W 263 ° 2 min 288 W/m² 17,0 °C 27,0 °C 19,3 km/h (3 Bft)
22.07.2024 12:15 24,1 °C 27,4 °C 64 % 52 % 1013,7 hPa 0,0 l/m² 15,7 km/h (3 Bft) W-SW 244 ° 1 min 278 W/m² 16,7 °C 26,1 °C 19,3 km/h (3 Bft)
22.07.2024 12:16 24,1 °C 27,4 °C 64 % 51 % 1013,8 hPa 0,0 l/m² 9,4 km/h (2 Bft) W-NW 289 ° 1 min 332 W/m² 16,3 °C 26,9 °C 17,7 km/h (3 Bft)
22.07.2024 12:17 24,1 °C 27,3 °C 64 % 52 % 1013,8 hPa 0,0 l/m² 13,7 km/h (3 Bft) W-SW 240 ° 1 min 274 W/m² 16,6 °C 26,2 °C 20,9 km/h (4 Bft)
22.07.2024 12:18 24,1 °C 27,3 °C 64 % 52 % 1013,9 hPa 0,0 l/m² 20,6 km/h (4 Bft) S-SW 200 ° 1 min 295 W/m² 16,6 °C 25,6 °C 27,4 km/h (5 Bft)
22.07.2024 12:19 24,1 °C 27,2 °C 64 % 53 % 1013,8 hPa 0,0 l/m² 17,1 km/h (3 Bft) W-SW 255 ° 1 min 308 W/m² 16,8 °C 25,8 °C 22,5 km/h (4 Bft)
22.07.2024 12:21 24,1 °C 27,1 °C 64 % 54 % 1013,8 hPa 0,0 l/m² 23,6 km/h (4 Bft) S-SW 211 ° 2 min 1143 W/m² 17,0 °C 25,1 °C 32,2 km/h (5 Bft)
22.07.2024 12:23 24,1 °C 27,1 °C 64 % 53 % 1013,8 hPa 0,0 l/m² 23,0 km/h (4 Bft) W-SW 255 ° 2 min 1136 W/m² 16,7 °C 25,1 °C 32,2 km/h (5 Bft)
22.07.2024 12:24 24,1 °C 27,1 °C 64 % 53 % 1013,9 hPa 0,0 l/m² 21,9 km/h (4 Bft) W-SW 247 ° 1 min 520 W/m² 16,7 °C 25,2 °C 27,4 km/h (5 Bft)
22.07.2024 12:25 24,1 °C 27,1 °C 64 % 53 % 1014,0 hPa 0,0 l/m² 24,3 km/h (4 Bft) SW 236 ° 1 min 360 W/m² 16,7 °C 25,1 °C 27,4 km/h (5 Bft)
22.07.2024 12:26 24,1 °C 27,0 °C 64 % 52 % 1014,0 hPa 0,0 l/m² 25,1 km/h (4 Bft) SW 227 ° 1 min 346 W/m² 16,3 °C 24,9 °C 32,2 km/h (5 Bft)
22.07.2024 12:27 24,1 °C 27,0 °C 64 % 52 % 1014,0 hPa 0,0 l/m² 23,7 km/h (4 Bft) W-SW 250 ° 1 min 353 W/m² 16,3 °C 25,0 °C 30,6 km/h (5 Bft)
22.07.2024 12:28 24,1 °C 27,0 °C 64 % 53 % 1014,1 hPa 0,0 l/m² 15,1 km/h (3 Bft) W-SW 240 ° 1 min 353 W/m² 16,6 °C 25,7 °C 22,5 km/h (4 Bft)
22.07.2024 12:29 24,1 °C 27,0 °C 64 % 53 % 1014,2 hPa 0,0 l/m² 16,7 km/h (3 Bft) SW 215 ° 1 min 353 W/m² 16,6 °C 25,6 °C 22,5 km/h (4 Bft)
22.07.2024 12:31 24,1 °C 26,9 °C 64 % 53 % 1013,9 hPa 0,0 l/m² 20,8 km/h (4 Bft) S-SW 209 ° 2 min 360 W/m² 16,5 °C 25,1 °C 27,4 km/h (5 Bft)
22.07.2024 12:33 24,1 °C 26,9 °C 64 % 53 % 1013,9 hPa 0,0 l/m² 18,6 km/h (3 Bft) SW 233 ° 2 min 434 W/m² 16,5 °C 25,2 °C 29,0 km/h (5 Bft)
22.07.2024 12:34 24,1 °C 26,9 °C 64 % 53 % 1013,7 hPa 0,0 l/m² 18,5 km/h (3 Bft) W-SW 257 ° 1 min 288 W/m² 16,5 °C 25,3 °C 29,0 km/h (5 Bft)
22.07.2024 12:35 24,1 °C 26,8 °C 64 % 53 % 1013,8 hPa 0,0 l/m² 15,9 km/h (3 Bft) W-SW 254 ° 1 min 265 W/m² 16,4 °C 25,4 °C 22,5 km/h (4 Bft)
22.07.2024 12:36 24,1 °C 26,8 °C 64 % 53 % 1013,8 hPa 0,0 l/m² 11,0 km/h (2 Bft) W-NW 283 ° 1 min 253 W/m² 16,4 °C 26,0 °C 16,1 km/h (3 Bft)
22.07.2024 12:37 24,1 °C 26,8 °C 64 % 54 % 1013,9 hPa 0,0 l/m² 6,8 km/h (2 Bft) W 262 ° 1 min 250 W/m² 16,7 °C 26,7 °C 22,5 km/h (4 Bft)
22.07.2024 12:38 24,1 °C 26,7 °C 64 % 54 % 1013,9 hPa 0,0 l/m² 10,5 km/h (2 Bft) NW 307 ° 1 min 257 W/m² 16,6 °C 26,0 °C 19,3 km/h (3 Bft)
22.07.2024 12:39 24,1 °C 26,7 °C 64 % 54 % 1014,0 hPa 0,0 l/m² 6,4 km/h (2 Bft) W-NW 296 ° 1 min 255 W/m² 16,6 °C 26,7 °C 12,9 km/h (3 Bft)
22.07.2024 12:41 24,1 °C 26,6 °C 64 % 54 % 1014,1 hPa 0,0 l/m² 12,6 km/h (3 Bft) W-NW 288 ° 2 min 253 W/m² 16,5 °C 25,5 °C 19,3 km/h (3 Bft)
22.07.2024 12:43 24,1 °C 26,5 °C 64 % 54 % 1014,1 hPa 0,0 l/m² 11,1 km/h (2 Bft) NW 304 ° 2 min 246 W/m² 16,4 °C 25,6 °C 19,3 km/h (3 Bft)
22.07.2024 12:44 24,1 °C 26,4 °C 64 % 54 % 1014,1 hPa 0,0 l/m² 7,9 km/h (2 Bft) W-NW 302 ° 1 min 248 W/m² 16,3 °C 26,1 °C 16,1 km/h (3 Bft)
22.07.2024 12:46 24,1 °C 26,4 °C 64 % 55 % 1014,1 hPa 0,0 l/m² 7,9 km/h (2 Bft) W-SW 246 ° 2 min 250 W/m² 16,6 °C 26,1 °C 22,5 km/h (4 Bft)
22.07.2024 12:47 24,1 °C 26,4 °C 64 % 55 % 1014,2 hPa 0,0 l/m² 11,4 km/h (2 Bft) W-NW 294 ° 1 min 236 W/m² 16,6 °C 25,5 °C 17,7 km/h (3 Bft)
22.07.2024 12:48 24,1 °C 26,3 °C 64 % 54 % 1014,2 hPa 0,0 l/m² 10,2 km/h (2 Bft) W-NW 287 ° 1 min 269 W/m² 16,2 °C 25,6 °C 17,7 km/h (3 Bft)
22.07.2024 12:49 24,1 °C 26,3 °C 64 % 54 % 1014,2 hPa 0,0 l/m² 9,0 km/h (2 Bft) W-NW 299 ° 1 min 269 W/m² 16,2 °C 25,8 °C 16,1 km/h (3 Bft)
22.07.2024 12:51 24,2 °C 26,2 °C 64 % 54 % 1014,1 hPa 0,0 l/m² 8,4 km/h (2 Bft) W 273 ° 2 min 295 W/m² 16,1 °C 25,8 °C 16,1 km/h (3 Bft)
22.07.2024 12:53 24,1 °C 26,2 °C 64 % 54 % 1014,1 hPa 0,0 l/m² 8,1 km/h (2 Bft) W-NW 288 ° 2 min 295 W/m² 16,1 °C 25,8 °C 20,9 km/h (4 Bft)
22.07.2024 12:54 24,1 °C 26,2 °C 64 % 54 % 1014,2 hPa 0,0 l/m² 9,1 km/h (2 Bft) W 271 ° 1 min 318 W/m² 16,1 °C 25,6 °C 17,7 km/h (3 Bft)
22.07.2024 12:55 24,1 °C 26,2 °C 64 % 54 % 1014,3 hPa 0,0 l/m² 14,9 km/h (3 Bft) W-SW 254 ° 1 min 318 W/m² 16,1 °C 24,8 °C 17,7 km/h (3 Bft)
22.07.2024 12:56 24,1 °C 26,1 °C 64 % 54 % 1014,3 hPa 0,0 l/m² 13,8 km/h (3 Bft) W 260 ° 1 min 318 W/m² 16,0 °C 24,8 °C 17,7 km/h (3 Bft)
22.07.2024 12:57 24,1 °C 26,1 °C 64 % 54 % 1014,3 hPa 0,0 l/m² 10,0 km/h (2 Bft) SW 226 ° 1 min 636 W/m² 16,0 °C 25,4 °C 14,5 km/h (3 Bft)
22.07.2024 12:58 24,1 °C 26,1 °C 64 % 55 % 1014,3 hPa 0,0 l/m² 6,1 km/h (2 Bft) W-SW 240 ° 1 min 636 W/m² 16,3 °C 26,1 °C 11,3 km/h (2 Bft)
22.07.2024 12:59 24,1 °C 26,1 °C 64 % 56 % 1014,2 hPa 0,0 l/m² 8,4 km/h (2 Bft) W 267 ° 1 min 636 W/m² 16,6 °C 25,7 °C 14,5 km/h (3 Bft)
22.07.2024 13:01 24,1 °C 26,2 °C 64 % 56 % 1014,2 hPa 0,0 l/m² 8,6 km/h (2 Bft) W 276 ° 2 min 1021 W/m² 16,7 °C 25,7 °C 19,3 km/h (3 Bft)
22.07.2024 13:03 24,1 °C 26,2 °C 64 % 54 % 1014,3 hPa 0,0 l/m² 13,9 km/h (3 Bft) W-NW 282 ° 2 min 1021 W/m² 16,1 °C 24,9 °C 20,9 km/h (4 Bft)
22.07.2024 13:04 24,1 °C 26,2 °C 64 % 54 % 1014,3 hPa 0,0 l/m² 6,7 km/h (2 Bft) W-SW 254 ° 1 min 1021 W/m² 16,1 °C 26,1 °C 16,1 km/h (3 Bft)
22.07.2024 13:05 24,1 °C 26,2 °C 64 % 55 % 1014,3 hPa 0,0 l/m² 16,7 km/h (3 Bft) W 262 ° 1 min 1069 W/m² 16,4 °C 24,6 °C 25,7 km/h (4 Bft)
22.07.2024 13:06 24,1 °C 26,2 °C 64 % 54 % 1014,3 hPa 0,0 l/m² 11,1 km/h (2 Bft) W-SW 254 ° 1 min 299 W/m² 16,1 °C 25,3 °C 16,1 km/h (3 Bft)
22.07.2024 13:07 24,1 °C 26,2 °C 64 % 54 % 1014,3 hPa 0,0 l/m² 12,7 km/h (3 Bft) W-SW 246 ° 1 min 274 W/m² 16,1 °C 25,1 °C 17,7 km/h (3 Bft)
22.07.2024 13:08 24,1 °C 26,2 °C 64 % 54 % 1014,3 hPa 0,0 l/m² 12,3 km/h (2 Bft) W 265 ° 1 min 269 W/m² 16,1 °C 25,1 °C 17,7 km/h (3 Bft)
22.07.2024 13:09 24,1 °C 26,2 °C 64 % 54 % 1014,3 hPa 0,0 l/m² 10,5 km/h (2 Bft) W 276 ° 1 min 285 W/m² 16,1 °C 25,4 °C 19,3 km/h (3 Bft)
22.07.2024 13:11 24,2 °C 26,2 °C 64 % 54 % 1014,3 hPa 0,0 l/m² 13,9 km/h (3 Bft) W-NW 294 ° 2 min 274 W/m² 16,1 °C 24,9 °C 22,5 km/h (4 Bft)
22.07.2024 13:13 24,2 °C 26,1 °C 64 % 53 % 1014,3 hPa 0,0 l/m² 6,7 km/h (2 Bft) W-SW 249 ° 2 min 287 W/m² 15,8 °C 26,0 °C 12,9 km/h (3 Bft)
22.07.2024 13:14 24,1 °C 26,1 °C 64 % 54 % 1014,2 hPa 0,0 l/m² 5,5 km/h (2 Bft) W-SW 254 ° 1 min 287 W/m² 16,0 °C 26,1 °C 9,7 km/h (2 Bft)
22.07.2024 13:15 24,1 °C 26,1 °C 64 % 53 % 1014,3 hPa 0,0 l/m² 5,0 km/h (1 Bft) W-SW 245 ° 1 min 281 W/m² 15,8 °C 26,1 °C 11,3 km/h (2 Bft)
22.07.2024 13:16 24,1 °C 26,1 °C 64 % 53 % 1014,3 hPa 0,0 l/m² 12,0 km/h (2 Bft) W 267 ° 1 min 279 W/m² 15,8 °C 25,1 °C 19,3 km/h (3 Bft)
22.07.2024 13:17 24,1 °C 26,1 °C 64 % 53 % 1014,3 hPa 0,0 l/m² 10,3 km/h (2 Bft) W 261 ° 1 min 288 W/m² 15,8 °C 25,3 °C 19,3 km/h (3 Bft)
22.07.2024 13:18 24,1 °C 26,1 °C 64 % 54 % 1014,3 hPa 0,0 l/m² 11,7 km/h (2 Bft) W-SW 254 ° 1 min 281 W/m² 16,0 °C 25,1 °C 19,3 km/h (3 Bft)
22.07.2024 13:19 24,1 °C 26,1 °C 64 % 54 % 1014,3 hPa 0,0 l/m² 8,2 km/h (2 Bft) W-SW 248 ° 1 min 279 W/m² 16,0 °C 25,7 °C 12,9 km/h (3 Bft)
22.07.2024 13:21 24,1 °C 26,0 °C 64 % 55 % 1014,3 hPa 0,0 l/m² 6,4 km/h (2 Bft) W-SW 244 ° 2 min 292 W/m² 16,2 °C 26,0 °C 12,9 km/h (3 Bft)
22.07.2024 13:23 24,1 °C 25,9 °C 64 % 55 % 1014,4 hPa 0,0 l/m² 7,4 km/h (2 Bft) W 267 ° 2 min 330 W/m² 16,2 °C 25,7 °C 14,5 km/h (3 Bft)
22.07.2024 13:24 24,1 °C 25,9 °C 64 % 55 % 1014,4 hPa 0,0 l/m² 8,5 km/h (2 Bft) W-NW 282 ° 1 min 357 W/m² 16,2 °C 25,4 °C 12,9 km/h (3 Bft)
22.07.2024 13:25 24,1 °C 25,9 °C 64 % 55 % 1014,4 hPa 0,0 l/m² 12,7 km/h (3 Bft) W-SW 252 ° 1 min 334 W/m² 16,2 °C 24,7 °C 19,3 km/h (3 Bft)
22.07.2024 13:26 24,1 °C 25,9 °C 64 % 55 % 1014,3 hPa 0,0 l/m² 11,0 km/h (2 Bft) W 279 ° 1 min 345 W/m² 16,2 °C 25,0 °C 17,7 km/h (3 Bft)
22.07.2024 13:27 24,1 °C 25,9 °C 64 % 55 % 1014,4 hPa 0,0 l/m² 14,0 km/h (3 Bft) N-NW 331 ° 1 min 345 W/m² 16,2 °C 24,5 °C 19,3 km/h (3 Bft)
22.07.2024 13:28 24,1 °C 25,9 °C 64 % 56 % 1014,4 hPa 0,0 l/m² 9,3 km/h (2 Bft) W 279 ° 1 min 847 W/m² 16,4 °C 25,3 °C 16,1 km/h (3 Bft)
22.07.2024 13:29 24,1 °C 25,9 °C 64 % 55 % 1014,4 hPa 0,0 l/m² 13,5 km/h (3 Bft) W 269 ° 1 min 288 W/m² 16,2 °C 24,6 °C 19,3 km/h (3 Bft)
22.07.2024 13:31 24,1 °C 25,9 °C 64 % 56 % 1014,5 hPa 0,0 l/m² 9,4 km/h (2 Bft) W-NW 283 ° 2 min 308 W/m² 16,4 °C 25,3 °C 22,5 km/h (4 Bft)
22.07.2024 13:33 24,1 °C 25,9 °C 64 % 55 % 1014,5 hPa 0,0 l/m² 6,1 km/h (2 Bft) W-SW 253 ° 2 min 295 W/m² 16,2 °C 25,9 °C 14,5 km/h (3 Bft)
22.07.2024 13:34 24,1 °C 25,8 °C 64 % 56 % 1014,5 hPa 0,0 l/m² 8,3 km/h (2 Bft) N-NW 340 ° 1 min 304 W/m² 16,3 °C 25,4 °C 17,7 km/h (3 Bft)
22.07.2024 13:35 24,1 °C 25,9 °C 64 % 55 % 1014,5 hPa 0,0 l/m² 5,1 km/h (1 Bft) W-NW 298 ° 1 min 313 W/m² 16,2 °C 25,9 °C 8,0 km/h (2 Bft)
22.07.2024 13:36 24,1 °C 25,8 °C 64 % 56 % 1014,5 hPa 0,0 l/m² 4,7 km/h (1 Bft) W-NW 284 ° 1 min 306 W/m² 16,3 °C 25,8 °C 9,7 km/h (2 Bft)
22.07.2024 13:37 24,1 °C 25,9 °C 64 % 56 % 1014,5 hPa 0,0 l/m² 3,9 km/h (1 Bft) W-NW 301 ° 1 min 294 W/m² 16,4 °C 25,9 °C 6,4 km/h (2 Bft)
22.07.2024 13:38 24,1 °C 25,8 °C 64 % 56 % 1014,5 hPa 0,0 l/m² 3,3 km/h (1 Bft) W-NW 299 ° 1 min 287 W/m² 16,3 °C 25,8 °C 8,0 km/h (2 Bft)
22.07.2024 13:39 24,1 °C 25,8 °C 64 % 56 % 1014,4 hPa 0,0 l/m² 1,8 km/h (1 Bft) NW 305 ° 1 min 290 W/m² 16,3 °C 25,8 °C 4,8 km/h (1 Bft)
22.07.2024 13:41 24,1 °C 25,8 °C 64 % 56 % 1014,4 hPa 0,0 l/m² 4,8 km/h (1 Bft) W-SW 254 ° 2 min 378 W/m² 16,3 °C 25,8 °C 9,7 km/h (2 Bft)
22.07.2024 13:43 24,1 °C 25,8 °C 64 % 57 % 1014,5 hPa 0,0 l/m² 4,4 km/h (1 Bft) W-NW 286 ° 2 min 406 W/m² 16,6 °C 25,8 °C 14,5 km/h (3 Bft)
22.07.2024 13:44 24,1 °C 25,9 °C 64 % 55 % 1014,6 hPa 0,0 l/m² 7,2 km/h (2 Bft) W 260 ° 1 min 404 W/m² 16,2 °C 25,7 °C 12,9 km/h (3 Bft)
22.07.2024 13:45 24,2 °C 25,9 °C 64 % 55 % 1014,5 hPa 0,0 l/m² 7,2 km/h (2 Bft) N-NW 327 ° 1 min 499 W/m² 16,2 °C 25,7 °C 22,5 km/h (4 Bft)
22.07.2024 13:46 24,1 °C 25,9 °C 64 % 56 % 1014,5 hPa 0,0 l/m² 11,7 km/h (2 Bft) W 281 ° 1 min 499 W/m² 16,4 °C 24,9 °C 19,3 km/h (3 Bft)
22.07.2024 13:47 24,1 °C 25,9 °C 64 % 55 % 1014,5 hPa 0,0 l/m² 10,0 km/h (2 Bft) NW 323 ° 1 min 404 W/m² 16,2 °C 25,2 °C 14,5 km/h (3 Bft)
22.07.2024 13:48 24,2 °C 25,9 °C 64 % 56 % 1014,6 hPa 0,0 l/m² 5,8 km/h (2 Bft) W 273 ° 1 min 438 W/m² 16,4 °C 25,9 °C 12,9 km/h (3 Bft)
22.07.2024 13:49 24,1 °C 25,9 °C 64 % 55 % 1014,6 hPa 0,0 l/m² 9,9 km/h (2 Bft) NW 315 ° 1 min 438 W/m² 16,2 °C 25,2 °C 16,1 km/h (3 Bft)
22.07.2024 13:51 24,1 °C 26,0 °C 64 % 55 % 1014,6 hPa 0,0 l/m² 8,4 km/h (2 Bft) W-NW 283 ° 2 min 381 W/m² 16,2 °C 25,6 °C 17,7 km/h (3 Bft)
22.07.2024 13:53 24,2 °C 25,9 °C 64 % 55 % 1014,6 hPa 0,0 l/m² 10,1 km/h (2 Bft) W-SW 255 ° 2 min 338 W/m² 16,2 °C 25,1 °C 17,7 km/h (3 Bft)
22.07.2024 13:54 24,1 °C 26,0 °C 64 % 54 % 1014,7 hPa 0,0 l/m² 11,0 km/h (2 Bft) W-NW 285 ° 1 min 357 W/m² 16,0 °C 25,1 °C 16,1 km/h (3 Bft)
22.07.2024 13:55 24,1 °C 26,0 °C 64 % 55 % 1014,6 hPa 0,0 l/m² 11,3 km/h (2 Bft) W-NW 286 ° 1 min 357 W/m² 16,2 °C 25,0 °C 19,3 km/h (3 Bft)
22.07.2024 13:56 24,1 °C 25,9 °C 64 % 54 % 1014,6 hPa 0,0 l/m² 8,4 km/h (2 Bft) W 267 ° 1 min 357 W/m² 15,9 °C 25,5 °C 16,1 km/h (3 Bft)
22.07.2024 13:57 24,1 °C 25,9 °C 64 % 54 % 1014,6 hPa 0,0 l/m² 9,2 km/h (2 Bft) W-NW 297 ° 1 min 357 W/m² 15,9 °C 25,3 °C 14,5 km/h (3 Bft)
22.07.2024 13:58 24,1 °C 25,9 °C 64 % 55 % 1014,6 hPa 0,0 l/m² 5,5 km/h (2 Bft) W 273 ° 1 min 357 W/m² 16,2 °C 25,9 °C 12,9 km/h (3 Bft)
22.07.2024 13:59 24,2 °C 26,0 °C 64 % 55 % 1014,6 hPa 0,0 l/m² 5,6 km/h (2 Bft) N-NW 336 ° 1 min 357 W/m² 16,2 °C 26,0 °C 12,9 km/h (3 Bft)
22.07.2024 14:01 24,1 °C 26,1 °C 64 % 54 % 1014,6 hPa 0,0 l/m² 8,3 km/h (2 Bft) NW 323 ° 2 min 311 W/m² 16,0 °C 25,7 °C 22,5 km/h (4 Bft)
22.07.2024 14:03 24,2 °C 26,1 °C 64 % 55 % 1014,6 hPa 0,0 l/m² 5,5 km/h (2 Bft) NW 321 ° 2 min 320 W/m² 16,3 °C 26,1 °C 11,3 km/h (2 Bft)
22.07.2024 14:04 24,1 °C 26,1 °C 64 % 54 % 1014,6 hPa 0,0 l/m² 7,2 km/h (2 Bft) W 271 ° 1 min 251 W/m² 16,0 °C 25,9 °C 14,5 km/h (3 Bft)
22.07.2024 14:05 24,1 °C 26,1 °C 64 % 53 % 1014,6 hPa 0,0 l/m² 11,7 km/h (2 Bft) W 263 ° 1 min 241 W/m² 15,8 °C 25,1 °C 20,9 km/h (4 Bft)
22.07.2024 14:06 24,1 °C 26,1 °C 64 % 53 % 1014,7 hPa 0,0 l/m² 8,0 km/h (2 Bft) W-SW 255 ° 1 min 232 W/m² 15,8 °C 25,8 °C 11,3 km/h (2 Bft)
22.07.2024 14:07 24,1 °C 26,1 °C 64 % 53 % 1014,7 hPa 0,0 l/m² 7,3 km/h (2 Bft) NW 309 ° 1 min 234 W/m² 15,8 °C 25,9 °C 12,9 km/h (3 Bft)
22.07.2024 14:08 24,1 °C 26,0 °C 64 % 53 % 1014,7 hPa 0,0 l/m² 4,9 km/h (1 Bft) W-NW 284 ° 1 min 237 W/m² 15,7 °C 26,0 °C 9,7 km/h (2 Bft)
22.07.2024 14:09 24,2 °C 26,0 °C 64 % 53 % 1014,7 hPa 0,0 l/m² 5,2 km/h (1 Bft) W-NW 298 ° 1 min 246 W/m² 15,7 °C 26,0 °C 8,0 km/h (2 Bft)
22.07.2024 14:11 24,1 °C 25,9 °C 64 % 54 % 1014,7 hPa 0,0 l/m² 7,1 km/h (2 Bft) N-NW 331 ° 2 min 260 W/m² 15,9 °C 25,7 °C 12,9 km/h (3 Bft)
22.07.2024 14:13 24,1 °C 25,9 °C 64 % 53 % 1014,7 hPa 0,0 l/m² 10,6 km/h (2 Bft) W-SW 255 ° 2 min 255 W/m² 15,6 °C 25,1 °C 20,9 km/h (4 Bft)
22.07.2024 14:14 24,1 °C 25,9 °C 64 % 53 % 1014,7 hPa 0,0 l/m² 4,3 km/h (1 Bft) W 273 ° 1 min 248 W/m² 15,6 °C 25,9 °C 9,7 km/h (2 Bft)
22.07.2024 14:15 24,1 °C 25,8 °C 64 % 53 % 1014,7 hPa 0,0 l/m² 4,3 km/h (1 Bft) W 277 ° 1 min 251 W/m² 15,5 °C 25,8 °C 11,3 km/h (2 Bft)
22.07.2024 14:16 24,1 °C 25,8 °C 64 % 53 % 1014,8 hPa 0,0 l/m² 1,9 km/h (1 Bft) NW 317 ° 1 min 279 W/m² 15,5 °C 25,8 °C 8,0 km/h (2 Bft)
22.07.2024 14:17 24,1 °C 25,8 °C 64 % 54 % 1014,8 hPa 0,0 l/m² 7,6 km/h (2 Bft) N-NW 330 ° 1 min 905 W/m² 15,8 °C 25,5 °C 16,1 km/h (3 Bft)
22.07.2024 14:18 24,1 °C 25,9 °C 64 % 55 % 1014,7 hPa 0,0 l/m² 7,0 km/h (2 Bft) NW 307 ° 1 min 905 W/m² 16,2 °C 25,8 °C 11,3 km/h (2 Bft)
22.07.2024 14:19 24,1 °C 25,8 °C 64 % 54 % 1014,7 hPa 0,0 l/m² 6,5 km/h (2 Bft) NW 314 ° 1 min 299 W/m² 15,8 °C 25,8 °C 12,9 km/h (3 Bft)
22.07.2024 14:21 24,2 °C 25,9 °C 64 % 53 % 1014,8 hPa 0,0 l/m² 10,3 km/h (2 Bft) NW 310 ° 2 min 297 W/m² 15,6 °C 25,1 °C 20,9 km/h (4 Bft)
22.07.2024 14:23 24,2 °C 25,9 °C 64 % 54 % 1014,8 hPa 0,0 l/m² 13,9 km/h (3 Bft) W 279 ° 2 min 297 W/m² 15,9 °C 24,5 °C 20,9 km/h (4 Bft)
22.07.2024 14:24 24,1 °C 25,8 °C 64 % 52 % 1014,8 hPa 0,0 l/m² 12,4 km/h (2 Bft) W-NW 303 ° 1 min 294 W/m² 15,2 °C 24,6 °C 24,1 km/h (4 Bft)
22.07.2024 14:25 24,1 °C 25,8 °C 64 % 53 % 1014,8 hPa 0,0 l/m² 6,9 km/h (2 Bft) NW 318 ° 1 min 278 W/m² 15,5 °C 25,7 °C 12,9 km/h (3 Bft)
22.07.2024 14:26 24,1 °C 25,8 °C 64 % 53 % 1014,8 hPa 0,0 l/m² 5,5 km/h (2 Bft) W-NW 294 ° 1 min 265 W/m² 15,5 °C 25,8 °C 8,0 km/h (2 Bft)
22.07.2024 14:27 24,1 °C 25,8 °C 64 % 54 % 1014,9 hPa 0,0 l/m² 5,0 km/h (1 Bft) W-NW 289 ° 1 min 251 W/m² 15,8 °C 25,8 °C 9,7 km/h (2 Bft)
22.07.2024 14:28 24,1 °C 25,8 °C 64 % 53 % 1014,8 hPa 0,0 l/m² 4,3 km/h (1 Bft) W-SW 244 ° 1 min 237 W/m² 15,5 °C 25,8 °C 6,4 km/h (2 Bft)
22.07.2024 14:29 24,1 °C 25,8 °C 64 % 53 % 1014,8 hPa 0,0 l/m² 7,7 km/h (2 Bft) W-SW 248 ° 1 min 239 W/m² 15,5 °C 25,5 °C 14,5 km/h (3 Bft)
22.07.2024 14:31 24,2 °C 25,7 °C 64 % 53 % 1014,8 hPa 0,0 l/m² 9,2 km/h (2 Bft) W-SW 240 ° 2 min 246 W/m² 15,4 °C 25,1 °C 16,1 km/h (3 Bft)
22.07.2024 14:33 24,1 °C 25,7 °C 64 % 53 % 1014,8 hPa 0,0 l/m² 8,0 km/h (2 Bft) W-SW 247 ° 2 min 267 W/m² 15,4 °C 25,3 °C 14,5 km/h (3 Bft)
22.07.2024 14:34 24,1 °C 25,7 °C 64 % 53 % 1014,9 hPa 0,0 l/m² 4,6 km/h (1 Bft) W-NW 286 ° 1 min 285 W/m² 15,4 °C 25,7 °C 11,3 km/h (2 Bft)
22.07.2024 14:35 24,2 °C 25,7 °C 64 % 54 % 1014,9 hPa 0,0 l/m² 6,6 km/h (2 Bft) W-SW 252 ° 1 min 285 W/m² 15,7 °C 25,7 °C 16,1 km/h (3 Bft)
22.07.2024 14:36 24,1 °C 25,7 °C 64 % 54 % 1014,8 hPa 0,0 l/m² 10,5 km/h (2 Bft) W-SW 257 ° 1 min 353 W/m² 15,7 °C 24,8 °C 16,1 km/h (3 Bft)
22.07.2024 14:37 24,1 °C 25,7 °C 64 % 53 % 1014,8 hPa 0,0 l/m² 9,7 km/h (2 Bft) W 265 ° 1 min 353 W/m² 15,4 °C 25,0 °C 17,7 km/h (3 Bft)
22.07.2024 14:38 24,1 °C 25,7 °C 64 % 54 % 1014,8 hPa 0,0 l/m² 4,7 km/h (1 Bft) W 261 ° 1 min 353 W/m² 15,7 °C 25,7 °C 9,7 km/h (2 Bft)
22.07.2024 14:39 24,1 °C 25,7 °C 64 % 53 % 1014,9 hPa 0,0 l/m² 7,2 km/h (2 Bft) W-SW 255 ° 1 min 334 W/m² 15,4 °C 25,5 °C 11,3 km/h (2 Bft)
22.07.2024 14:41 24,1 °C 25,7 °C 64 % 54 % 1014,9 hPa 0,0 l/m² 6,0 km/h (2 Bft) W-NW 288 ° 2 min 292 W/m² 15,7 °C 25,7 °C 14,5 km/h (3 Bft)
22.07.2024 14:43 24,1 °C 25,7 °C 64 % 53 % 1014,9 hPa 0,0 l/m² 7,4 km/h (2 Bft) W-SW 238 ° 2 min 332 W/m² 15,4 °C 25,5 °C 14,5 km/h (3 Bft)
22.07.2024 14:44 24,1 °C 25,7 °C 64 % 52 % 1014,9 hPa 0,0 l/m² 7,8 km/h (2 Bft) W 280 ° 1 min 332 W/m² 15,1 °C 25,4 °C 19,3 km/h (3 Bft)
22.07.2024 14:45 24,1 °C 25,7 °C 64 % 53 % 1014,9 hPa 0,0 l/m² 12,2 km/h (2 Bft) W-SW 237 ° 1 min 283 W/m² 15,4 °C 24,6 °C 20,9 km/h (4 Bft)
22.07.2024 14:46 24,1 °C 25,7 °C 64 % 51 % 1014,9 hPa 0,0 l/m² 10,9 km/h (2 Bft) W-NW 292 ° 1 min 283 W/m² 14,8 °C 24,8 °C 16,1 km/h (3 Bft)
22.07.2024 14:47 24,1 °C 25,7 °C 64 % 52 % 1014,9 hPa 0,0 l/m² 8,5 km/h (2 Bft) NW 315 ° 1 min 1005 W/m² 15,1 °C 25,2 °C 17,7 km/h (3 Bft)
22.07.2024 14:48 24,1 °C 25,8 °C 64 % 53 % 1014,9 hPa 0,0 l/m² 11,4 km/h (2 Bft) W 279 ° 1 min 1002 W/m² 15,5 °C 24,8 °C 16,1 km/h (3 Bft)
22.07.2024 14:49 24,1 °C 25,8 °C 64 % 54 % 1014,9 hPa 0,0 l/m² 12,1 km/h (2 Bft) W-NW 298 ° 1 min 1044 W/m² 15,8 °C 24,7 °C 22,5 km/h (4 Bft)
22.07.2024 14:51 24,1 °C 25,9 °C 64 % 51 % 1014,9 hPa 0,0 l/m² 11,5 km/h (2 Bft) W-SW 242 ° 2 min 265 W/m² 15,0 °C 24,9 °C 24,1 km/h (4 Bft)
22.07.2024 14:53 24,1 °C 25,9 °C 64 % 52 % 1015,0 hPa 0,0 l/m² 8,4 km/h (2 Bft) W-NW 300 ° 2 min 265 W/m² 15,3 °C 25,5 °C 16,1 km/h (3 Bft)
22.07.2024 14:54 24,1 °C 26,0 °C 64 % 53 % 1015,0 hPa 0,0 l/m² 14,1 km/h (3 Bft) W 281 ° 1 min 835 W/m² 15,7 °C 24,6 °C 24,1 km/h (4 Bft)
22.07.2024 14:55 24,1 °C 26,1 °C 64 % 51 % 1014,9 hPa 0,0 l/m² 9,8 km/h (2 Bft) W 260 ° 1 min 835 W/m² 15,2 °C 25,4 °C 14,5 km/h (3 Bft)
22.07.2024 14:56 24,1 °C 26,1 °C 64 % 51 % 1015,0 hPa 0,0 l/m² 5,0 km/h (1 Bft) W 263 ° 1 min 835 W/m² 15,2 °C 26,1 °C 12,9 km/h (3 Bft)
22.07.2024 14:57 24,2 °C 26,1 °C 64 % 52 % 1015,0 hPa 0,0 l/m² 12,9 km/h (3 Bft) SW 223 ° 1 min 835 W/m² 15,5 °C 24,9 °C 22,5 km/h (4 Bft)
22.07.2024 14:58 24,2 °C 26,1 °C 64 % 52 % 1015,0 hPa 0,0 l/m² 12,9 km/h (3 Bft) W-SW 248 ° 1 min 835 W/m² 15,5 °C 24,9 °C 29,0 km/h (5 Bft)
22.07.2024 14:59 24,1 °C 26,2 °C 64 % 52 % 1015,0 hPa 0,0 l/m² 9,6 km/h (2 Bft) W 272 ° 1 min 990 W/m² 15,6 °C 25,6 °C 14,5 km/h (3 Bft)
22.07.2024 15:01 24,1 °C 26,3 °C 64 % 52 % 1015,0 hPa 0,0 l/m² 9,8 km/h (2 Bft) W-SW 251 ° 2 min 1013 W/m² 15,6 °C 25,6 °C 17,7 km/h (3 Bft)
22.07.2024 15:03 24,1 °C 26,4 °C 64 % 50 % 1015,0 hPa 0,0 l/m² 10,7 km/h (2 Bft) W-SW 248 ° 2 min 1013 W/m² 15,1 °C 25,6 °C 17,7 km/h (3 Bft)
22.07.2024 15:04 24,1 °C 26,5 °C 64 % 51 % 1015,0 hPa 0,0 l/m² 11,9 km/h (2 Bft) W-NW 299 ° 1 min 1013 W/m² 15,5 °C 25,5 °C 19,3 km/h (3 Bft)
22.07.2024 15:05 24,1 °C 26,6 °C 64 % 50 % 1015,0 hPa 0,0 l/m² 12,2 km/h (2 Bft) W-NW 293 ° 1 min 336 W/m² 15,3 °C 25,6 °C 17,7 km/h (3 Bft)
22.07.2024 15:06 24,1 °C 26,6 °C 64 % 50 % 1015,0 hPa 0,0 l/m² 11,3 km/h (2 Bft) W 271 ° 1 min 292 W/m² 15,3 °C 25,7 °C 24,1 km/h (4 Bft)
22.07.2024 15:07 24,1 °C 26,6 °C 64 % 49 % 1015,1 hPa 0,0 l/m² 10,1 km/h (2 Bft) W 261 ° 1 min 292 W/m² 15,0 °C 25,9 °C 16,1 km/h (3 Bft)
22.07.2024 15:08 24,1 °C 26,6 °C 64 % 49 % 1015,1 hPa 0,0 l/m² 5,3 km/h (1 Bft) NW 309 ° 1 min 279 W/m² 15,0 °C 26,6 °C 11,3 km/h (2 Bft)
22.07.2024 15:09 24,1 °C 26,6 °C 64 % 50 % 1015,0 hPa 0,0 l/m² 6,2 km/h (2 Bft) NW 315 ° 1 min 345 W/m² 15,3 °C 26,6 °C 12,9 km/h (3 Bft)
22.07.2024 15:11 24,1 °C 26,7 °C 64 % 49 % 1015,0 hPa 0,0 l/m² 2,4 km/h (1 Bft) W-SW 252 ° 2 min 294 W/m² 15,1 °C 26,7 °C 11,3 km/h (2 Bft)
22.07.2024 15:13 24,1 °C 26,6 °C 64 % 49 % 1015,0 hPa 0,0 l/m² 9,9 km/h (2 Bft) NW 312 ° 2 min 285 W/m² 15,0 °C 25,9 °C 20,9 km/h (4 Bft)
22.07.2024 15:14 24,1 °C 26,6 °C 64 % 49 % 1015,1 hPa 0,0 l/m² 8,0 km/h (2 Bft) W 270 ° 1 min 285 W/m² 15,0 °C 26,3 °C 12,9 km/h (3 Bft)
22.07.2024 15:15 24,1 °C 26,6 °C 64 % 50 % 1015,0 hPa 0,0 l/m² 10,3 km/h (2 Bft) NW 307 ° 1 min 313 W/m² 15,3 °C 25,9 °C 16,1 km/h (3 Bft)
22.07.2024 15:16 24,2 °C 26,6 °C 64 % 50 % 1015,1 hPa 0,0 l/m² 7,4 km/h (2 Bft) N-NW 337 ° 1 min 302 W/m² 15,3 °C 26,4 °C 14,5 km/h (3 Bft)
22.07.2024 15:17 24,1 °C 26,5 °C 64 % 50 % 1015,1 hPa 0,0 l/m² 8,4 km/h (2 Bft) W-NW 284 ° 1 min 295 W/m² 15,2 °C 26,1 °C 14,5 km/h (3 Bft)
22.07.2024 15:18 24,2 °C 26,5 °C 64 % 50 % 1015,1 hPa 0,0 l/m² 13,5 km/h (3 Bft) N-NW 344 ° 1 min 295 W/m² 15,2 °C 25,3 °C 17,7 km/h (3 Bft)
22.07.2024 15:19 24,1 °C 26,5 °C 64 % 49 % 1015,1 hPa 0,0 l/m² 11,6 km/h (2 Bft) W-NW 293 ° 1 min 295 W/m² 14,9 °C 25,6 °C 16,1 km/h (3 Bft)
22.07.2024 15:21 24,1 °C 26,4 °C 64 % 50 % 1015,1 hPa 0,0 l/m² 8,1 km/h (2 Bft) W 263 ° 2 min 415 W/m² 15,1 °C 26,1 °C 14,5 km/h (3 Bft)
22.07.2024 15:23 24,1 °C 26,4 °C 64 % 50 % 1015,1 hPa 0,0 l/m² 3,4 km/h (1 Bft) W-NW 287 ° 2 min 304 W/m² 15,1 °C 26,4 °C 6,4 km/h (2 Bft)
22.07.2024 15:24 24,1 °C 26,4 °C 64 % 51 % 1015,1 hPa 0,0 l/m² 8,5 km/h (2 Bft) NW 321 ° 1 min 304 W/m² 15,4 °C 26,0 °C 17,7 km/h (3 Bft)
22.07.2024 15:25 24,1 °C 26,4 °C 64 % 50 % 1015,2 hPa 0,0 l/m² 10,5 km/h (2 Bft) NW 306 ° 1 min 304 W/m² 15,1 °C 25,6 °C 16,1 km/h (3 Bft)
22.07.2024 15:26 24,1 °C 26,4 °C 64 % 49 % 1015,2 hPa 0,0 l/m² 7,6 km/h (2 Bft) W 266 ° 1 min 278 W/m² 14,8 °C 26,2 °C 12,9 km/h (3 Bft)
22.07.2024 15:27 24,1 °C 26,4 °C 64 % 50 % 1015,2 hPa 0,0 l/m² 9,1 km/h (2 Bft) NW 325 ° 1 min 264 W/m² 15,1 °C 25,9 °C 16,1 km/h (3 Bft)
22.07.2024 15:28 24,1 °C 26,4 °C 64 % 50 % 1015,1 hPa 0,0 l/m² 9,0 km/h (2 Bft) W-SW 252 ° 1 min 269 W/m² 15,1 °C 25,9 °C 14,5 km/h (3 Bft)
22.07.2024 15:29 24,1 °C 26,4 °C 64 % 50 % 1015,1 hPa 0,0 l/m² 7,1 km/h (2 Bft) W 279 ° 1 min 315 W/m² 15,1 °C 26,3 °C 16,1 km/h (3 Bft)
22.07.2024 15:31 24,1 °C 26,4 °C 64 % 51 % 1015,1 hPa 0,0 l/m² 7,3 km/h (2 Bft) NW 321 ° 2 min 315 W/m² 15,4 °C 26,2 °C 16,1 km/h (3 Bft)
22.07.2024 15:33 24,1 °C 26,4 °C 64 % 49 % 1015,2 hPa 0,0 l/m² 9,4 km/h (2 Bft) N-NW 329 ° 2 min 287 W/m² 14,8 °C 25,8 °C 17,7 km/h (3 Bft)
22.07.2024 15:34 24,1 °C 26,4 °C 64 % 50 % 1015,2 hPa 0,0 l/m² 6,8 km/h (2 Bft) N-NW 341 ° 1 min 287 W/m² 15,1 °C 26,3 °C 9,7 km/h (2 Bft)
22.07.2024 15:35 24,2 °C 26,4 °C 64 % 50 % 1015,2 hPa 0,0 l/m² 8,7 km/h (2 Bft) W-NW 302 ° 1 min 334 W/m² 15,1 °C 25,9 °C 12,9 km/h (3 Bft)
22.07.2024 15:36 24,1 °C 26,4 °C 64 % 49 % 1015,1 hPa 0,0 l/m² 11,9 km/h (2 Bft) NW 316 ° 1 min 334 W/m² 14,8 °C 25,4 °C 16,1 km/h (3 Bft)
22.07.2024 15:37 24,1 °C 26,4 °C 64 % 50 % 1015,2 hPa 0,0 l/m² 14,9 km/h (3 Bft) N-NW 347 ° 1 min 334 W/m² 15,1 °C 25,0 °C 24,1 km/h (4 Bft)
22.07.2024 15:38 24,2 °C 26,4 °C 64 % 50 % 1015,2 hPa 0,0 l/m² 10,9 km/h (2 Bft) NW 311 ° 1 min 334 W/m² 15,1 °C 25,6 °C 17,7 km/h (3 Bft)
22.07.2024 15:39 24,1 °C 26,4 °C 64 % 50 % 1015,2 hPa 0,0 l/m² 8,0 km/h (2 Bft) N-NW 337 ° 1 min 334 W/m² 15,1 °C 26,1 °C 12,9 km/h (3 Bft)
22.07.2024 15:41 24,2 °C 26,4 °C 64 % 50 % 1015,2 hPa 0,0 l/m² 9,5 km/h (2 Bft) SW 224 ° 2 min 334 W/m² 15,1 °C 25,8 °C 19,3 km/h (3 Bft)
22.07.2024 15:43 24,1 °C 26,5 °C 64 % 49 % 1015,3 hPa 0,0 l/m² 6,8 km/h (2 Bft) W 279 ° 2 min 272 W/m² 14,9 °C 26,4 °C 16,1 km/h (3 Bft)
22.07.2024 15:45 24,1 °C 26,5 °C 64 % 49 % 1015,2 hPa 0,0 l/m² 8,3 km/h (2 Bft) W 268 ° 2 min 276 W/m² 14,9 °C 26,1 °C 16,1 km/h (3 Bft)
22.07.2024 15:46 24,1 °C 26,5 °C 64 % 48 % 1015,3 hPa 0,0 l/m² 4,2 km/h (1 Bft) W 269 ° 1 min 269 W/m² 14,6 °C 26,5 °C 6,4 km/h (2 Bft)
22.07.2024 15:47 24,1 °C 26,4 °C 64 % 49 % 1015,3 hPa 0,0 l/m² 3,0 km/h (1 Bft) W-NW 288 ° 1 min 258 W/m² 14,8 °C 26,4 °C 4,8 km/h (1 Bft)
22.07.2024 15:48 24,1 °C 26,4 °C 64 % 50 % 1015,2 hPa 0,0 l/m² 5,4 km/h (2 Bft) NW 315 ° 1 min 251 W/m² 15,1 °C 26,4 °C 8,0 km/h (2 Bft)
22.07.2024 15:49 24,1 °C 26,4 °C 64 % 50 % 1015,3 hPa 0,0 l/m² 16,4 km/h (3 Bft) N 360 ° 1 min 257 W/m² 15,1 °C 24,8 °C 20,9 km/h (4 Bft)
22.07.2024 15:51 24,1 °C 26,4 °C 64 % 49 % 1015,3 hPa 0,0 l/m² 12,7 km/h (3 Bft) N-NW 347 ° 2 min 260 W/m² 14,8 °C 25,3 °C 17,7 km/h (3 Bft)
22.07.2024 15:53 24,1 °C 26,4 °C 64 % 50 % 1015,4 hPa 0,0 l/m² 11,8 km/h (2 Bft) N-NW 340 ° 2 min 947 W/m² 15,1 °C 25,4 °C 20,9 km/h (4 Bft)
22.07.2024 15:54 24,2 °C 26,4 °C 64 % 50 % 1015,4 hPa 0,0 l/m² 7,4 km/h (2 Bft) N 355 ° 1 min 947 W/m² 15,1 °C 26,2 °C 12,9 km/h (3 Bft)
22.07.2024 15:55 24,2 °C 26,4 °C 64 % 50 % 1015,4 hPa 0,0 l/m² 9,1 km/h (2 Bft) N-NW 327 ° 1 min 947 W/m² 15,1 °C 25,9 °C 12,9 km/h (3 Bft)
22.07.2024 15:56 24,1 °C 26,4 °C 64 % 50 % 1015,3 hPa 0,0 l/m² 9,0 km/h (2 Bft) NW 306 ° 1 min 947 W/m² 15,1 °C 25,9 °C 14,5 km/h (3 Bft)
22.07.2024 15:57 24,2 °C 26,4 °C 64 % 50 % 1015,3 hPa 0,0 l/m² 10,2 km/h (2 Bft) NW 314 ° 1 min 278 W/m² 15,1 °C 25,7 °C 14,5 km/h (3 Bft)
22.07.2024 15:58 24,2 °C 26,5 °C 64 % 50 % 1015,4 hPa 0,0 l/m² 9,7 km/h (2 Bft) N 5 ° 1 min 255 W/m² 15,2 °C 25,9 °C 16,1 km/h (3 Bft)
22.07.2024 15:59 24,2 °C 26,4 °C 64 % 49 % 1015,3 hPa 0,0 l/m² 11,0 km/h (2 Bft) NW 321 ° 1 min 257 W/m² 14,8 °C 25,5 °C 17,7 km/h (3 Bft)
22.07.2024 16:01 24,1 °C 26,4 °C 64 % 50 % 1015,4 hPa 0,0 l/m² 9,6 km/h (2 Bft) NW 309 ° 2 min 555 W/m² 15,1 °C 25,8 °C 16,1 km/h (3 Bft)
22.07.2024 16:03 24,1 °C 26,4 °C 64 % 49 % 1015,3 hPa 0,0 l/m² 5,7 km/h (2 Bft) W-NW 294 ° 2 min 515 W/m² 14,8 °C 26,4 °C 12,9 km/h (3 Bft)
22.07.2024 16:04 24,1 °C 26,4 °C 64 % 50 % 1015,4 hPa 0,0 l/m² 11,2 km/h (2 Bft) NW 308 ° 1 min 926 W/m² 15,1 °C 25,5 °C 19,3 km/h (3 Bft)
22.07.2024 16:05 24,2 °C 26,5 °C 64 % 50 % 1015,5 hPa 0,0 l/m² 11,5 km/h (2 Bft) W-NW 302 ° 1 min 905 W/m² 15,2 °C 25,6 °C 17,7 km/h (3 Bft)
22.07.2024 16:06 24,2 °C 26,5 °C 64 % 50 % 1015,4 hPa 0,0 l/m² 9,1 km/h (2 Bft) W 265 ° 1 min 868 W/m² 15,2 °C 26,0 °C 17,7 km/h (3 Bft)
22.07.2024 16:07 24,2 °C 26,6 °C 64 % 49 % 1015,4 hPa 0,0 l/m² 7,6 km/h (2 Bft) NW 323 ° 1 min 272 W/m² 15,0 °C 26,4 °C 12,9 km/h (3 Bft)
22.07.2024 16:08 24,2 °C 26,6 °C 64 % 49 % 1015,3 hPa 0,0 l/m² 4,8 km/h (1 Bft) NW 317 ° 1 min 272 W/m² 15,0 °C 26,6 °C 8,0 km/h (2 Bft)
22.07.2024 16:09 24,2 °C 26,6 °C 64 % 49 % 1015,3 hPa 0,0 l/m² 8,0 km/h (2 Bft) N-NW 329 ° 1 min 272 W/m² 15,0 °C 26,3 °C 14,5 km/h (3 Bft)
22.07.2024 16:11 24,2 °C 26,7 °C 64 % 49 % 1015,3 hPa 0,0 l/m² 6,4 km/h (2 Bft) N-NW 347 ° 2 min 795 W/m² 15,1 °C 26,7 °C 9,7 km/h (2 Bft)
22.07.2024 16:13 24,2 °C 26,8 °C 64 % 50 % 1015,2 hPa 0,0 l/m² 9,3 km/h (2 Bft) N-NW 340 ° 2 min 770 W/m² 15,5 °C 26,3 °C 17,7 km/h (3 Bft)
22.07.2024 16:14 24,2 °C 26,8 °C 64 % 50 % 1015,2 hPa 0,0 l/m² 4,2 km/h (1 Bft) W-NW 303 ° 1 min 802 W/m² 15,5 °C 26,8 °C 11,3 km/h (2 Bft)
22.07.2024 16:15 24,1 °C 26,9 °C 64 % 50 % 1015,2 hPa 0,0 l/m² 8,7 km/h (2 Bft) W 278 ° 1 min 779 W/m² 15,6 °C 26,5 °C 14,5 km/h (3 Bft)
22.07.2024 16:16 24,2 °C 26,9 °C 64 % 50 % 1015,2 hPa 0,0 l/m² 4,4 km/h (1 Bft) NW 304 ° 1 min 779 W/m² 15,6 °C 26,9 °C 9,7 km/h (2 Bft)
22.07.2024 16:17 24,1 °C 26,9 °C 64 % 50 % 1015,2 hPa 0,0 l/m² 12,0 km/h (2 Bft) NW 323 ° 1 min 779 W/m² 15,6 °C 26,0 °C 17,7 km/h (3 Bft)
22.07.2024 16:18 24,1 °C 27,1 °C 64 % 49 % 1015,3 hPa 0,0 l/m² 10,6 km/h (2 Bft) N-NW 338 ° 1 min 779 W/m² 15,4 °C 26,4 °C 16,1 km/h (3 Bft)
22.07.2024 16:19 24,2 °C 27,1 °C 64 % 48 % 1015,3 hPa 0,0 l/m² 6,8 km/h (2 Bft) N-NW 327 ° 1 min 158 W/m² 15,1 °C 27,0 °C 17,7 km/h (3 Bft)
22.07.2024 16:21 24,2 °C 27,2 °C 64 % 48 % 1015,3 hPa 0,0 l/m² 8,8 km/h (2 Bft) NW 322 ° 2 min 158 W/m² 15,2 °C 26,8 °C 17,7 km/h (3 Bft)
22.07.2024 16:23 24,2 °C 27,2 °C 64 % 47 % 1015,3 hPa 0,0 l/m² 12,7 km/h (3 Bft) W-NW 298 ° 2 min 188 W/m² 14,9 °C 26,2 °C 30,6 km/h (5 Bft)
22.07.2024 16:24 24,2 °C 27,2 °C 64 % 47 % 1015,3 hPa 0,0 l/m² 7,2 km/h (2 Bft) NW 323 ° 1 min 232 W/m² 14,9 °C 27,1 °C 11,3 km/h (2 Bft)
22.07.2024 16:25 24,2 °C 27,2 °C 64 % 47 % 1015,2 hPa 0,0 l/m² 12,6 km/h (3 Bft) W-NW 289 ° 1 min 784 W/m² 14,9 °C 26,2 °C 22,5 km/h (4 Bft)
22.07.2024 16:26 24,2 °C 27,2 °C 64 % 48 % 1015,3 hPa 0,0 l/m² 9,6 km/h (2 Bft) N-NW 340 ° 1 min 795 W/m² 15,2 °C 26,7 °C 14,5 km/h (3 Bft)
22.07.2024 16:27 24,2 °C 27,2 °C 64 % 48 % 1015,2 hPa 0,0 l/m² 4,0 km/h (1 Bft) N 5 ° 1 min 773 W/m² 15,2 °C 27,2 °C 9,7 km/h (2 Bft)
22.07.2024 16:28 24,2 °C 27,2 °C 64 % 47 % 1015,2 hPa 0,0 l/m² 13,0 km/h (3 Bft) N-NW 342 ° 1 min 777 W/m² 14,9 °C 26,2 °C 19,3 km/h (3 Bft)
22.07.2024 16:29 24,2 °C 27,2 °C 64 % 47 % 1015,3 hPa 0,0 l/m² 13,0 km/h (3 Bft) NW 323 ° 1 min 761 W/m² 14,9 °C 26,2 °C 17,7 km/h (3 Bft)
22.07.2024 16:31 24,2 °C 27,3 °C 64 % 48 % 1015,3 hPa 0,0 l/m² 10,2 km/h (2 Bft) NW 322 ° 2 min 738 W/m² 15,3 °C 26,7 °C 17,7 km/h (3 Bft)
22.07.2024 16:33 24,2 °C 27,3 °C 64 % 48 % 1015,3 hPa 0,0 l/m² 11,0 km/h (2 Bft) NW 325 ° 2 min 728 W/m² 15,3 °C 26,6 °C 20,9 km/h (4 Bft)
22.07.2024 16:34 24,2 °C 27,4 °C 64 % 47 % 1015,3 hPa 0,0 l/m² 14,7 km/h (3 Bft) NW 306 ° 1 min 712 W/m² 15,1 °C 26,2 °C 20,9 km/h (4 Bft)
22.07.2024 16:35 24,2 °C 27,4 °C 64 % 47 % 1015,3 hPa 0,0 l/m² 16,4 km/h (3 Bft) NW 321 ° 1 min 708 W/m² 15,1 °C 26,1 °C 24,1 km/h (4 Bft)
22.07.2024 16:36 24,2 °C 27,4 °C 64 % 47 % 1015,3 hPa 0,0 l/m² 11,9 km/h (2 Bft) N-NW 344 ° 1 min 696 W/m² 15,1 °C 26,6 °C 17,7 km/h (3 Bft)
22.07.2024 16:37 24,2 °C 27,4 °C 64 % 47 % 1015,3 hPa 0,0 l/m² 11,7 km/h (2 Bft) W 279 ° 1 min 698 W/m² 15,1 °C 26,6 °C 19,3 km/h (3 Bft)
22.07.2024 16:38 24,2 °C 27,4 °C 64 % 47 % 1015,4 hPa 0,0 l/m² 9,2 km/h (2 Bft) NW 321 ° 1 min 526 W/m² 15,1 °C 26,9 °C 16,1 km/h (3 Bft)
22.07.2024 16:39 24,2 °C 27,5 °C 64 % 48 % 1015,4 hPa 0,0 l/m² 11,5 km/h (2 Bft) W 271 ° 1 min 526 W/m² 15,5 °C 26,7 °C 17,7 km/h (3 Bft)
22.07.2024 16:41 24,2 °C 27,6 °C 64 % 47 % 1015,4 hPa 0,0 l/m² 7,3 km/h (2 Bft) W-NW 298 ° 2 min 526 W/m² 15,3 °C 27,4 °C 17,7 km/h (3 Bft)
22.07.2024 16:43 24,2 °C 27,6 °C 64 % 48 % 1015,4 hPa 0,0 l/m² 5,3 km/h (1 Bft) N-NW 333 ° 2 min 677 W/m² 15,6 °C 27,6 °C 12,9 km/h (3 Bft)
22.07.2024 16:44 24,2 °C 27,6 °C 64 % 47 % 1015,5 hPa 0,0 l/m² 12,6 km/h (3 Bft) N-NW 336 ° 1 min 694 W/m² 15,3 °C 26,7 °C 17,7 km/h (3 Bft)
22.07.2024 16:45 24,2 °C 27,7 °C 64 % 47 % 1015,4 hPa 0,0 l/m² 13,1 km/h (3 Bft) N-NW 342 ° 1 min 686 W/m² 15,3 °C 26,8 °C 17,7 km/h (3 Bft)
22.07.2024 16:46 24,2 °C 27,7 °C 64 % 45 % 1015,4 hPa 0,0 l/m² 17,3 km/h (3 Bft) N-NW 344 ° 1 min 664 W/m² 14,7 °C 26,4 °C 24,1 km/h (4 Bft)
22.07.2024 16:47 24,2 °C 27,7 °C 64 % 45 % 1015,4 hPa 0,0 l/m² 12,4 km/h (2 Bft) N-NW 342 ° 1 min 601 W/m² 14,7 °C 26,9 °C 16,1 km/h (3 Bft)
22.07.2024 16:48 24,2 °C 27,7 °C 64 % 46 % 1015,4 hPa 0,0 l/m² 7,7 km/h (2 Bft) W-NW 292 ° 1 min 125 W/m² 15,0 °C 27,5 °C 12,9 km/h (3 Bft)
22.07.2024 16:49 24,2 °C 27,7 °C 64 % 46 % 1015,3 hPa 0,0 l/m² 14,6 km/h (3 Bft) N-NW 348 ° 1 min 165 W/m² 15,0 °C 26,6 °C 20,9 km/h (4 Bft)
22.07.2024 16:51 24,2 °C 27,6 °C 64 % 46 % 1015,4 hPa 0,0 l/m² 10,9 km/h (2 Bft) W-NW 292 ° 2 min 555 W/m² 14,9 °C 26,9 °C 19,3 km/h (3 Bft)
22.07.2024 16:53 24,2 °C 27,6 °C 64 % 45 % 1015,4 hPa 0,0 l/m² 12,0 km/h (2 Bft) W 280 ° 2 min 555 W/m² 14,6 °C 26,8 °C 24,1 km/h (4 Bft)
22.07.2024 16:54 24,2 °C 27,6 °C 64 % 45 % 1015,4 hPa 0,0 l/m² 16,4 km/h (3 Bft) W 273 ° 1 min 675 W/m² 14,6 °C 26,3 °C 22,5 km/h (4 Bft)
22.07.2024 16:55 24,2 °C 27,5 °C 64 % 45 % 1015,4 hPa 0,0 l/m² 9,8 km/h (2 Bft) NW 320 ° 1 min 582 W/m² 14,5 °C 27,0 °C 19,3 km/h (3 Bft)
22.07.2024 16:56 24,2 °C 27,4 °C 64 % 46 % 1015,3 hPa 0,0 l/m² 7,1 km/h (2 Bft) W-NW 294 ° 1 min 582 W/m² 14,7 °C 27,3 °C 11,3 km/h (2 Bft)
22.07.2024 16:57 24,2 °C 27,4 °C 64 % 46 % 1015,4 hPa 0,0 l/m² 6,7 km/h (2 Bft) N 355 ° 1 min 582 W/m² 14,7 °C 27,4 °C 14,5 km/h (3 Bft)
22.07.2024 16:58 24,2 °C 27,4 °C 64 % 48 % 1015,3 hPa 0,0 l/m² 7,1 km/h (2 Bft) W 271 ° 1 min 656 W/m² 15,4 °C 27,3 °C 16,1 km/h (3 Bft)
22.07.2024 16:59 24,2 °C 27,4 °C 64 % 48 % 1015,4 hPa 0,0 l/m² 10,5 km/h (2 Bft) W-NW 296 ° 1 min 654 W/m² 15,4 °C 26,7 °C 14,5 km/h (3 Bft)
22.07.2024 17:01 24,2 °C 27,4 °C 64 % 47 % 1015,4 hPa 0,0 l/m² 3,0 km/h (1 Bft) N-NW 329 ° 2 min 645 W/m² 15,1 °C 27,4 °C 9,7 km/h (2 Bft)
22.07.2024 17:03 24,2 °C 27,4 °C 64 % 47 % 1015,4 hPa 0,0 l/m² 12,5 km/h (2 Bft) N-NW 334 ° 2 min 520 W/m² 15,1 °C 26,5 °C 19,3 km/h (3 Bft)
22.07.2024 17:04 24,2 °C 27,4 °C 64 % 46 % 1015,4 hPa 0,0 l/m² 8,7 km/h (2 Bft) W-NW 303 ° 1 min 520 W/m² 14,7 °C 27,0 °C 20,9 km/h (4 Bft)
22.07.2024 17:05 24,2 °C 27,4 °C 64 % 45 % 1015,4 hPa 0,0 l/m² 11,7 km/h (2 Bft) NW 318 ° 1 min 162 W/m² 14,4 °C 26,6 °C 17,7 km/h (3 Bft)
22.07.2024 17:06 24,2 °C 27,4 °C 64 % 45 % 1015,4 hPa 0,0 l/m² 12,1 km/h (2 Bft) NW 308 ° 1 min 190 W/m² 14,4 °C 26,5 °C 22,5 km/h (4 Bft)
22.07.2024 17:07 24,2 °C 27,4 °C 64 % 45 % 1015,4 hPa 0,0 l/m² 11,9 km/h (2 Bft) NW 304 ° 1 min 190 W/m² 14,4 °C 26,6 °C 17,7 km/h (3 Bft)
22.07.2024 17:08 24,2 °C 27,4 °C 64 % 46 % 1015,5 hPa 0,0 l/m² 14,9 km/h (3 Bft) NW 313 ° 1 min 190 W/m² 14,7 °C 26,2 °C 22,5 km/h (4 Bft)
22.07.2024 17:09 24,2 °C 27,4 °C 64 % 46 % 1015,5 hPa 0,0 l/m² 10,8 km/h (2 Bft) NW 304 ° 1 min 647 W/m² 14,7 °C 26,7 °C 17,7 km/h (3 Bft)
22.07.2024 17:11 24,2 °C 27,4 °C 64 % 45 % 1015,4 hPa 0,0 l/m² 9,5 km/h (2 Bft) W 277 ° 2 min 610 W/m² 14,4 °C 26,9 °C 16,1 km/h (3 Bft)
22.07.2024 17:12 24,2 °C 27,4 °C 64 % 46 % 1015,4 hPa 0,0 l/m² 10,0 km/h (2 Bft) NW 325 ° 1 min 612 W/m² 14,7 °C 26,8 °C 16,1 km/h (3 Bft)
22.07.2024 17:13 24,2 °C 27,4 °C 64 % 46 % 1015,4 hPa 0,0 l/m² 12,2 km/h (2 Bft) W-NW 292 ° 1 min 606 W/m² 14,7 °C 26,5 °C 17,7 km/h (3 Bft)
22.07.2024 17:14 24,2 °C 27,4 °C 64 % 46 % 1015,4 hPa 0,0 l/m² 8,9 km/h (2 Bft) NW 316 ° 1 min 603 W/m² 14,7 °C 27,0 °C 14,5 km/h (3 Bft)
22.07.2024 17:15 24,2 °C 27,4 °C 64 % 47 % 1015,4 hPa 0,0 l/m² 7,8 km/h (2 Bft) NW 317 ° 1 min 594 W/m² 15,1 °C 27,2 °C 14,5 km/h (3 Bft)
22.07.2024 17:16 24,2 °C 27,4 °C 64 % 47 % 1015,5 hPa 0,0 l/m² 8,7 km/h (2 Bft) NW 309 ° 1 min 592 W/m² 15,1 °C 27,0 °C 12,9 km/h (3 Bft)
22.07.2024 17:17 24,2 °C 27,4 °C 64 % 47 % 1015,5 hPa 0,0 l/m² 7,9 km/h (2 Bft) NW 309 ° 1 min 585 W/m² 15,1 °C 27,1 °C 16,1 km/h (3 Bft)
22.07.2024 17:18 24,2 °C 27,5 °C 64 % 47 % 1015,4 hPa 0,0 l/m² 10,4 km/h (2 Bft) W-NW 295 ° 1 min 571 W/m² 15,2 °C 26,9 °C 17,7 km/h (3 Bft)
22.07.2024 17:19 24,2 °C 27,4 °C 64 % 46 % 1015,3 hPa 0,0 l/m² 8,4 km/h (2 Bft) NW 325 ° 1 min 566 W/m² 14,7 °C 27,1 °C 12,9 km/h (3 Bft)
22.07.2024 17:21 24,2 °C 27,6 °C 64 % 46 % 1015,4 hPa 0,0 l/m² 9,4 km/h (2 Bft) N-NW 336 ° 2 min 557 W/m² 14,9 °C 27,1 °C 16,1 km/h (3 Bft)
22.07.2024 17:23 24,2 °C 27,6 °C 64 % 45 % 1015,4 hPa 0,0 l/m² 10,3 km/h (2 Bft) NW 311 ° 2 min 547 W/m² 14,6 °C 27,0 °C 22,5 km/h (4 Bft)
22.07.2024 17:24 24,2 °C 27,6 °C 64 % 46 % 1015,4 hPa 0,0 l/m² 13,7 km/h (3 Bft) W-NW 290 ° 1 min 541 W/m² 14,9 °C 26,6 °C 22,5 km/h (4 Bft)
22.07.2024 17:25 24,2 °C 27,6 °C 64 % 45 % 1015,5 hPa 0,0 l/m² 6,9 km/h (2 Bft) W 279 ° 1 min 538 W/m² 14,6 °C 27,5 °C 16,1 km/h (3 Bft)
22.07.2024 17:26 24,3 °C 27,6 °C 63 % 46 % 1015,5 hPa 0,0 l/m² 5,1 km/h (1 Bft) W-SW 251 ° 1 min 534 W/m² 14,9 °C 27,6 °C 11,3 km/h (2 Bft)
22.07.2024 17:27 24,2 °C 27,6 °C 63 % 46 % 1015,5 hPa 0,0 l/m² 7,3 km/h (2 Bft) NW 306 ° 1 min 531 W/m² 14,9 °C 27,4 °C 12,9 km/h (3 Bft)
22.07.2024 17:28 24,3 °C 27,6 °C 63 % 46 % 1015,5 hPa 0,0 l/m² 7,8 km/h (2 Bft) NW 319 ° 1 min 529 W/m² 14,9 °C 27,4 °C 12,9 km/h (3 Bft)
22.07.2024 17:29 24,2 °C 27,6 °C 63 % 45 % 1015,5 hPa 0,0 l/m² 0,9 km/h (0 Bft) W-SW 246 ° 1 min 526 W/m² 14,6 °C 27,6 °C 4,8 km/h (1 Bft)
22.07.2024 17:31 24,3 °C 27,6 °C 63 % 45 % 1015,5 hPa 0,0 l/m² 8,9 km/h (2 Bft) N-NW 339 ° 2 min 520 W/m² 14,6 °C 27,2 °C 22,5 km/h (4 Bft)
22.07.2024 17:33 24,3 °C 27,6 °C 63 % 45 % 1015,5 hPa 0,0 l/m² 10,1 km/h (2 Bft) NW 309 ° 2 min 517 W/m² 14,6 °C 27,0 °C 24,1 km/h (4 Bft)
22.07.2024 17:34 24,2 °C 27,6 °C 63 % 46 % 1015,6 hPa 0,0 l/m² 7,0 km/h (2 Bft) W-NW 295 ° 1 min 517 W/m² 14,9 °C 27,5 °C 16,1 km/h (3 Bft)
22.07.2024 17:35 24,2 °C 27,7 °C 63 % 47 % 1015,5 hPa 0,0 l/m² 10,5 km/h (2 Bft) N-NW 327 ° 1 min 515 W/m² 15,3 °C 27,1 °C 17,7 km/h (3 Bft)
22.07.2024 17:36 24,3 °C 27,7 °C 63 % 45 % 1015,5 hPa 0,0 l/m² 10,1 km/h (2 Bft) NW 315 ° 1 min 517 W/m² 14,7 °C 27,1 °C 17,7 km/h (3 Bft)
22.07.2024 17:37 24,2 °C 27,7 °C 63 % 45 % 1015,6 hPa 0,0 l/m² 6,3 km/h (2 Bft) NW 308 ° 1 min 519 W/m² 14,7 °C 27,7 °C 14,5 km/h (3 Bft)
22.07.2024 17:38 24,3 °C 27,7 °C 63 % 45 % 1015,5 hPa 0,0 l/m² 5,8 km/h (2 Bft) W-NW 295 ° 1 min 510 W/m² 14,7 °C 27,7 °C 16,1 km/h (3 Bft)
22.07.2024 17:39 24,3 °C 27,7 °C 63 % 44 % 1015,6 hPa 0,0 l/m² 15,2 km/h (3 Bft) W-NW 298 ° 1 min 510 W/m² 14,3 °C 26,6 °C 24,1 km/h (4 Bft)
22.07.2024 17:41 24,3 °C 27,6 °C 63 % 44 % 1015,6 hPa 0,0 l/m² 9,5 km/h (2 Bft) W-NW 290 ° 2 min 98 W/m² 14,2 °C 27,1 °C 16,1 km/h (3 Bft)
22.07.2024 17:42 24,3 °C 27,6 °C 63 % 45 % 1015,6 hPa 0,0 l/m² 3,7 km/h (1 Bft) W 279 ° 1 min 97 W/m² 14,6 °C 27,6 °C 6,4 km/h (2 Bft)
22.07.2024 17:43 24,3 °C 27,5 °C 63 % 45 % 1015,6 hPa 0,0 l/m² 6,3 km/h (2 Bft) N-NW 333 ° 1 min 97 W/m² 14,5 °C 27,5 °C 12,9 km/h (3 Bft)
22.07.2024 17:44 24,3 °C 27,4 °C 63 % 45 % 1015,6 hPa 0,0 l/m² 7,1 km/h (2 Bft) N 355 ° 1 min 97 W/m² 14,4 °C 27,3 °C 12,9 km/h (3 Bft)
22.07.2024 17:45 24,3 °C 27,4 °C 63 % 45 % 1015,6 hPa 0,0 l/m² 8,0 km/h (2 Bft) N-NW 334 ° 1 min 197 W/m² 14,4 °C 27,1 °C 16,1 km/h (3 Bft)
22.07.2024 17:46 24,3 °C 27,4 °C 63 % 45 % 1015,6 hPa 0,0 l/m² 10,9 km/h (2 Bft) NW 315 ° 1 min 197 W/m² 14,4 °C 26,7 °C 16,1 km/h (3 Bft)
22.07.2024 17:47 24,3 °C 27,4 °C 63 % 45 % 1015,6 hPa 0,0 l/m² 10,8 km/h (2 Bft) N-NW 344 ° 1 min 497 W/m² 14,4 °C 26,7 °C 19,3 km/h (3 Bft)
22.07.2024 17:48 24,3 °C 27,4 °C 63 % 44 % 1015,6 hPa 0,0 l/m² 9,6 km/h (2 Bft) N-NW 348 ° 1 min 144 W/m² 14,0 °C 26,9 °C 14,5 km/h (3 Bft)
22.07.2024 17:49 24,3 °C 27,3 °C 63 % 45 % 1015,6 hPa 0,0 l/m² 9,6 km/h (2 Bft) NW 311 ° 1 min 144 W/m² 14,3 °C 26,8 °C 14,5 km/h (3 Bft)
22.07.2024 17:51 24,3 °C 27,3 °C 63 % 45 % 1015,7 hPa 0,0 l/m² 12,3 km/h (2 Bft) N 349 ° 2 min 478 W/m² 14,3 °C 26,4 °C 20,9 km/h (4 Bft)
22.07.2024 17:53 24,3 °C 27,2 °C 63 % 45 % 1015,5 hPa 0,0 l/m² 10,8 km/h (2 Bft) N-NW 346 ° 2 min 466 W/m² 14,2 °C 26,5 °C 17,7 km/h (3 Bft)
22.07.2024 17:54 24,3 °C 27,2 °C 63 % 45 % 1015,6 hPa 0,0 l/m² 11,1 km/h (2 Bft) N 355 ° 1 min 468 W/m² 14,2 °C 26,4 °C 16,1 km/h (3 Bft)
22.07.2024 17:55 24,3 °C 27,2 °C 63 % 45 % 1015,7 hPa 0,0 l/m² 9,1 km/h (2 Bft) N 350 ° 1 min 466 W/m² 14,2 °C 26,7 °C 16,1 km/h (3 Bft)
22.07.2024 17:57 24,3 °C 27,2 °C 63 % 46 % 1015,8 hPa 0,0 l/m² 8,9 km/h (2 Bft) W 274 ° 2 min 457 W/m² 14,6 °C 26,8 °C 20,9 km/h (4 Bft)
22.07.2024 17:58 24,3 °C 27,1 °C 63 % 46 % 1015,8 hPa 0,0 l/m² 5,4 km/h (2 Bft) N-NW 348 ° 1 min 452 W/m² 14,5 °C 27,1 °C 9,7 km/h (2 Bft)
22.07.2024 17:59 24,3 °C 27,1 °C 63 % 46 % 1015,7 hPa 0,0 l/m² 10,9 km/h (2 Bft) N-NW 336 ° 1 min 443 W/m² 14,5 °C 26,4 °C 19,3 km/h (3 Bft)
22.07.2024 18:01 24,3 °C 27,1 °C 63 % 45 % 1015,7 hPa 0,0 l/m² 12,5 km/h (2 Bft) N-NW 333 ° 2 min 436 W/m² 14,1 °C 26,1 °C 19,3 km/h (3 Bft)
22.07.2024 18:03 24,3 °C 27,1 °C 63 % 45 % 1015,7 hPa 0,0 l/m² 11,9 km/h (2 Bft) N-NW 332 ° 2 min 429 W/m² 14,1 °C 26,2 °C 22,5 km/h (4 Bft)
22.07.2024 18:04 24,3 °C 27,1 °C 63 % 46 % 1015,7 hPa 0,0 l/m² 10,6 km/h (2 Bft) NW 307 ° 1 min 418 W/m² 14,5 °C 26,4 °C 17,7 km/h (3 Bft)
22.07.2024 18:05 24,3 °C 27,1 °C 63 % 45 % 1015,7 hPa 0,0 l/m² 12,4 km/h (2 Bft) W-NW 300 ° 1 min 418 W/m² 14,1 °C 26,2 °C 20,9 km/h (4 Bft)
22.07.2024 18:06 24,3 °C 27,0 °C 63 % 45 % 1015,7 hPa 0,0 l/m² 13,8 km/h (3 Bft) NW 309 ° 1 min 422 W/m² 14,0 °C 25,9 °C 19,3 km/h (3 Bft)
22.07.2024 18:07 24,2 °C 27,1 °C 63 % 45 % 1015,7 hPa 0,0 l/m² 8,3 km/h (2 Bft) N-NW 336 ° 1 min 415 W/m² 14,1 °C 26,8 °C 14,5 km/h (3 Bft)
22.07.2024 18:08 24,3 °C 27,0 °C 63 % 45 % 1015,7 hPa 0,0 l/m² 15,2 km/h (3 Bft) W-NW 303 ° 1 min 410 W/m² 14,0 °C 25,7 °C 22,5 km/h (4 Bft)
22.07.2024 18:09 24,3 °C 27,0 °C 63 % 44 % 1015,7 hPa 0,0 l/m² 15,3 km/h (3 Bft) NW 323 ° 1 min 408 W/m² 13,7 °C 25,7 °C 25,7 km/h (4 Bft)
22.07.2024 18:10 24,3 °C 26,9 °C 63 % 45 % 1015,7 hPa 0,0 l/m² 13,6 km/h (3 Bft) NW 309 ° 1 min 403 W/m² 13,9 °C 25,8 °C 20,9 km/h (4 Bft)
22.07.2024 18:12 24,3 °C 26,9 °C 63 % 45 % 1015,8 hPa 0,0 l/m² 14,8 km/h (3 Bft) W-NW 284 ° 2 min 396 W/m² 13,9 °C 25,6 °C 29,0 km/h (5 Bft)
22.07.2024 18:13 24,3 °C 26,9 °C 63 % 45 % 1015,8 hPa 0,0 l/m² 3,4 km/h (1 Bft) W 266 ° 1 min 399 W/m² 13,9 °C 26,9 °C 6,4 km/h (2 Bft)
22.07.2024 18:14 24,3 °C 26,9 °C 63 % 45 % 1015,8 hPa 0,0 l/m² 8,0 km/h (2 Bft) W 277 ° 1 min 399 W/m² 13,9 °C 26,6 °C 12,9 km/h (3 Bft)
22.07.2024 18:15 24,2 °C 26,9 °C 63 % 46 % 1015,8 hPa 0,0 l/m² 5,9 km/h (2 Bft) W 263 ° 1 min 401 W/m² 14,3 °C 26,9 °C 17,7 km/h (3 Bft)
22.07.2024 18:17 24,3 °C 26,8 °C 63 % 46 % 1015,8 hPa 0,0 l/m² 8,6 km/h (2 Bft) W-SW 240 ° 2 min 401 W/m² 14,2 °C 26,4 °C 16,1 km/h (3 Bft)
22.07.2024 18:18 24,3 °C 26,8 °C 63 % 45 % 1015,8 hPa 0,0 l/m² 4,4 km/h (1 Bft) W 278 ° 1 min 223 W/m² 13,9 °C 26,8 °C 11,3 km/h (2 Bft)
22.07.2024 18:19 24,2 °C 26,8 °C 63 % 45 % 1015,8 hPa 0,0 l/m² 8,5 km/h (2 Bft) W 274 ° 1 min 223 W/m² 13,9 °C 26,4 °C 14,5 km/h (3 Bft)
22.07.2024 18:21 24,2 °C 26,7 °C 63 % 46 % 1015,8 hPa 0,0 l/m² 5,5 km/h (2 Bft) N-NO 13 ° 2 min 397 W/m² 14,1 °C 26,7 °C 17,7 km/h (3 Bft)
22.07.2024 18:23 24,2 °C 26,7 °C 63 % 47 % 1015,8 hPa 0,0 l/m² 7,3 km/h (2 Bft) NW 326 ° 2 min 385 W/m² 14,4 °C 26,5 °C 16,1 km/h (3 Bft)
22.07.2024 18:24 24,2 °C 26,7 °C 63 % 47 % 1015,8 hPa 0,0 l/m² 3,6 km/h (1 Bft) NW 307 ° 1 min 403 W/m² 14,4 °C 26,7 °C 6,4 km/h (2 Bft)
22.07.2024 18:25 24,2 °C 26,7 °C 63 % 47 % 1015,9 hPa 0,0 l/m² 7,9 km/h (2 Bft) NW 324 ° 1 min 403 W/m² 14,4 °C 26,4 °C 12,9 km/h (3 Bft)
22.07.2024 18:26 24,3 °C 26,7 °C 63 % 47 % 1015,9 hPa 0,0 l/m² 4,5 km/h (1 Bft) W 261 ° 1 min 403 W/m² 14,4 °C 26,7 °C 9,7 km/h (2 Bft)
22.07.2024 18:27 24,2 °C 26,7 °C 63 % 47 % 1015,8 hPa 0,0 l/m² 15,0 km/h (3 Bft) NW 306 ° 1 min 403 W/m² 14,4 °C 25,4 °C 22,5 km/h (4 Bft)
22.07.2024 18:28 24,2 °C 26,7 °C 63 % 47 % 1015,9 hPa 0,0 l/m² 10,5 km/h (2 Bft) N-NW 335 ° 1 min 403 W/m² 14,4 °C 26,0 °C 17,7 km/h (3 Bft)
22.07.2024 18:29 24,2 °C 26,7 °C 63 % 46 % 1015,9 hPa 0,0 l/m² 10,9 km/h (2 Bft) W-SW 252 ° 1 min 403 W/m² 14,1 °C 25,9 °C 14,5 km/h (3 Bft)
22.07.2024 18:31 24,3 °C 26,6 °C 63 % 46 % 1015,9 hPa 0,0 l/m² 10,9 km/h (2 Bft) N-NW 331 ° 2 min 127 W/m² 14,0 °C 25,8 °C 17,7 km/h (3 Bft)
22.07.2024 18:33 24,2 °C 26,5 °C 63 % 47 % 1015,9 hPa 0,0 l/m² 11,6 km/h (2 Bft) W 275 ° 2 min 114 W/m² 14,3 °C 25,6 °C 19,3 km/h (3 Bft)
22.07.2024 18:34 24,2 °C 26,5 °C 63 % 46 % 1015,9 hPa 0,0 l/m² 10,0 km/h (2 Bft) N-NW 337 ° 1 min 114 W/m² 13,9 °C 25,8 °C 17,7 km/h (3 Bft)
22.07.2024 18:35 24,2 °C 26,4 °C 63 % 46 % 1015,9 hPa 0,0 l/m² 5,1 km/h (1 Bft) W-SW 239 ° 1 min 362 W/m² 13,8 °C 26,4 °C 14,5 km/h (3 Bft)
22.07.2024 18:36 24,2 °C 26,4 °C 63 % 46 % 1016,0 hPa 0,0 l/m² 7,5 km/h (2 Bft) W 272 ° 1 min 366 W/m² 13,8 °C 26,2 °C 16,1 km/h (3 Bft)
22.07.2024 18:37 24,2 °C 26,4 °C 63 % 47 % 1015,9 hPa 0,0 l/m² 6,6 km/h (2 Bft) NW 304 ° 1 min 366 W/m² 14,2 °C 26,4 °C 12,9 km/h (3 Bft)
22.07.2024 18:38 24,2 °C 26,4 °C 63 % 46 % 1015,9 hPa 0,0 l/m² 11,7 km/h (2 Bft) N-NW 327 ° 1 min 373 W/m² 13,8 °C 25,4 °C 16,1 km/h (3 Bft)
22.07.2024 18:39 24,2 °C 26,3 °C 63 % 46 % 1015,9 hPa 0,0 l/m² 14,9 km/h (3 Bft) NW 321 ° 1 min 371 W/m² 13,7 °C 24,9 °C 19,3 km/h (3 Bft)
22.07.2024 18:41 24,2 °C 26,3 °C 63 % 46 % 1015,9 hPa 0,0 l/m² 10,9 km/h (2 Bft) NW 311 ° 2 min 229 W/m² 13,7 °C 25,5 °C 16,1 km/h (3 Bft)
22.07.2024 18:43 24,2 °C 26,2 °C 63 % 47 % 1015,9 hPa 0,0 l/m² 8,2 km/h (2 Bft) NW 315 ° 2 min 315 W/m² 14,0 °C 25,8 °C 16,1 km/h (3 Bft)
22.07.2024 18:44 24,2 °C 26,2 °C 63 % 47 % 1015,8 hPa 0,0 l/m² 9,3 km/h (2 Bft) N-NW 331 ° 1 min 287 W/m² 14,0 °C 25,6 °C 16,1 km/h (3 Bft)
22.07.2024 18:46 24,2 °C 26,2 °C 63 % 48 % 1016,0 hPa 0,0 l/m² 7,3 km/h (2 Bft) W 275 ° 2 min 167 W/m² 14,3 °C 26,0 °C 12,9 km/h (3 Bft)
22.07.2024 18:47 24,3 °C 26,2 °C 63 % 48 % 1016,0 hPa 0,0 l/m² 7,2 km/h (2 Bft) NW 311 ° 1 min 120 W/m² 14,3 °C 26,0 °C 12,9 km/h (3 Bft)
22.07.2024 18:48 24,2 °C 26,2 °C 63 % 48 % 1016,0 hPa 0,0 l/m² 7,5 km/h (2 Bft) N-NW 327 ° 1 min 134 W/m² 14,3 °C 26,0 °C 12,9 km/h (3 Bft)
22.07.2024 18:49 24,2 °C 26,1 °C 63 % 48 % 1016,1 hPa 0,0 l/m² 3,0 km/h (1 Bft) NW 314 ° 1 min 111 W/m² 14,2 °C 26,1 °C 6,4 km/h (2 Bft)
22.07.2024 18:51 24,2 °C 26,1 °C 63 % 48 % 1016,0 hPa 0,0 l/m² 3,1 km/h (1 Bft) W-SW 250 ° 2 min 114 W/m² 14,2 °C 26,1 °C 11,3 km/h (2 Bft)
22.07.2024 18:53 24,2 °C 26,1 °C 63 % 47 % 1016,0 hPa 0,0 l/m² 5,1 km/h (1 Bft) W-SW 258 ° 2 min 95 W/m² 13,9 °C 26,1 °C 14,5 km/h (3 Bft)
22.07.2024 18:54 24,2 °C 26,1 °C 63 % 48 % 1016,0 hPa 0,0 l/m² 6,9 km/h (2 Bft) W 280 ° 1 min 93 W/m² 14,2 °C 26,0 °C 16,1 km/h (3 Bft)
22.07.2024 18:55 24,2 °C 26,1 °C 63 % 47 % 1016,0 hPa 0,0 l/m² 11,5 km/h (2 Bft) NW 309 ° 1 min 86 W/m² 13,9 °C 25,1 °C 20,9 km/h (4 Bft)
22.07.2024 18:56 24,2 °C 26,0 °C 63 % 47 % 1016,1 hPa 0,0 l/m² 8,8 km/h (2 Bft) N-NW 327 ° 1 min 79 W/m² 13,8 °C 25,5 °C 14,5 km/h (3 Bft)
22.07.2024 18:57 24,2 °C 26,0 °C 63 % 47 % 1016,1 hPa 0,0 l/m² 5,1 km/h (1 Bft) W-NW 297 ° 1 min 69 W/m² 13,8 °C 26,0 °C 9,7 km/h (2 Bft)
22.07.2024 18:58 24,2 °C 25,9 °C 63 % 48 % 1016,1 hPa 0,0 l/m² 8,9 km/h (2 Bft) NW 308 ° 1 min 69 W/m² 14,0 °C 25,4 °C 12,9 km/h (3 Bft)
22.07.2024 18:59 24,2 °C 25,9 °C 63 % 47 % 1016,0 hPa 0,0 l/m² 7,9 km/h (2 Bft) W-NW 295 ° 1 min 65 W/m² 13,7 °C 25,6 °C 12,9 km/h (3 Bft)
22.07.2024 19:01 24,2 °C 25,9 °C 63 % 48 % 1016,1 hPa 0,0 l/m² 6,5 km/h (2 Bft) W-NW 284 ° 2 min 60 W/m² 14,0 °C 25,9 °C 14,5 km/h (3 Bft)
22.07.2024 19:03 24,2 °C 25,8 °C 63 % 48 % 1016,1 hPa 0,0 l/m² 5,5 km/h (2 Bft) W 260 ° 2 min 56 W/m² 13,9 °C 25,8 °C 16,1 km/h (3 Bft)
22.07.2024 19:04 24,2 °C 25,8 °C 63 % 48 % 1016,1 hPa 0,0 l/m² 5,7 km/h (2 Bft) W-SW 249 ° 1 min 60 W/m² 13,9 °C 25,8 °C 11,3 km/h (2 Bft)
22.07.2024 19:05 24,2 °C 25,8 °C 63 % 48 % 1016,1 hPa 0,0 l/m² 7,8 km/h (2 Bft) W-SW 257 ° 1 min 60 W/m² 13,9 °C 25,5 °C 16,1 km/h (3 Bft)
22.07.2024 19:06 24,2 °C 25,7 °C 63 % 48 % 1016,2 hPa 0,0 l/m² 10,9 km/h (2 Bft) W-NW 290 ° 1 min 56 W/m² 13,9 °C 24,8 °C 16,1 km/h (3 Bft)
22.07.2024 19:07 24,2 °C 25,7 °C 63 % 48 % 1016,2 hPa 0,0 l/m² 9,1 km/h (2 Bft) W 275 ° 1 min 56 W/m² 13,9 °C 25,1 °C 14,5 km/h (3 Bft)
22.07.2024 19:08 24,2 °C 25,6 °C 63 % 48 % 1016,1 hPa 0,0 l/m² 7,9 km/h (2 Bft) W 279 ° 1 min 58 W/m² 13,8 °C 25,3 °C 14,5 km/h (3 Bft)
22.07.2024 19:09 24,2 °C 25,6 °C 63 % 48 % 1016,2 hPa 0,0 l/m² 6,9 km/h (2 Bft) W-NW 297 ° 1 min 60 W/m² 13,8 °C 25,5 °C 14,5 km/h (3 Bft)
22.07.2024 19:10 24,2 °C 25,5 °C 63 % 48 % 1016,2 hPa 0,0 l/m² 6,0 km/h (2 Bft) NW 305 ° 1 min 62 W/m² 13,7 °C 25,5 °C 9,7 km/h (2 Bft)
22.07.2024 19:12 24,2 °C 25,4 °C 63 % 48 % 1016,2 hPa 0,0 l/m² 5,4 km/h (2 Bft) W-NW 294 ° 2 min 62 W/m² 13,6 °C 25,4 °C 11,3 km/h (2 Bft)
22.07.2024 19:13 24,2 °C 25,4 °C 63 % 48 % 1016,2 hPa 0,0 l/m² 6,7 km/h (2 Bft) NW 310 ° 1 min 62 W/m² 13,6 °C 25,3 °C 12,9 km/h (3 Bft)
22.07.2024 19:14 24,2 °C 25,4 °C 63 % 49 % 1016,2 hPa 0,0 l/m² 7,2 km/h (2 Bft) N 349 ° 1 min 65 W/m² 13,9 °C 25,2 °C 9,7 km/h (2 Bft)
22.07.2024 19:15 24,2 °C 25,3 °C 63 % 49 % 1016,2 hPa 0,0 l/m² 6,0 km/h (2 Bft) N-NW 340 ° 1 min 74 W/m² 13,8 °C 25,3 °C 8,0 km/h (2 Bft)
22.07.2024 19:16 24,2 °C 25,3 °C 63 % 49 % 1016,2 hPa 0,0 l/m² 5,9 km/h (2 Bft) W-NW 303 ° 1 min 77 W/m² 13,8 °C 25,3 °C 11,3 km/h (2 Bft)
22.07.2024 19:17 24,3 °C 25,3 °C 63 % 49 % 1016,2 hPa 0,0 l/m² 8,6 km/h (2 Bft) N-NW 335 ° 1 min 81 W/m² 13,8 °C 24,8 °C 16,1 km/h (3 Bft)
22.07.2024 19:18 24,3 °C 25,3 °C 63 % 50 % 1016,2 hPa 0,0 l/m² 9,9 km/h (2 Bft) NW 309 ° 1 min 86 W/m² 14,1 °C 24,5 °C 16,1 km/h (3 Bft)
22.07.2024 19:19 24,2 °C 25,2 °C 63 % 50 % 1016,2 hPa 0,0 l/m² 4,6 km/h (1 Bft) NW 314 ° 1 min 90 W/m² 14,0 °C 25,2 °C 8,0 km/h (2 Bft)
22.07.2024 19:21 24,2 °C 25,1 °C 63 % 50 % 1016,2 hPa 0,0 l/m² 8,3 km/h (2 Bft) W 264 ° 2 min 98 W/m² 13,9 °C 24,6 °C 19,3 km/h (3 Bft)
22.07.2024 19:23 24,2 °C 25,1 °C 63 % 50 % 1016,2 hPa 0,0 l/m² 8,4 km/h (2 Bft) W-NW 298 ° 2 min 102 W/m² 13,9 °C 24,6 °C 17,7 km/h (3 Bft)
22.07.2024 19:24 24,3 °C 25,1 °C 63 % 49 % 1016,2 hPa 0,0 l/m² 7,2 km/h (2 Bft) W-SW 250 ° 1 min 104 W/m² 13,6 °C 24,9 °C 17,7 km/h (3 Bft)
22.07.2024 19:25 24,2 °C 25,0 °C 63 % 49 % 1016,2 hPa 0,0 l/m² 7,5 km/h (2 Bft) W 269 ° 1 min 105 W/m² 13,5 °C 24,7 °C 14,5 km/h (3 Bft)
22.07.2024 19:27 24,2 °C 24,9 °C 63 % 50 % 1016,3 hPa 0,0 l/m² 3,6 km/h (1 Bft) W-NW 289 ° 2 min 111 W/m² 13,7 °C 24,9 °C 11,3 km/h (2 Bft)
22.07.2024 19:28 24,2 °C 24,9 °C 63 % 50 % 1016,3 hPa 0,0 l/m² 5,9 km/h (2 Bft) W-NW 295 ° 1 min 111 W/m² 13,7 °C 24,9 °C 11,3 km/h (2 Bft)
22.07.2024 19:29 24,2 °C 24,9 °C 63 % 49 % 1016,3 hPa 0,0 l/m² 9,9 km/h (2 Bft) W-SW 244 ° 1 min 113 W/m² 13,4 °C 24,1 °C 14,5 km/h (3 Bft)
22.07.2024 19:31 24,2 °C 24,9 °C 63 % 50 % 1016,3 hPa 0,0 l/m² 7,9 km/h (2 Bft) W-NW 292 ° 2 min 111 W/m² 13,7 °C 24,5 °C 16,1 km/h (3 Bft)
22.07.2024 19:33 24,2 °C 24,9 °C 63 % 50 % 1016,3 hPa 0,0 l/m² 9,8 km/h (2 Bft) NW 316 ° 2 min 105 W/m² 13,7 °C 24,1 °C 16,1 km/h (3 Bft)
22.07.2024 19:34 24,2 °C 24,9 °C 63 % 50 % 1016,3 hPa 0,0 l/m² 8,6 km/h (2 Bft) N-NW 340 ° 1 min 102 W/m² 13,7 °C 24,4 °C 16,1 km/h (3 Bft)
22.07.2024 19:35 24,2 °C 24,9 °C 63 % 50 % 1016,3 hPa 0,0 l/m² 9,1 km/h (2 Bft) NW 317 ° 1 min 100 W/m² 13,7 °C 24,2 °C 16,1 km/h (3 Bft)
22.07.2024 19:36 24,2 °C 24,9 °C 63 % 50 % 1016,3 hPa 0,0 l/m² 8,5 km/h (2 Bft) W-NW 284 ° 1 min 98 W/m² 13,7 °C 24,4 °C 14,5 km/h (3 Bft)
22.07.2024 19:37 24,2 °C 24,9 °C 63 % 50 % 1016,3 hPa 0,0 l/m² 10,3 km/h (2 Bft) N-NW 331 ° 1 min 98 W/m² 13,7 °C 24,0 °C 17,7 km/h (3 Bft)
22.07.2024 19:38 24,2 °C 24,9 °C 63 % 50 % 1016,4 hPa 0,0 l/m² 10,8 km/h (2 Bft) N-NW 344 ° 1 min 97 W/m² 13,7 °C 23,9 °C 17,7 km/h (3 Bft)
22.07.2024 19:39 24,2 °C 24,9 °C 63 % 50 % 1016,3 hPa 0,0 l/m² 11,7 km/h (2 Bft) N-NW 327 ° 1 min 95 W/m² 13,7 °C 23,7 °C 17,7 km/h (3 Bft)
22.07.2024 19:41 24,2 °C 24,9 °C 63 % 51 % 1016,4 hPa 0,0 l/m² 9,1 km/h (2 Bft) N-NW 342 ° 2 min 93 W/m² 14,1 °C 24,2 °C 19,3 km/h (3 Bft)
22.07.2024 19:43 24,2 °C 24,9 °C 63 % 50 % 1016,4 hPa 0,0 l/m² 10,8 km/h (2 Bft) N-NW 341 ° 2 min 88 W/m² 13,7 °C 23,9 °C 17,7 km/h (3 Bft)
22.07.2024 19:44 24,2 °C 24,8 °C 63 % 49 % 1016,4 hPa 0,0 l/m² 11,5 km/h (2 Bft) N-NW 335 ° 1 min 81 W/m² 13,3 °C 23,6 °C 14,5 km/h (3 Bft)
22.07.2024 19:45 24,2 °C 24,8 °C 63 % 49 % 1016,4 hPa 0,0 l/m² 10,4 km/h (2 Bft) W-NW 303 ° 1 min 74 W/m² 13,3 °C 23,9 °C 14,5 km/h (3 Bft)
22.07.2024 19:46 24,3 °C 24,8 °C 63 % 49 % 1016,4 hPa 0,0 l/m² 13,4 km/h (3 Bft) N 355 ° 1 min 69 W/m² 13,3 °C 23,3 °C 17,7 km/h (3 Bft)
22.07.2024 19:47 24,2 °C 24,8 °C 63 % 49 % 1016,4 hPa 0,0 l/m² 5,4 km/h (2 Bft) W-NW 297 ° 1 min 62 W/m² 13,3 °C 24,8 °C 11,3 km/h (2 Bft)
22.07.2024 19:48 24,2 °C 24,8 °C 63 % 50 % 1016,4 hPa 0,0 l/m² 5,8 km/h (2 Bft) W-NW 290 ° 1 min 56 W/m² 13,7 °C 24,8 °C 11,3 km/h (2 Bft)
22.07.2024 19:49 24,2 °C 24,8 °C 63 % 49 % 1016,5 hPa 0,0 l/m² 7,5 km/h (2 Bft) NW 326 ° 1 min 53 W/m² 13,3 °C 24,5 °C 14,5 km/h (3 Bft)
22.07.2024 19:51 24,3 °C 24,8 °C 63 % 50 % 1016,4 hPa 0,0 l/m² 10,6 km/h (2 Bft) NW 310 ° 0 min 47 W/m² 13,7 °C 23,8 °C 17,7 km/h (3 Bft)
22.07.2024 19:53 24,2 °C 24,8 °C 63 % 50 % 1016,4 hPa 0,0 l/m² 11,8 km/h (2 Bft) N 355 ° 0 min 47 W/m² 13,7 °C 23,6 °C 22,5 km/h (4 Bft)
22.07.2024 19:54 24,2 °C 24,7 °C 63 % 49 % 1016,4 hPa 0,0 l/m² 13,7 km/h (3 Bft) W-NW 290 ° 0 min 47 W/m² 13,3 °C 23,1 °C 17,7 km/h (3 Bft)
22.07.2024 19:55 24,3 °C 24,7 °C 63 % 50 % 1016,4 hPa 0,0 l/m² 10,0 km/h (2 Bft) N-NW 331 ° 0 min 49 W/m² 13,6 °C 23,8 °C 17,7 km/h (3 Bft)
22.07.2024 19:56 24,3 °C 24,7 °C 63 % 49 % 1016,4 hPa 0,0 l/m² 5,1 km/h (1 Bft) W-NW 292 ° 1 min 53 W/m² 13,3 °C 24,7 °C 14,5 km/h (3 Bft)
22.07.2024 19:57 24,3 °C 24,7 °C 63 % 49 % 1016,5 hPa 0,0 l/m² 4,2 km/h (1 Bft) NW 312 ° 1 min 54 W/m² 13,3 °C 24,7 °C 6,4 km/h (2 Bft)
22.07.2024 19:58 24,3 °C 24,7 °C 63 % 50 % 1016,5 hPa 0,0 l/m² 6,2 km/h (2 Bft) N 5 ° 1 min 54 W/m² 13,6 °C 24,7 °C 11,3 km/h (2 Bft)
22.07.2024 19:59 24,3 °C 24,7 °C 63 % 50 % 1016,5 hPa 0,0 l/m² 3,7 km/h (1 Bft) W-NW 301 ° 1 min 54 W/m² 13,6 °C 24,7 °C 4,8 km/h (1 Bft)
22.07.2024 20:00 24,3 °C 24,6 °C 63 % 50 % 1016,6 hPa 0,0 l/m² 4,7 km/h (1 Bft) N-NW 329 ° 1 min 53 W/m² 13,5 °C 24,6 °C 6,4 km/h (2 Bft)
22.07.2024 20:02 24,3 °C 24,6 °C 63 % 51 % 1016,6 hPa 0,0 l/m² 2,7 km/h (1 Bft) NW 317 ° 0 min 49 W/m² 13,8 °C 24,6 °C 6,4 km/h (2 Bft)
22.07.2024 20:03 24,2 °C 24,6 °C 63 % 51 % 1016,6 hPa 0,0 l/m² 8,9 km/h (2 Bft) W-NW 285 ° 0 min 49 W/m² 13,8 °C 24,0 °C 16,1 km/h (3 Bft)
22.07.2024 20:04 24,2 °C 24,6 °C 63 % 51 % 1016,6 hPa 0,0 l/m² 4,2 km/h (1 Bft) W 277 ° 0 min 49 W/m² 13,8 °C 24,6 °C 9,7 km/h (2 Bft)
22.07.2024 20:05 24,3 °C 24,6 °C 63 % 51 % 1016,6 hPa 0,0 l/m² 2,3 km/h (1 Bft) W-NW 289 ° 0 min 47 W/m² 13,8 °C 24,6 °C 4,8 km/h (1 Bft)
22.07.2024 20:06 24,3 °C 24,6 °C 63 % 52 % 1016,6 hPa 0,0 l/m² 4,0 km/h (1 Bft) NW 305 ° 0 min 47 W/m² 14,1 °C 24,6 °C 6,4 km/h (2 Bft)
22.07.2024 20:07 24,3 °C 24,6 °C 63 % 51 % 1016,6 hPa 0,0 l/m² 5,5 km/h (2 Bft) NW 309 ° 0 min 46 W/m² 13,8 °C 24,6 °C 11,3 km/h (2 Bft)
22.07.2024 20:08 24,3 °C 24,6 °C 63 % 51 % 1016,6 hPa 0,0 l/m² 9,0 km/h (2 Bft) W-NW 294 ° 0 min 46 W/m² 13,8 °C 23,9 °C 12,9 km/h (3 Bft)
22.07.2024 20:09 24,3 °C 24,4 °C 63 % 51 % 1016,7 hPa 0,0 l/m² 3,0 km/h (1 Bft) NW 323 ° 0 min 46 W/m² 13,6 °C 24,4 °C 11,3 km/h (2 Bft)
22.07.2024 20:11 24,3 °C 24,4 °C 63 % 51 % 1016,6 hPa 0,0 l/m² 5,1 km/h (1 Bft) W-NW 288 ° 0 min 44 W/m² 13,6 °C 24,4 °C 11,3 km/h (2 Bft)
22.07.2024 20:13 24,2 °C 24,4 °C 63 % 52 % 1016,7 hPa 0,0 l/m² 3,6 km/h (1 Bft) NW 304 ° 0 min 40 W/m² 13,9 °C 24,4 °C 9,7 km/h (2 Bft)
22.07.2024 20:14 24,3 °C 24,4 °C 63 % 51 % 1016,7 hPa 0,0 l/m² 6,2 km/h (2 Bft) W-NW 303 ° 0 min 37 W/m² 13,6 °C 24,4 °C 12,9 km/h (3 Bft)
22.07.2024 20:15 24,3 °C 24,3 °C 63 % 51 % 1016,8 hPa 0,0 l/m² 4,4 km/h (1 Bft) NW 306 ° 0 min 35 W/m² 13,5 °C 24,3 °C 9,7 km/h (2 Bft)
22.07.2024 20:16 24,3 °C 24,3 °C 63 % 51 % 1016,8 hPa 0,0 l/m² 8,6 km/h (2 Bft) W-NW 294 ° 0 min 33 W/m² 13,5 °C 23,7 °C 14,5 km/h (3 Bft)
22.07.2024 20:17 24,3 °C 24,3 °C 63 % 51 % 1016,8 hPa 0,0 l/m² 6,4 km/h (2 Bft) W 275 ° 0 min 32 W/m² 13,5 °C 24,3 °C 14,5 km/h (3 Bft)
22.07.2024 20:18 24,3 °C 24,3 °C 63 % 51 % 1016,8 hPa 0,0 l/m² 7,5 km/h (2 Bft) W 281 ° 0 min 30 W/m² 13,5 °C 24,0 °C 16,1 km/h (3 Bft)
22.07.2024 20:19 24,3 °C 24,2 °C 63 % 51 % 1016,8 hPa 0,0 l/m² 7,2 km/h (2 Bft) W 277 ° 0 min 28 W/m² 13,4 °C 24,0 °C 14,5 km/h (3 Bft)
22.07.2024 20:21 24,3 °C 24,2 °C 63 % 51 % 1016,9 hPa 0,0 l/m² 3,4 km/h (1 Bft) NW 324 ° 0 min 26 W/m² 13,4 °C 24,2 °C 8,0 km/h (2 Bft)
22.07.2024 20:23 24,3 °C 24,1 °C 63 % 51 % 1016,9 hPa 0,0 l/m² 5,7 km/h (2 Bft) NW 325 ° 0 min 25 W/m² 13,3 °C 24,1 °C 16,1 km/h (3 Bft)
22.07.2024 20:24 24,3 °C 24,1 °C 63 % 50 % 1016,9 hPa 0,0 l/m² 6,3 km/h (2 Bft) W-NW 286 ° 0 min 25 W/m² 13,0 °C 24,1 °C 12,9 km/h (3 Bft)
22.07.2024 20:25 24,3 °C 24,1 °C 63 % 51 % 1016,9 hPa 0,0 l/m² 4,4 km/h (1 Bft) W-NW 302 ° 0 min 23 W/m² 13,3 °C 24,1 °C 9,7 km/h (2 Bft)
22.07.2024 20:27 24,3 °C 24,0 °C 62 % 51 % 1017,0 hPa 0,0 l/m² 3,0 km/h (1 Bft) W-NW 301 ° 0 min 23 W/m² 13,2 °C 24,0 °C 6,4 km/h (2 Bft)
22.07.2024 20:28 24,3 °C 24,0 °C 62 % 51 % 1017,0 hPa 0,0 l/m² 6,4 km/h (2 Bft) N-NW 327 ° 0 min 23 W/m² 13,2 °C 24,0 °C 12,9 km/h (3 Bft)
22.07.2024 20:29 24,3 °C 23,9 °C 61 % 51 % 1017,0 hPa 0,0 l/m² 5,7 km/h (2 Bft) W 278 ° 0 min 21 W/m² 13,1 °C 23,9 °C 9,7 km/h (2 Bft)
22.07.2024 20:31 24,3 °C 23,9 °C 60 % 51 % 1017,0 hPa 0,0 l/m² 6,9 km/h (2 Bft) W 261 ° 0 min 21 W/m² 13,1 °C 23,8 °C 12,9 km/h (3 Bft)
22.07.2024 20:33 24,2 °C 23,8 °C 59 % 51 % 1017,1 hPa 0,0 l/m² 3,3 km/h (1 Bft) NW 311 ° 0 min 21 W/m² 13,0 °C 23,8 °C 8,0 km/h (2 Bft)
22.07.2024 20:34 24,2 °C 23,8 °C 58 % 51 % 1017,1 hPa 0,0 l/m² 3,0 km/h (1 Bft) NW 311 ° 0 min 21 W/m² 13,0 °C 23,8 °C 4,8 km/h (1 Bft)
22.07.2024 20:35 24,2 °C 23,7 °C 58 % 52 % 1017,1 hPa 0,0 l/m² 6,0 km/h (2 Bft) SW 235 ° 0 min 21 W/m² 13,2 °C 23,7 °C 11,3 km/h (2 Bft)
22.07.2024 20:36 24,2 °C 23,7 °C 57 % 52 % 1017,1 hPa 0,0 l/m² 6,5 km/h (2 Bft) N-NW 331 ° 0 min 21 W/m² 13,2 °C 23,7 °C 12,9 km/h (3 Bft)
22.07.2024 20:37 24,2 °C 23,7 °C 57 % 52 % 1017,1 hPa 0,0 l/m² 5,1 km/h (1 Bft) W-NW 296 ° 0 min 21 W/m² 13,2 °C 23,7 °C 8,0 km/h (2 Bft)
22.07.2024 20:38 24,2 °C 23,7 °C 57 % 52 % 1017,1 hPa 0,0 l/m² 3,8 km/h (1 Bft) W 271 ° 0 min 19 W/m² 13,2 °C 23,7 °C 6,4 km/h (2 Bft)
22.07.2024 20:39 24,1 °C 23,7 °C 56 % 52 % 1017,2 hPa 0,0 l/m² 2,6 km/h (1 Bft) W 278 ° 0 min 19 W/m² 13,2 °C 23,7 °C 4,8 km/h (1 Bft)
22.07.2024 20:41 24,1 °C 23,6 °C 56 % 53 % 1017,2 hPa 0,0 l/m² 4,0 km/h (1 Bft) NW 313 ° 0 min 18 W/m² 13,4 °C 23,6 °C 8,0 km/h (2 Bft)
22.07.2024 20:43 24,1 °C 23,6 °C 56 % 53 % 1017,1 hPa 0,0 l/m² 3,2 km/h (1 Bft) W-NW 289 ° 0 min 16 W/m² 13,4 °C 23,6 °C 6,4 km/h (2 Bft)
22.07.2024 20:44 24,1 °C 23,5 °C 55 % 53 % 1017,1 hPa 0,0 l/m² 4,4 km/h (1 Bft) W-NW 297 ° 0 min 16 W/m² 13,4 °C 23,5 °C 6,4 km/h (2 Bft)
22.07.2024 20:45 24,1 °C 23,4 °C 55 % 53 % 1017,2 hPa 0,0 l/m² 4,4 km/h (1 Bft) W-NW 301 ° 0 min 16 W/m² 13,3 °C 23,4 °C 6,4 km/h (2 Bft)
22.07.2024 20:46 24,1 °C 23,4 °C 55 % 53 % 1017,2 hPa 0,0 l/m² 3,6 km/h (1 Bft) W-NW 298 ° 0 min 14 W/m² 13,3 °C 23,4 °C 4,8 km/h (1 Bft)
22.07.2024 20:47 24,1 °C 23,4 °C 55 % 53 % 1017,3 hPa 0,0 l/m² 3,5 km/h (1 Bft) NW 318 ° 0 min 14 W/m² 13,3 °C 23,4 °C 6,4 km/h (2 Bft)
22.07.2024 20:48 24,1 °C 23,4 °C 55 % 54 % 1017,3 hPa 0,0 l/m² 2,5 km/h (1 Bft) N-NW 329 ° 0 min 14 W/m² 13,6 °C 23,4 °C 4,8 km/h (1 Bft)
22.07.2024 20:49 24,1 °C 23,3 °C 55 % 54 % 1017,2 hPa 0,0 l/m² 5,0 km/h (1 Bft) N 360 ° 0 min 12 W/m² 13,5 °C 23,3 °C 6,4 km/h (2 Bft)
22.07.2024 20:50 24,1 °C 23,3 °C 55 % 54 % 1017,2 hPa 0,0 l/m² 3,1 km/h (1 Bft) NW 315 ° 0 min 12 W/m² 13,5 °C 23,3 °C 4,8 km/h (1 Bft)
22.07.2024 20:52 24,0 °C 23,2 °C 54 % 54 % 1017,2 hPa 0,0 l/m² 2,3 km/h (1 Bft) NW 321 ° 0 min 12 W/m² 13,4 °C 23,2 °C 3,2 km/h (1 Bft)
22.07.2024 20:53 24,0 °C 23,2 °C 54 % 54 % 1017,3 hPa 0,0 l/m² 1,5 km/h (1 Bft) NW 311 ° 0 min 11 W/m² 13,4 °C 23,2 °C 4,8 km/h (1 Bft)
22.07.2024 20:54 24,0 °C 23,2 °C 54 % 54 % 1017,1 hPa 0,0 l/m² 2,9 km/h (1 Bft) W-NW 300 ° 0 min 11 W/m² 13,4 °C 23,2 °C 4,8 km/h (1 Bft)
22.07.2024 20:55 24,0 °C 23,2 °C 54 % 54 % 1017,2 hPa 0,0 l/m² 3,1 km/h (1 Bft) W-NW 296 ° 0 min 11 W/m² 13,4 °C 23,2 °C 4,8 km/h (1 Bft)
22.07.2024 20:56 24,0 °C 23,1 °C 54 % 55 % 1017,2 hPa 0,0 l/m² 3,9 km/h (1 Bft) NW 313 ° 0 min 11 W/m² 13,6 °C 23,1 °C 6,4 km/h (2 Bft)
22.07.2024 20:57 23,9 °C 23,1 °C 54 % 55 % 1017,3 hPa 0,0 l/m² 2,1 km/h (1 Bft) W 281 ° 0 min 9 W/m² 13,6 °C 23,1 °C 4,8 km/h (1 Bft)
22.07.2024 20:58 23,9 °C 23,1 °C 54 % 55 % 1017,2 hPa 0,0 l/m² 2,0 km/h (1 Bft) W-NW 290 ° 0 min 9 W/m² 13,6 °C 23,1 °C 3,2 km/h (1 Bft)
22.07.2024 20:59 23,9 °C 23,0 °C 54 % 55 % 1017,2 hPa 0,0 l/m² 1,3 km/h (1 Bft) W-NW 300 ° 0 min 9 W/m² 13,5 °C 23,0 °C 3,2 km/h (1 Bft)
22.07.2024 21:01 23,9 °C 22,9 °C 54 % 55 % 1017,3 hPa 0,0 l/m² 2,6 km/h (1 Bft) W-NW 303 ° 0 min 9 W/m² 13,4 °C 22,9 °C 4,8 km/h (1 Bft)
22.07.2024 21:02 23,9 °C 22,8 °C 54 % 55 % 1017,3 hPa 0,0 l/m² 2,7 km/h (1 Bft) W-NW 296 ° 0 min 7 W/m² 13,3 °C 22,8 °C 4,8 km/h (1 Bft)
22.07.2024 21:03 23,9 °C 22,8 °C 54 % 55 % 1017,3 hPa 0,0 l/m² 3,2 km/h (1 Bft) W-NW 301 ° 0 min 7 W/m² 13,3 °C 22,8 °C 4,8 km/h (1 Bft)
22.07.2024 21:04 23,9 °C 22,8 °C 54 % 55 % 1017,3 hPa 0,0 l/m² 3,0 km/h (1 Bft) W-NW 302 ° 0 min 7 W/m² 13,3 °C 22,8 °C 4,8 km/h (1 Bft)
22.07.2024 21:05 23,9 °C 22,8 °C 53 % 55 % 1017,3 hPa 0,0 l/m² 2,9 km/h (1 Bft) NW 305 ° 0 min 7 W/m² 13,3 °C 22,8 °C 6,4 km/h (2 Bft)
22.07.2024 21:06 23,9 °C 22,7 °C 54 % 55 % 1017,3 hPa 0,0 l/m² 2,4 km/h (1 Bft) NW 315 ° 0 min 5 W/m² 13,2 °C 22,7 °C 4,8 km/h (1 Bft)
22.07.2024 21:07 23,9 °C 22,7 °C 54 % 55 % 1017,3 hPa 0,0 l/m² 3,5 km/h (1 Bft) W-NW 301 ° 0 min 5 W/m² 13,2 °C 22,7 °C 4,8 km/h (1 Bft)
22.07.2024 21:08 23,9 °C 22,6 °C 54 % 55 % 1017,4 hPa 0,0 l/m² 1,9 km/h (1 Bft) W-NW 286 ° 0 min 5 W/m² 13,1 °C 22,6 °C 3,2 km/h (1 Bft)
22.07.2024 21:09 23,9 °C 22,6 °C 54 % 56 % 1017,4 hPa 0,0 l/m² 1,7 km/h (1 Bft) W-NW 288 ° 0 min 5 W/m² 13,4 °C 22,6 °C 4,8 km/h (1 Bft)
22.07.2024 21:11 23,8 °C 22,5 °C 54 % 56 % 1017,4 hPa 0,0 l/m² 1,9 km/h (1 Bft) W-NW 292 ° 0 min 5 W/m² 13,3 °C 22,5 °C 4,8 km/h (1 Bft)
22.07.2024 21:13 23,8 °C 22,4 °C 54 % 56 % 1017,5 hPa 0,0 l/m² 1,2 km/h (1 Bft) W-NW 292 ° 0 min 0 W/m² 13,2 °C 22,4 °C 3,2 km/h (1 Bft)
22.07.2024 21:14 23,8 °C 22,3 °C 54 % 56 % 1017,4 hPa 0,0 l/m² 1,3 km/h (1 Bft) W-NW 294 ° 0 min 0 W/m² 13,1 °C 22,3 °C 3,2 km/h (1 Bft)
22.07.2024 21:15 23,8 °C 22,3 °C 54 % 56 % 1017,5 hPa 0,0 l/m² 1,4 km/h (1 Bft) W-NW 294 ° 0 min 0 W/m² 13,1 °C 22,3 °C 3,2 km/h (1 Bft)
22.07.2024 21:16 23,9 °C 22,3 °C 54 % 57 % 1017,5 hPa 0,0 l/m² 2,8 km/h (1 Bft) W-NW 298 ° 0 min 0 W/m² 13,4 °C 22,3 °C 4,8 km/h (1 Bft)
22.07.2024 21:17 23,9 °C 22,2 °C 54 % 56 % 1017,6 hPa 0,0 l/m² 3,1 km/h (1 Bft) NW 307 ° 0 min 0 W/m² 13,0 °C 22,2 °C 4,8 km/h (1 Bft)
22.07.2024 21:18 23,8 °C 22,2 °C 54 % 57 % 1017,6 hPa 0,0 l/m² 2,1 km/h (1 Bft) NW 306 ° 0 min 0 W/m² 13,3 °C 22,2 °C 3,2 km/h (1 Bft)
22.07.2024 21:19 23,8 °C 22,2 °C 54 % 57 % 1017,6 hPa 0,0 l/m² 1,4 km/h (1 Bft) NW 310 ° 0 min 0 W/m² 13,3 °C 22,2 °C 3,2 km/h (1 Bft)
22.07.2024 21:21 23,8 °C 22,0 °C 54 % 57 % 1017,5 hPa 0,0 l/m² 1,2 km/h (1 Bft) NW 313 ° 0 min 0 W/m² 13,1 °C 22,0 °C 3,2 km/h (1 Bft)
22.07.2024 21:23 23,8 °C 21,9 °C 54 % 58 % 1017,6 hPa 0,0 l/m² 2,0 km/h (1 Bft) NW 315 ° 0 min 0 W/m² 13,3 °C 21,9 °C 3,2 km/h (1 Bft)
22.07.2024 21:24 23,8 °C 21,9 °C 53 % 58 % 1017,6 hPa 0,0 l/m² 2,3 km/h (1 Bft) NW 321 ° 0 min 0 W/m² 13,3 °C 21,9 °C 4,8 km/h (1 Bft)
22.07.2024 21:25 23,8 °C 21,8 °C 54 % 58 % 1017,6 hPa 0,0 l/m² 1,9 km/h (1 Bft) NW 321 ° 0 min 0 W/m² 13,2 °C 21,8 °C 3,2 km/h (1 Bft)
22.07.2024 21:26 23,8 °C 21,8 °C 53 % 58 % 1017,6 hPa 0,0 l/m² 2,3 km/h (1 Bft) NW 325 ° 0 min 0 W/m² 13,2 °C 21,8 °C 3,2 km/h (1 Bft)
22.07.2024 21:27 23,8 °C 21,8 °C 53 % 58 % 1017,7 hPa 0,0 l/m² 0,9 km/h (0 Bft) NW 325 ° 0 min 0 W/m² 13,2 °C 21,8 °C 3,2 km/h (1 Bft)
22.07.2024 21:28 23,8 °C 21,7 °C 53 % 58 % 1017,6 hPa 0,0 l/m² 2,3 km/h (1 Bft) NW 319 ° 0 min 0 W/m² 13,1 °C 21,7 °C 3,2 km/h (1 Bft)
22.07.2024 21:29 23,8 °C 21,7 °C 53 % 58 % 1017,7 hPa 0,0 l/m² 1,5 km/h (1 Bft) NW 323 ° 0 min 0 W/m² 13,1 °C 21,7 °C 3,2 km/h (1 Bft)
22.07.2024 21:31 23,8 °C 21,6 °C 53 % 58 % 1017,7 hPa 0,0 l/m² 0,5 km/h (0 Bft) NW 319 ° 0 min 0 W/m² 13,0 °C 21,6 °C 1,6 km/h (1 Bft)
22.07.2024 21:33 23,8 °C 21,4 °C 53 % 59 % 1017,8 hPa 0,0 l/m² 1,5 km/h (1 Bft) NW 310 ° 0 min 0 W/m² 13,0 °C 21,4 °C 3,2 km/h (1 Bft)
22.07.2024 21:34 23,8 °C 21,4 °C 53 % 59 % 1017,8 hPa 0,0 l/m² 1,4 km/h (1 Bft) NW 310 ° 0 min 0 W/m² 13,0 °C 21,4 °C 1,6 km/h (1 Bft)
22.07.2024 21:35 23,8 °C 21,3 °C 53 % 59 % 1017,8 hPa 0,0 l/m² 1,8 km/h (1 Bft) NW 314 ° 0 min 0 W/m² 13,0 °C 21,3 °C 3,2 km/h (1 Bft)
22.07.2024 21:36 23,8 °C 21,3 °C 53 % 59 % 1017,8 hPa 0,0 l/m² 1,8 km/h (1 Bft) NW 314 ° 0 min 0 W/m² 13,0 °C 21,3 °C 3,2 km/h (1 Bft)
22.07.2024 21:37 23,7 °C 21,2 °C 53 % 59 % 1017,7 hPa 0,0 l/m² 2,2 km/h (1 Bft) NW 315 ° 0 min 0 W/m² 12,9 °C 21,2 °C 3,2 km/h (1 Bft)
22.07.2024 21:38 23,7 °C 21,2 °C 53 % 60 % 1017,7 hPa 0,0 l/m² 1,7 km/h (1 Bft) NW 308 ° 0 min 0 W/m² 13,1 °C 21,2 °C 3,2 km/h (1 Bft)
22.07.2024 21:39 23,7 °C 21,2 °C 53 % 60 % 1017,7 hPa 0,0 l/m² 0,4 km/h (0 Bft) W-NW 302 ° 0 min 0 W/m² 13,1 °C 21,2 °C 1,6 km/h (1 Bft)
22.07.2024 21:41 23,7 °C 21,1 °C 53 % 60 % 1017,8 hPa 0,0 l/m² 0,3 km/h (0 Bft) W-NW 302 ° 0 min 0 W/m² 13,0 °C 21,1 °C 3,2 km/h (1 Bft)
22.07.2024 21:43 23,7 °C 20,9 °C 53 % 60 % 1017,9 hPa 0,0 l/m² 0,6 km/h (0 Bft) NW 304 ° 0 min 0 W/m² 12,8 °C 20,9 °C 3,2 km/h (1 Bft)
22.07.2024 21:44 23,7 °C 20,9 °C 53 % 60 % 1018,0 hPa 0,0 l/m² 0,4 km/h (0 Bft) W-NW 303 ° 0 min 0 W/m² 12,8 °C 20,9 °C 1,6 km/h (1 Bft)
22.07.2024 21:46 23,7 °C 20,8 °C 53 % 61 % 1017,9 hPa 0,0 l/m² 0,0 km/h (0 Bft) W-NW 303 ° 0 min 0 W/m² 13,0 °C 20,8 °C 1,6 km/h (1 Bft)
22.07.2024 21:47 23,7 °C 20,8 °C 53 % 61 % 1017,9 hPa 0,0 l/m² 0,0 km/h (0 Bft) W-NW 303 ° 0 min 0 W/m² 13,0 °C 20,8 °C 0,0 km/h (0 Bft)
22.07.2024 21:48 23,7 °C 20,7 °C 53 % 61 % 1017,9 hPa 0,0 l/m² 0,0 km/h (0 Bft) NW 304 ° 0 min 0 W/m² 12,9 °C 20,7 °C 0,0 km/h (0 Bft)
22.07.2024 21:49 23,7 °C 20,7 °C 53 % 61 % 1018,0 hPa 0,0 l/m² 0,0 km/h (0 Bft) NW 304 ° 0 min 0 W/m² 12,9 °C 20,7 °C 0,0 km/h (0 Bft)
22.07.2024 21:50 23,7 °C 20,6 °C 53 % 61 % 1017,9 hPa 0,0 l/m² 0,0 km/h (0 Bft) NW 304 ° 0 min 0 W/m² 12,8 °C 20,6 °C 0,0 km/h (0 Bft)
22.07.2024 21:52 23,7 °C 20,5 °C 52 % 62 % 1018,0 hPa 0,0 l/m² 0,0 km/h (0 Bft) NW 304 ° 0 min 0 W/m² 13,0 °C 20,5 °C 0,0 km/h (0 Bft)
22.07.2024 21:53 23,7 °C 20,4 °C 52 % 62 % 1018,0 hPa 0,0 l/m² 0,0 km/h (0 Bft) NW 304 ° 0 min 0 W/m² 12,9 °C 20,4 °C 0,0 km/h (0 Bft)
22.07.2024 21:54 23,7 °C 20,4 °C 52 % 62 % 1018,0 hPa 0,0 l/m² 0,0 km/h (0 Bft) NW 304 ° 0 min 0 W/m² 12,9 °C 20,4 °C 0,0 km/h (0 Bft)
22.07.2024 21:55 23,7 °C 20,3 °C 52 % 62 % 1018,0 hPa 0,0 l/m² 0,0 km/h (0 Bft) NW 304 ° 0 min 0 W/m² 12,8 °C 20,3 °C 0,0 km/h (0 Bft)
22.07.2024 21:56 23,6 °C 20,3 °C 52 % 62 % 1018,0 hPa 0,0 l/m² 0,0 km/h (0 Bft) NW 304 ° 0 min 0 W/m² 12,8 °C 20,3 °C 0,0 km/h (0 Bft)
22.07.2024 21:57 23,6 °C 20,3 °C 52 % 62 % 1018,1 hPa 0,0 l/m² 0,0 km/h (0 Bft) NW 304 ° 0 min 0 W/m² 12,8 °C 20,3 °C 0,0 km/h (0 Bft)
22.07.2024 21:58 23,6 °C 20,2 °C 52 % 63 % 1018,1 hPa 0,0 l/m² 0,0 km/h (0 Bft) NW 304 ° 0 min 0 W/m² 12,9 °C 20,2 °C 0,0 km/h (0 Bft)
22.07.2024 21:59 23,6 °C 20,2 °C 52 % 63 % 1018,1 hPa 0,0 l/m² 0,0 km/h (0 Bft) NW 304 ° 0 min 0 W/m² 12,9 °C 20,2 °C 0,0 km/h (0 Bft)
22.07.2024 22:01 23,6 °C 20,1 °C 52 % 63 % 1018,0 hPa 0,0 l/m² 0,0 km/h (0 Bft) NW 304 ° 0 min 0 W/m² 12,8 °C 20,1 °C 0,0 km/h (0 Bft)
22.07.2024 22:03 23,6 °C 19,9 °C 52 % 63 % 1018,0 hPa 0,0 l/m² 0,0 km/h (0 Bft) NW 305 ° 0 min 0 W/m² 12,6 °C 19,9 °C 0,0 km/h (0 Bft)
22.07.2024 22:04 23,5 °C 19,9 °C 52 % 64 % 1018,1 hPa 0,0 l/m² 0,0 km/h (0 Bft) NW 304 ° 0 min 0 W/m² 12,9 °C 19,9 °C 0,0 km/h (0 Bft)
22.07.2024 22:05 23,5 °C 19,9 °C 52 % 64 % 1018,2 hPa 0,0 l/m² 0,0 km/h (0 Bft) NW 305 ° 0 min 0 W/m² 12,9 °C 19,9 °C 0,0 km/h (0 Bft)
22.07.2024 22:06 23,5 °C 19,8 °C 52 % 64 % 1018,2 hPa 0,0 l/m² 0,0 km/h (0 Bft) NW 305 ° 0 min 0 W/m² 12,8 °C 19,8 °C 0,0 km/h (0 Bft)
22.07.2024 22:07 23,5 °C 19,8 °C 52 % 64 % 1018,2 hPa 0,0 l/m² 0,0 km/h (0 Bft) NW 305 ° 0 min 0 W/m² 12,8 °C 19,8 °C 0,0 km/h (0 Bft)
22.07.2024 22:08 23,4 °C 19,7 °C 52 % 64 % 1018,2 hPa 0,0 l/m² 0,0 km/h (0 Bft) NW 305 ° 0 min 0 W/m² 12,7 °C 19,7 °C 0,0 km/h (0 Bft)
22.07.2024 22:09 23,4 °C 19,7 °C 52 % 64 % 1018,1 hPa 0,0 l/m² 0,0 km/h (0 Bft) NW 305 ° 0 min 0 W/m² 12,7 °C 19,7 °C 0,0 km/h (0 Bft)
22.07.2024 22:11 23,4 °C 19,6 °C 53 % 64 % 1018,1 hPa 0,0 l/m² 0,0 km/h (0 Bft) NW 305 ° 0 min 0 W/m² 12,6 °C 19,6 °C 0,0 km/h (0 Bft)
22.07.2024 22:13 23,4 °C 19,5 °C 53 % 65 % 1018,0 hPa 0,0 l/m² 0,0 km/h (0 Bft) NW 306 ° 0 min 0 W/m² 12,7 °C 19,5 °C 0,0 km/h (0 Bft)
22.07.2024 22:14 23,4 °C 19,4 °C 53 % 65 % 1018,1 hPa 0,0 l/m² 0,0 km/h (0 Bft) NW 306 ° 0 min 0 W/m² 12,6 °C 19,4 °C 0,0 km/h (0 Bft)
22.07.2024 22:15 23,4 °C 19,4 °C 53 % 65 % 1018,1 hPa 0,0 l/m² 0,0 km/h (0 Bft) NW 306 ° 0 min 0 W/m² 12,6 °C 19,4 °C 0,0 km/h (0 Bft)
22.07.2024 22:16 23,4 °C 19,3 °C 53 % 65 % 1018,1 hPa 0,0 l/m² 0,0 km/h (0 Bft) NW 306 ° 0 min 0 W/m² 12,6 °C 19,3 °C 0,0 km/h (0 Bft)
22.07.2024 22:17 23,4 °C 19,3 °C 53 % 65 % 1018,2 hPa 0,0 l/m² 0,0 km/h (0 Bft) NW 306 ° 0 min 0 W/m² 12,6 °C 19,3 °C 0,0 km/h (0 Bft)
22.07.2024 22:18 23,5 °C 19,3 °C 53 % 65 % 1018,2 hPa 0,0 l/m² 0,0 km/h (0 Bft) NW 306 ° 0 min 0 W/m² 12,6 °C 19,3 °C 0,0 km/h (0 Bft)
22.07.2024 22:19 23,5 °C 19,3 °C 53 % 65 % 1018,2 hPa 0,0 l/m² 0,0 km/h (0 Bft) NW 306 ° 0 min 0 W/m² 12,6 °C 19,3 °C 0,0 km/h (0 Bft)
22.07.2024 22:21 23,5 °C 19,2 °C 53 % 65 % 1018,2 hPa 0,0 l/m² 0,0 km/h (0 Bft) NW 306 ° 0 min 0 W/m² 12,5 °C 19,2 °C 0,0 km/h (0 Bft)
22.07.2024 22:23 23,5 °C 19,1 °C 54 % 65 % 1018,2 hPa 0,0 l/m² 0,0 km/h (0 Bft) NW 306 ° 0 min 0 W/m² 12,4 °C 19,1 °C 0,0 km/h (0 Bft)
22.07.2024 22:24 23,6 °C 19,1 °C 54 % 65 % 1018,2 hPa 0,0 l/m² 0,0 km/h (0 Bft) NW 306 ° 0 min 0 W/m² 12,4 °C 19,1 °C 0,0 km/h (0 Bft)
22.07.2024 22:25 23,5 °C 19,0 °C 54 % 65 % 1018,2 hPa 0,0 l/m² 0,0 km/h (0 Bft) NW 306 ° 0 min 0 W/m² 12,3 °C 19,0 °C 0,0 km/h (0 Bft)
22.07.2024 22:27 23,6 °C 19,0 °C 54 % 66 % 1018,2 hPa 0,0 l/m² 0,0 km/h (0 Bft) NW 306 ° 0 min 0 W/m² 12,5 °C 19,0 °C 0,0 km/h (0 Bft)
22.07.2024 22:28 23,6 °C 18,9 °C 54 % 66 % 1018,2 hPa 0,0 l/m² 0,0 km/h (0 Bft) NW 306 ° 0 min 0 W/m² 12,4 °C 18,9 °C 0,0 km/h (0 Bft)
22.07.2024 22:29 23,6 °C 18,9 °C 54 % 66 % 1018,2 hPa 0,0 l/m² 0,0 km/h (0 Bft) NW 305 ° 0 min 0 W/m² 12,4 °C 18,9 °C 0,0 km/h (0 Bft)
22.07.2024 22:31 23,6 °C 18,8 °C 54 % 66 % 1018,2 hPa 0,0 l/m² 0,0 km/h (0 Bft) NW 305 ° 0 min 0 W/m² 12,3 °C 18,8 °C 0,0 km/h (0 Bft)
22.07.2024 22:33 23,6 °C 18,7 °C 54 % 66 % 1018,2 hPa 0,0 l/m² 0,0 km/h (0 Bft) NW 305 ° 0 min 0 W/m² 12,2 °C 18,7 °C 0,0 km/h (0 Bft)
22.07.2024 22:34 23,6 °C 18,7 °C 54 % 66 % 1018,2 hPa 0,0 l/m² 0,0 km/h (0 Bft) NW 305 ° 0 min 0 W/m² 12,2 °C 18,7 °C 0,0 km/h (0 Bft)
22.07.2024 22:35 23,6 °C 18,7 °C 54 % 66 % 1018,2 hPa 0,0 l/m² 0,0 km/h (0 Bft) NW 305 ° 0 min 0 W/m² 12,2 °C 18,7 °C 0,0 km/h (0 Bft)
22.07.2024 22:36 23,6 °C 18,7 °C 54 % 66 % 1018,2 hPa 0,0 l/m² 0,0 km/h (0 Bft) NW 305 ° 0 min 0 W/m² 12,2 °C 18,7 °C 0,0 km/h (0 Bft)
22.07.2024 22:37 23,6 °C 18,6 °C 54 % 67 % 1018,2 hPa 0,0 l/m² 0,0 km/h (0 Bft) NW 305 ° 0 min 0 W/m² 12,3 °C 18,6 °C 0,0 km/h (0 Bft)
22.07.2024 22:38 23,6 °C 18,6 °C 54 % 67 % 1018,2 hPa 0,0 l/m² 0,0 km/h (0 Bft) NW 305 ° 0 min 0 W/m² 12,3 °C 18,6 °C 0,0 km/h (0 Bft)
22.07.2024 22:39 23,6 °C 18,6 °C 54 % 67 % 1018,1 hPa 0,0 l/m² 0,0 km/h (0 Bft) NW 305 ° 0 min 0 W/m² 12,3 °C 18,6 °C 0,0 km/h (0 Bft)
22.07.2024 22:41 23,6 °C 18,6 °C 54 % 68 % 1018,2 hPa 0,0 l/m² 0,0 km/h (0 Bft) NW 305 ° 0 min 0 W/m² 12,6 °C 18,6 °C 0,0 km/h (0 Bft)
22.07.2024 22:43 23,7 °C 18,5 °C 54 % 68 % 1018,3 hPa 0,0 l/m² 0,0 km/h (0 Bft) NW 305 ° 0 min 0 W/m² 12,5 °C 18,5 °C 0,0 km/h (0 Bft)
22.07.2024 22:44 23,6 °C 18,4 °C 54 % 68 % 1018,2 hPa 0,0 l/m² 0,0 km/h (0 Bft) NW 305 ° 0 min 0 W/m² 12,4 °C 18,4 °C 0,0 km/h (0 Bft)
22.07.2024 22:45 23,6 °C 18,4 °C 54 % 68 % 1018,2 hPa 0,0 l/m² 0,0 km/h (0 Bft) NW 305 ° 0 min 0 W/m² 12,4 °C 18,4 °C 0,0 km/h (0 Bft)
22.07.2024 22:46 23,6 °C 18,4 °C 54 % 68 % 1018,2 hPa 0,0 l/m² 0,0 km/h (0 Bft) NW 305 ° 0 min 0 W/m² 12,4 °C 18,4 °C 0,0 km/h (0 Bft)
22.07.2024 22:47 23,6 °C 18,4 °C 54 % 68 % 1018,3 hPa 0,0 l/m² 0,0 km/h (0 Bft) NW 305 ° 0 min 0 W/m² 12,4 °C 18,4 °C 0,0 km/h (0 Bft)
22.07.2024 22:48 23,6 °C 18,3 °C 54 % 68 % 1018,2 hPa 0,0 l/m² 0,0 km/h (0 Bft) NW 305 ° 0 min 0 W/m² 12,3 °C 18,3 °C 0,0 km/h (0 Bft)
22.07.2024 22:49 23,6 °C 18,3 °C 54 % 68 % 1018,3 hPa 0,0 l/m² 0,0 km/h (0 Bft) NW 305 ° 0 min 0 W/m² 12,3 °C 18,3 °C 0,0 km/h (0 Bft)
22.07.2024 22:51 23,7 °C 18,2 °C 54 % 68 % 1018,3 hPa 0,0 l/m² 0,0 km/h (0 Bft) NW 305 ° 0 min 0 W/m² 12,2 °C 18,2 °C 0,0 km/h (0 Bft)
22.07.2024 22:53 23,7 °C 18,2 °C 54 % 69 % 1018,2 hPa 0,0 l/m² 0,0 km/h (0 Bft) NW 305 ° 0 min 0 W/m² 12,4 °C 18,2 °C 0,0 km/h (0 Bft)
22.07.2024 22:54 23,7 °C 18,1 °C 54 % 69 % 1018,3 hPa 0,0 l/m² 0,0 km/h (0 Bft) NW 305 ° 0 min 0 W/m² 12,3 °C 18,1 °C 0,0 km/h (0 Bft)
22.07.2024 22:55 23,7 °C 18,1 °C 54 % 69 % 1018,3 hPa 0,0 l/m² 0,0 km/h (0 Bft) NW 305 ° 0 min 0 W/m² 12,3 °C 18,1 °C 0,0 km/h (0 Bft)
22.07.2024 22:56 23,7 °C 18,1 °C 54 % 69 % 1018,3 hPa 0,0 l/m² 0,0 km/h (0 Bft) NW 305 ° 0 min 0 W/m² 12,3 °C 18,1 °C 0,0 km/h (0 Bft)
22.07.2024 22:57 23,7 °C 18,1 °C 54 % 69 % 1018,3 hPa 0,0 l/m² 0,0 km/h (0 Bft) NW 305 ° 0 min 0 W/m² 12,3 °C 18,1 °C 0,0 km/h (0 Bft)
22.07.2024 22:58 23,6 °C 18,1 °C 54 % 69 % 1018,3 hPa 0,0 l/m² 0,0 km/h (0 Bft) NW 305 ° 0 min 0 W/m² 12,3 °C 18,1 °C 0,0 km/h (0 Bft)
22.07.2024 22:59 23,6 °C 18,0 °C 54 % 70 % 1018,2 hPa 0,0 l/m² 0,0 km/h (0 Bft) NW 305 ° 0 min 0 W/m² 12,4 °C 18,0 °C 0,0 km/h (0 Bft)
22.07.2024 23:01 23,7 °C 17,9 °C 54 % 70 % 1018,2 hPa 0,0 l/m² 0,0 km/h (0 Bft) NW 305 ° 0 min 0 W/m² 12,3 °C 17,9 °C 0,0 km/h (0 Bft)
22.07.2024 23:03 23,7 °C 17,9 °C 54 % 70 % 1018,2 hPa 0,0 l/m² 0,0 km/h (0 Bft) NW 305 ° 0 min 0 W/m² 12,3 °C 17,9 °C 0,0 km/h (0 Bft)
22.07.2024 23:04 23,7 °C 17,9 °C 55 % 70 % 1018,3 hPa 0,0 l/m² 0,0 km/h (0 Bft) NW 305 ° 0 min 0 W/m² 12,3 °C 17,9 °C 0,0 km/h (0 Bft)
22.07.2024 23:05 23,7 °C 17,8 °C 55 % 70 % 1018,3 hPa 0,0 l/m² 0,0 km/h (0 Bft) NW 305 ° 0 min 0 W/m² 12,3 °C 17,8 °C 0,0 km/h (0 Bft)
22.07.2024 23:06 23,7 °C 17,8 °C 55 % 70 % 1018,3 hPa 0,0 l/m² 0,0 km/h (0 Bft) NW 305 ° 0 min 0 W/m² 12,3 °C 17,8 °C 0,0 km/h (0 Bft)
22.07.2024 23:07 23,7 °C 17,8 °C 55 % 70 % 1018,3 hPa 0,0 l/m² 0,0 km/h (0 Bft) NW 305 ° 0 min 0 W/m² 12,3 °C 17,8 °C 0,0 km/h (0 Bft)
22.07.2024 23:08 23,6 °C 17,8 °C 55 % 71 % 1018,3 hPa 0,0 l/m² 0,0 km/h (0 Bft) NW 305 ° 0 min 0 W/m² 12,5 °C 17,8 °C 0,0 km/h (0 Bft)
22.07.2024 23:09 23,7 °C 17,7 °C 55 % 71 % 1018,3 hPa 0,0 l/m² 0,0 km/h (0 Bft) NW 305 ° 0 min 0 W/m² 12,4 °C 17,7 °C 0,0 km/h (0 Bft)
22.07.2024 23:11 23,7 °C 17,7 °C 55 % 71 % 1018,4 hPa 0,0 l/m² 0,0 km/h (0 Bft) NW 305 ° 0 min 0 W/m² 12,4 °C 17,7 °C 0,0 km/h (0 Bft)
22.07.2024 23:13 23,7 °C 17,6 °C 55 % 71 % 1018,3 hPa 0,0 l/m² 0,0 km/h (0 Bft) NW 305 ° 0 min 0 W/m² 12,3 °C 17,6 °C 0,0 km/h (0 Bft)
22.07.2024 23:14 23,7 °C 17,6 °C 55 % 71 % 1018,3 hPa 0,0 l/m² 0,0 km/h (0 Bft) NW 305 ° 0 min 0 W/m² 12,3 °C 17,6 °C 0,0 km/h (0 Bft)
22.07.2024 23:15 23,7 °C 17,6 °C 55 % 71 % 1018,3 hPa 0,0 l/m² 0,0 km/h (0 Bft) NW 305 ° 0 min 0 W/m² 12,3 °C 17,6 °C 0,0 km/h (0 Bft)
22.07.2024 23:16 23,7 °C 17,5 °C 55 % 71 % 1018,3 hPa 0,0 l/m² 0,0 km/h (0 Bft) N 0 ° 0 min 0 W/m² 12,2 °C 17,5 °C 0,0 km/h (0 Bft)
22.07.2024 23:17 23,7 °C 17,5 °C 55 % 71 % 1018,3 hPa 0,0 l/m² 0,0 km/h (0 Bft) N 0 ° 0 min 0 W/m² 12,2 °C 17,5 °C 0,0 km/h (0 Bft)
22.07.2024 23:22 23,6 °C 17,4 °C 55 % 72 % 1018,3 hPa 0,0 l/m² 0,0 km/h (0 Bft) NW 305 ° 0 min 0 W/m² 12,3 °C 17,4 °C 0,0 km/h (0 Bft)
22.07.2024 23:24 23,7 °C 17,3 °C 55 % 72 % 1018,2 hPa 0,0 l/m² 0,0 km/h (0 Bft) NW 305 ° 0 min 0 W/m² 12,2 °C 17,3 °C 0,0 km/h (0 Bft)
22.07.2024 23:25 23,7 °C 17,3 °C 55 % 72 % 1018,2 hPa 0,0 l/m² 0,0 km/h (0 Bft) NW 305 ° 0 min 0 W/m² 12,2 °C 17,3 °C 0,0 km/h (0 Bft)
22.07.2024 23:27 23,7 °C 17,2 °C 55 % 72 % 1018,3 hPa 0,0 l/m² 0,0 km/h (0 Bft) NW 305 ° 0 min 0 W/m² 12,1 °C 17,2 °C 0,0 km/h (0 Bft)
22.07.2024 23:29 23,7 °C 17,2 °C 55 % 73 % 1018,3 hPa 0,0 l/m² 0,0 km/h (0 Bft) NW 305 ° 0 min 0 W/m² 12,3 °C 17,2 °C 0,0 km/h (0 Bft)
22.07.2024 23:30 23,7 °C 17,2 °C 55 % 73 % 1018,3 hPa 0,0 l/m² 0,0 km/h (0 Bft) NW 305 ° 0 min 0 W/m² 12,3 °C 17,2 °C 0,0 km/h (0 Bft)
22.07.2024 23:31 23,7 °C 17,2 °C 55 % 73 % 1018,3 hPa 0,0 l/m² 0,0 km/h (0 Bft) NW 305 ° 0 min 0 W/m² 12,3 °C 17,2 °C 0,0 km/h (0 Bft)
22.07.2024 23:32 23,7 °C 17,2 °C 55 % 74 % 1018,4 hPa 0,0 l/m² 0,0 km/h (0 Bft) NW 305 ° 0 min 0 W/m² 12,5 °C 17,2 °C 0,0 km/h (0 Bft)
22.07.2024 23:35 23,7 °C 17,1 °C 55 % 74 % 1018,3 hPa 0,0 l/m² 0,0 km/h (0 Bft) NW 305 ° 0 min 0 W/m² 12,4 °C 17,1 °C 0,0 km/h (0 Bft)
22.07.2024 23:36 23,7 °C 17,1 °C 55 % 74 % 1018,3 hPa 0,0 l/m² 0,0 km/h (0 Bft) NW 305 ° 0 min 0 W/m² 12,4 °C 17,1 °C 0,0 km/h (0 Bft)
22.07.2024 23:37 23,7 °C 16,9 °C 55 % 74 % 1018,3 hPa 0,0 l/m² 0,0 km/h (0 Bft) NW 305 ° 0 min 0 W/m² 12,2 °C 16,9 °C 0,0 km/h (0 Bft)
22.07.2024 23:38 23,7 °C 16,9 °C 55 % 74 % 1018,3 hPa 0,0 l/m² 0,0 km/h (0 Bft) NW 305 ° 0 min 0 W/m² 12,2 °C 16,9 °C 0,0 km/h (0 Bft)
22.07.2024 23:40 23,7 °C 16,9 °C 55 % 74 % 1018,3 hPa 0,0 l/m² 0,0 km/h (0 Bft) NW 305 ° 0 min 0 W/m² 12,2 °C 16,9 °C 0,0 km/h (0 Bft)
22.07.2024 23:41 23,7 °C 16,9 °C 55 % 74 % 1018,2 hPa 0,0 l/m² 0,0 km/h (0 Bft) NW 305 ° 0 min 0 W/m² 12,2 °C 16,9 °C 0,0 km/h (0 Bft)
22.07.2024 23:42 23,6 °C 16,9 °C 55 % 75 % 1018,3 hPa 0,0 l/m² 0,0 km/h (0 Bft) NW 305 ° 0 min 0 W/m² 12,4 °C 16,9 °C 0,0 km/h (0 Bft)
22.07.2024 23:43 23,6 °C 16,8 °C 55 % 76 % 1018,3 hPa 0,0 l/m² 0,0 km/h (0 Bft) NW 305 ° 0 min 0 W/m² 12,5 °C 16,8 °C 0,0 km/h (0 Bft)
22.07.2024 23:44 23,7 °C 16,8 °C 55 % 76 % 1018,4 hPa 0,0 l/m² 0,0 km/h (0 Bft) NW 305 ° 0 min 0 W/m² 12,5 °C 16,8 °C 0,0 km/h (0 Bft)
22.07.2024 23:45 23,7 °C 16,8 °C 55 % 76 % 1018,4 hPa 0,0 l/m² 0,0 km/h (0 Bft) NW 305 ° 0 min 0 W/m² 12,5 °C 16,8 °C 0,0 km/h (0 Bft)
22.07.2024 23:47 23,7 °C 16,8 °C 55 % 76 % 1018,2 hPa 0,0 l/m² 0,0 km/h (0 Bft) NW 305 ° 0 min 0 W/m² 12,5 °C 16,8 °C 0,0 km/h (0 Bft)
22.07.2024 23:48 23,6 °C 16,8 °C 55 % 77 % 1018,2 hPa 0,0 l/m² 0,0 km/h (0 Bft) NW 306 ° 0 min 0 W/m² 12,7 °C 16,8 °C 0,0 km/h (0 Bft)
22.07.2024 23:49 23,6 °C 16,7 °C 55 % 77 % 1018,3 hPa 0,0 l/m² 0,0 km/h (0 Bft) NW 306 ° 0 min 0 W/m² 12,6 °C 16,7 °C 0,0 km/h (0 Bft)
22.07.2024 23:51 23,6 °C 16,7 °C 55 % 78 % 1018,3 hPa 0,0 l/m² 0,0 km/h (0 Bft) NW 306 ° 0 min 0 W/m² 12,8 °C 16,7 °C 0,0 km/h (0 Bft)
22.07.2024 23:52 23,6 °C 16,7 °C 55 % 78 % 1018,3 hPa 0,0 l/m² 0,0 km/h (0 Bft) NW 306 ° 0 min 0 W/m² 12,8 °C 16,7 °C 0,0 km/h (0 Bft)
22.07.2024 23:54 23,7 °C 16,7 °C 55 % 79 % 1018,2 hPa 0,0 l/m² 0,0 km/h (0 Bft) NW 306 ° 0 min 0 W/m² 13,0 °C 16,7 °C 0,0 km/h (0 Bft)
22.07.2024 23:56 23,7 °C 16,6 °C 55 % 79 % 1018,3 hPa 0,0 l/m² 0,0 km/h (0 Bft) NW 306 ° 0 min 0 W/m² 12,9 °C 16,6 °C 0,0 km/h (0 Bft)
22.07.2024 23:58 23,6 °C 16,6 °C 55 % 79 % 1018,3 hPa 0,0 l/m² 0,0 km/h (0 Bft) NW 306 ° 0 min 0 W/m² 12,9 °C 16,6 °C 0,0 km/h (0 Bft)
_ Min-Zeit 22:17 23:58 22:09 18:09 00:09 - 23:58 - - - - 23:27 23:58 23:58
Minimum _ 23,4 °C 16,6 °C 52 % 44 % 1009,3 hPa - 0,0 km/h (0 Bft) - - - - 12,1 °C 16,6 °C 0,0 km/h (0 Bft)
_ Max-Zeit 20:31 17:39 06:04 05:51 23:45 23:58 12:26 - - 10:33 12:21 04:36 17:38 12:26
Maximum _ 24,3 °C 27,7 °C 67 % 88 % 1018,4 hPa 0,0 l/m² 25,1 km/h
SW (4 Bft)
- - 3 min 1143 W/m² 18,7 °C 27,7 °C 32,2 km/h
SW (5 Bft)
Durchschnitt _ 24,0 °C 23,1 °C 63 % 67 % 1013,7 hPa #0,0 l/m² 7,4 km/h (2 Bft) W-SW - #13:16 h 215 W/m² 16,2 °C 22,4 °C 11,9 km/h (2 Bft)
© 2009 Mathias Hoßbach